[[{"header":{"parameterUnit":"m.s-1","parameterCategory":1,"la1":31.0,"la2":29.5877,"lo1":-88.7671,"lo2":-86.6584,"dy":0.0162,"dx":0.0185,"nx":115,"ny":88,"refTime":"2023-09-27T00:00:00:Z","depth":0,"parameterNumber":2,"parameterNumberName":"U-component_of_WINDS"},"data":[0.0,0.0,0.0,0.0,0.0,0.0,0.0,0.0,0.0,0.0,0.0,0.0,0.0,0.0,0.0,0.0,0.0,0.0,0.0,0.0,0.0,0.0,0.0,0.0,0.0,0.0,0.0,0.0,0.0,0.0,0.0,0.0,0.0,0.0,0.0,0.0,0.0,0.0,0.0,0.0,0.0,0.0,0.0,0.0,0.0,0.0,0.0,0.0,0.0,0.0,0.0,0.0,0.0,0.0,0.0,0.0,0.0,0.0,0.0,0.0,0.0,0.0,0.0,0.0,0.0,0.0,0.0,0.0,0.0,0.0,0.0,0.0,0.0,0.0,0.0,0.0,0.0,0.0,0.0,0.0,0.0,0.0,0.0,0.0,0.0,0.0,0.0,0.0,0.0,0.0,0.0,0.0,0.0,0.0,0.0,0.0,0.0,0.0,0.0,0.0,0.0,0.0,0.0,0.0,0.0,0.0,0.0,0.0,0.0,0.0,0.0,0.0,0.0,0.0,0.0,0.0,0.0,0.0,0.0,0.0,0.0,0.0,0.0,0.0,0.0,0.0,0.0,0.0,0.0,0.0,0.0,0.0,0.0,0.0,0.0,0.0,0.0,0.0,0.0,0.0,0.0,0.0,0.0,0.0,0.0,0.0,0.0,0.0,0.0,0.0,0.0,0.0,0.0,0.0,0.0,0.0,0.0,0.0,0.0,0.0,0.0,0.0,0.0,0.0,0.0,0.0,0.0,0.0,0.0,0.0,0.0,0.0,0.0,0.0,0.0,0.0,0.0,0.0,0.0,0.0,0.0,0.0,0.0,0.0,0.0,0.0,0.0,0.0,0.0,0.0,0.0,0.0,0.0,0.0,0.0,0.0,0.0,0.0,0.0,0.0,0.0,0.0,0.0,0.0,0.0,0.0,0.0,0.0,0.0,0.0,0.0,0.0,0.0,0.0,0.0,0.0,0.0,0.0,0.0,0.0,0.0,0.0,0.0,0.0,0.0,0.0,0.0,0.0,0.0,0.0,0.0,0.0,0.0,0.0,0.0,0.0,0.0,0.0,0.0,0.0,0.0,0.0,0.0,0.0,0.0,0.0,0.0,0.0,0.0,0.0,0.0,0.0,0.0,0.0,0.0,0.0,0.0,0.0,0.0,0.0,0.0,0.0,0.0,0.0,0.0,0.0,0.0,0.0,0.0,0.0,0.0,0.0,0.0,0.0,0.0,0.0,0.0,0.0,0.0,0.0,0.0,0.0,0.0,0.0,0.0,0.0,0.0,0.0,0.0,0.0,0.0,0.0,0.0,0.0,0.0,0.0,0.0,0.0,0.0,0.0,0.0,0.0,0.0,0.0,0.0,0.0,0.0,0.0,0.0,0.0,0.0,0.0,0.0,0.0,0.0,0.0,0.0,0.0,0.0,0.0,0.0,0.0,0.0,0.0,0.0,0.0,0.0,0.0,0.0,0.0,0.0,0.0,0.0,0.0,0.0,0.0,0.0,0.0,0.0,0.0,0.0,0.0,0.0,0.0,0.0,0.0,0.0,0.0,0.0,0.0,0.0,0.0,0.0,0.0,0.0,0.0,0.0,0.0,0.0,0.0,0.0,0.0,0.0,0.0,0.0,0.0,0.0,0.0,0.0,0.0,0.0,0.0,0.0,0.0,0.0,0.0,0.0,0.0,0.0,0.0,0.0,0.0,0.0,0.0,0.0,0.0,0.0,0.0,0.0,0.0,0.0,0.0,0.0,0.0,0.0,0.0,0.0,0.0,0.0,0.0,0.0,0.0,0.0,0.0,0.0,0.0,0.0,0.0,0.0,0.0,0.0,0.0,0.0,0.0,0.0,0.0,0.0,0.0,0.0,0.0,0.0,0.0,0.0,0.0,0.0,0.0,0.0,0.0,0.0,0.0,0.0,0.0,0.0,0.0,0.0,0.0,0.0,0.0,0.0,0.0,0.0,0.0,0.0,0.0,0.0,0.0,0.0,0.0,0.0,0.0,0.0,0.0,0.0,0.0,0.0,0.0,0.0,0.0,0.0,0.0,0.0,0.0,0.0,0.0,0.0,0.0,0.0,0.0,0.0,0.0,0.0,0.0,0.0,0.0,0.0,0.0,0.0,0.0,0.0,0.0,0.0,0.0,0.0,0.0,0.0,0.0,0.0,0.0,0.0,0.0,0.0,0.0,0.0,0.0,0.0,0.0,0.0,0.0,0.0,0.0,0.0,0.0,0.0,0.0,0.0,0.0,0.0,0.0,0.0,0.0,0.0,0.0,0.0,0.0,0.0,0.0,0.0,0.0,0.0,0.0,0.0,0.0,0.0,0.0,0.0,0.0,0.0,0.0,0.0,0.0,0.0,0.0,0.0,0.0,0.0,0.0,0.0,0.0,0.0,0.0,0.0,0.0,0.0,0.0,0.0,0.0,0.0,0.0,0.0,0.0,0.0,0.0,0.0,0.0,0.0,0.0,0.0,0.0,0.0,0.0,0.0,0.0,0.0,0.0,0.0,0.0,0.0,0.0,0.0,0.0,0.0,0.0,0.0,0.0,0.0,0.0,0.0,0.0,0.0,0.0,0.0,0.0,0.0,0.0,0.0,0.0,0.0,0.0,0.0,0.0,0.0,0.0,0.0,0.0,0.0,0.0,0.0,0.0,0.0,0.0,0.0,0.0,0.0,0.0,0.0,0.0,0.0,0.0,0.0,0.0,0.0,0.0,0.0,0.0,0.0,0.0,0.0,0.0,0.0,0.0,0.0,0.0,0.0,0.0,0.0,0.0,0.0,0.0,0.0,0.0,0.0,0.0,0.0,0.0,0.0,0.0,0.0,0.0,0.0,0.0,0.0,0.0,0.0,0.0,0.0,0.0,0.0,0.0,0.0,0.0,0.0,0.0,0.0,0.0,0.0,0.0,0.0,0.0,0.0,0.0,0.0,0.0,0.0,0.0,0.0,0.0,0.0,0.0,0.0,0.0,0.0,0.0,0.0,0.0,0.0,0.0,0.0,0.0,0.0,0.0,0.0,0.0,0.0,0.0,0.0,0.0,0.0,0.0,0.0,0.0,0.0,0.0,0.0,0.0,0.0,0.0,0.0,0.0,0.0,0.0,0.0,0.0,0.0,0.0,0.0,0.0,0.0,0.0,0.0,0.0,0.0,0.0,0.0,0.0,0.0,0.0,0.0,0.0,0.0,0.0,0.0,0.0,0.0,0.0,0.0,0.0,0.0,0.0,0.0,0.0,0.0,0.0,0.0,0.0,0.0,0.0,0.0,0.0,0.0,0.0,0.0,0.0,0.0,0.0,0.0,0.0,0.0,0.0,0.0,0.0,0.0,0.0,0.0,0.0,0.0,0.0,0.0,0.0,0.0,0.0,0.0,0.0,0.0,0.0,0.0,0.0,0.0,0.0,0.0,0.0,0.0,0.0,0.0,0.0,0.0,0.0,0.0,0.0,0.0,0.0,0.0,0.0,0.0,0.0,0.0,0.0,0.0,0.0,0.0,0.0,0.0,0.0,0.0,0.0,0.0,0.0,0.0,0.0,0.0,0.0,0.0,0.0,0.0,0.0,0.0,0.0,0.0,0.0,0.0,0.0,0.0,0.0,0.0,0.0,0.0,0.0,0.0,0.0,0.0,0.0,0.0,0.0,0.0,0.0,0.0,0.0,0.0,0.0,0.0,0.0,0.0,0.0,0.0,0.0,0.0,0.0,0.0,0.0,0.0,0.0,0.0,0.0,0.0,0.0,0.0,0.0,0.0,0.0,0.0,0.0,0.0,0.0,0.0,0.0,0.0,0.0,0.0,0.0,0.0,0.0,0.0,0.0,0.0,0.0,0.0,0.0,0.0,0.0,0.0,0.0,0.0,0.0,0.0,0.0,0.0,0.0,0.0,0.0,0.0,0.0,0.0,0.0,0.0,0.0,0.0,0.0,0.0,0.0,0.0,0.0,0.0,0.0,0.0,0.0,0.0,0.0,0.0,0.0,0.0,0.0,0.0,0.0,0.0,0.0,0.0,0.0,0.0,0.0,0.0,0.0,0.0,0.0,0.0,0.0,0.0,0.0,0.0,0.0,0.0,0.0,0.0,0.0,0.0,0.0,0.0,0.0,0.0,0.0,0.0,0.0,0.0,0.0,0.0,0.0,0.0,0.0,0.0,0.0,0.0,0.0,0.0,0.0,0.0,0.0,0.0,0.0,0.0,0.0,0.0,0.0,0.0,0.0,0.0,0.0,0.0,0.0,0.0,0.0,0.0,0.0,0.0,0.0,0.0,0.0,0.0,0.0,1.6781,0.0,0.0,0.0,0.0,0.0,0.0,0.0,0.0,0.0,0.0,0.0,0.0,0.0,0.0,0.0,0.0,0.0,0.0,0.0,0.0,0.0,0.0,0.0,0.0,0.0,0.0,0.0,0.0,0.0,0.0,0.0,0.0,0.0,0.0,0.0,0.0,0.0,0.0,0.0,0.0,0.0,0.0,0.0,0.0,0.0,0.0,0.0,0.0,0.0,0.0,0.0,0.0,0.0,0.0,0.0,0.0,0.0,0.0,0.0,0.0,0.0,0.0,0.0,0.0,0.0,0.0,0.0,0.0,0.0,0.0,0.0,0.0,0.0,0.0,0.0,0.0,0.0,0.0,0.0,0.0,0.0,0.0,0.0,0.0,0.0,0.0,0.0,0.0,0.0,0.0,0.0,0.0,0.0,0.0,0.0,0.0,0.0,0.0,0.0,0.0,0.0,0.0,0.0,0.0,0.0,0.0,0.0,0.0,0.0,0.0,1.9006,1.865,1.8306,1.8042,1.7868,0.0,0.0,0.0,0.0,0.0,0.0,0.0,0.0,0.0,0.0,0.0,0.0,0.0,0.0,0.0,0.0,0.0,0.0,0.0,0.0,0.0,0.0,0.0,0.0,0.0,0.0,0.0,0.0,0.0,0.0,0.0,0.0,0.0,0.0,0.0,0.0,0.0,0.0,0.0,0.0,0.0,0.0,0.0,0.0,0.0,0.0,0.0,0.0,0.0,0.0,0.0,0.0,0.0,0.0,0.0,0.0,0.0,0.0,0.0,0.0,0.0,0.0,0.0,0.0,0.0,0.0,0.0,0.0,0.0,0.0,0.0,0.0,0.0,0.0,0.0,0.0,0.0,0.0,0.0,0.0,0.0,0.0,0.0,0.0,0.0,0.0,0.0,0.0,0.0,0.0,0.0,0.0,0.0,0.0,0.0,0.0,0.0,0.0,0.0,0.0,0.0,0.0,0.0,0.0,0.0,0.0,0.0,0.0,0.0,0.0,0.0,0.0,1.9353,1.915,1.8773,0.0,0.0,0.0,0.0,0.0,0.0,0.0,0.0,0.0,0.0,0.0,0.0,0.0,0.0,0.0,0.0,0.0,0.0,0.0,0.0,0.0,0.0,0.0,0.0,0.0,0.0,0.0,0.0,0.0,0.0,0.0,0.0,0.0,0.0,0.0,0.0,0.0,0.0,0.0,0.0,0.0,0.0,0.0,0.0,0.0,0.0,0.0,0.0,0.0,0.0,0.0,0.0,0.0,0.0,0.0,0.0,0.0,0.0,0.0,0.0,0.0,0.0,0.0,0.0,0.0,0.0,0.0,0.0,0.0,0.0,0.0,0.0,0.0,0.0,0.0,0.0,0.0,0.0,0.0,0.0,0.0,0.0,0.0,0.0,0.0,0.0,0.0,0.0,0.0,0.0,0.0,0.0,0.0,0.0,0.0,0.0,0.0,0.0,0.0,0.0,0.0,0.0,0.0,0.0,0.0,0.0,0.0,0.0,0.0,0.0,2.0619,2.0562,2.0408,0.0,1.9121,0.0,0.0,0.0,0.0,0.0,0.0,0.0,0.0,0.0,0.0,0.0,0.0,0.0,0.0,0.0,0.0,0.0,0.0,0.0,0.0,0.0,0.0,0.0,0.0,0.0,0.0,0.0,0.0,0.0,0.0,0.0,0.0,0.0,0.0,0.0,0.0,0.0,0.0,0.0,0.0,0.0,0.0,0.0,0.0,0.0,0.0,0.0,0.0,0.0,0.0,0.0,0.0,0.0,0.0,0.0,0.0,0.0,0.0,0.0,0.0,0.0,0.0,0.0,0.0,0.0,0.0,0.0,0.0,0.0,0.0,0.0,0.0,0.0,0.0,0.0,0.0,0.0,0.0,0.0,0.0,0.0,0.0,0.0,0.0,0.0,0.0,0.0,0.0,0.0,0.0,0.0,0.0,0.0,0.0,0.0,0.0,0.0,0.0,0.0,0.0,0.0,0.0,0.0,0.0,0.0,0.0,0.0,0.0,0.0,0.0,2.0954,2.0606,2.084,2.051,0.0,0.0,0.0,0.0,0.0,0.0,0.0,0.0,0.0,0.0,0.0,0.0,0.0,0.0,0.0,0.0,0.0,0.0,0.0,0.0,0.0,0.0,0.0,0.0,0.0,0.0,0.0,0.0,0.0,0.0,0.0,0.0,0.0,0.0,0.0,0.0,0.0,0.0,0.0,0.0,0.0,0.0,0.0,0.0,0.0,0.0,0.0,0.0,0.0,0.0,0.0,0.0,0.0,0.0,0.0,0.0,0.0,0.0,0.0,0.0,0.0,0.0,0.0,0.0,0.0,0.0,0.0,0.0,0.0,0.0,0.0,0.0,0.0,0.0,0.0,0.0,0.0,0.0,0.0,0.0,0.0,0.0,0.0,0.0,0.0,0.0,0.0,0.0,0.0,0.0,0.0,0.0,0.0,0.0,0.0,0.0,0.0,0.0,0.0,0.0,0.0,0.0,0.0,0.0,0.0,0.0,0.0,0.0,0.0,0.0,2.1456,2.1389,2.0972,2.1299,2.0957,1.9806,0.0,0.0,0.0,0.0,0.0,0.0,0.0,0.0,0.0,0.0,0.0,0.0,0.0,0.0,0.0,0.0,0.0,0.0,0.0,0.0,0.0,0.0,0.0,0.0,0.0,0.0,0.0,0.0,0.0,0.0,0.0,0.0,0.0,0.0,0.0,0.0,0.0,0.0,0.0,0.0,0.0,0.0,0.0,0.0,0.0,0.0,0.0,0.0,0.0,0.0,0.0,0.0,0.0,0.0,0.0,0.0,0.0,0.0,0.0,0.0,0.0,0.0,0.0,0.0,0.0,0.0,0.0,0.0,0.0,0.0,0.0,0.0,0.0,0.0,0.0,0.0,0.0,0.0,0.0,0.0,0.0,0.0,0.0,0.0,0.0,0.0,0.0,0.0,0.0,0.0,0.0,0.0,0.0,0.0,0.0,0.0,0.0,0.0,0.0,0.0,0.0,0.0,0.0,0.0,0.0,0.0,0.0,0.0,2.2109,2.2137,2.2091,2.1922,2.195,2.1259,0.0,0.0,0.0,0.0,0.0,0.0,0.0,0.0,0.0,0.0,0.0,0.0,0.0,0.0,0.0,0.0,0.0,0.0,0.0,0.0,0.0,0.0,0.0,0.0,0.0,0.0,0.0,0.0,0.0,0.0,0.0,0.0,0.0,0.0,0.0,0.0,0.0,0.0,0.0,0.0,0.0,0.0,0.0,0.0,0.0,0.0,0.0,0.0,0.0,0.0,0.0,0.0,0.0,0.0,0.0,0.0,0.0,0.0,0.0,0.0,0.0,0.0,0.0,0.0,0.0,0.0,0.0,0.0,0.0,0.0,0.0,0.0,0.0,0.0,0.0,0.0,0.0,0.0,0.0,0.0,0.0,0.0,0.0,0.0,0.0,0.0,0.0,0.0,0.0,0.0,0.0,0.0,0.0,0.0,0.0,0.0,0.0,0.0,0.0,0.0,0.0,0.0,0.0,0.0,0.0,0.0,0.0,0.0,0.0,2.217,2.2128,2.2006,2.1864,2.1769,2.1458,0.0,0.0,0.0,0.0,0.0,0.0,0.0,0.0,0.0,0.0,0.0,0.0,0.0,0.0,0.0,0.0,0.0,0.0,0.0,0.0,0.0,0.0,0.0,0.0,0.0,0.0,0.0,0.0,0.0,0.0,0.0,0.0,0.0,0.0,0.0,0.0,0.0,0.0,0.0,0.0,0.0,0.0,0.0,0.0,0.0,0.0,0.0,0.0,0.0,0.0,0.0,0.0,0.0,0.0,0.0,0.0,0.0,0.0,0.0,0.0,0.0,0.0,0.0,0.0,0.0,0.0,0.0,0.0,0.0,0.0,0.0,0.0,0.0,0.0,0.0,0.0,0.0,0.0,0.0,0.0,0.0,0.0,0.0,0.0,0.0,0.0,0.0,0.0,0.0,0.0,0.0,0.0,0.0,0.0,0.0,0.0,0.0,0.0,0.0,0.0,0.0,0.0,0.0,0.0,0.0,0.0,0.0,0.0,0.0,2.2644,0.0,2.2363,2.2049,2.1928,2.1615,0.0,0.0,0.0,0.0,0.0,0.0,0.0,0.0,0.0,0.0,0.0,0.0,0.0,0.0,0.0,0.0,0.0,0.0,0.0,0.0,0.0,0.0,0.0,0.0,0.0,0.0,0.0,0.0,0.0,0.0,0.0,0.0,0.0,0.0,0.0,0.0,0.0,0.0,0.0,0.0,0.0,0.0,0.0,0.0,0.0,0.0,0.0,0.0,0.0,0.0,0.0,0.0,0.0,0.0,0.0,0.0,0.0,0.0,0.0,0.0,0.0,0.0,0.0,0.0,0.0,0.0,0.0,0.0,0.0,0.0,0.0,0.0,0.0,0.0,0.0,0.0,0.0,0.0,0.0,0.0,0.0,0.0,0.0,0.0,0.0,0.0,0.0,0.0,0.0,0.0,0.0,0.0,0.0,0.0,0.0,0.0,0.0,0.0,0.0,0.0,0.0,0.0,0.0,0.0,0.0,0.0,0.0,0.0,2.3039,2.3537,2.3592,2.321,2.2533,2.2481,2.1787,0.0,0.0,0.0,0.0,0.0,0.0,0.0,0.0,0.0,0.0,0.0,0.0,0.0,0.0,0.0,0.0,0.0,0.0,0.0,0.0,0.0,0.0,0.0,0.0,0.0,0.0,0.0,0.0,0.0,0.0,0.0,0.0,0.0,0.0,0.0,0.0,0.0,0.0,0.0,0.0,0.0,0.0,0.0,0.0,0.0,0.0,0.0,0.0,0.0,0.0,0.0,0.0,0.0,0.0,0.0,0.0,0.0,0.0,0.0,0.0,0.0,0.0,0.0,0.0,0.0,0.0,0.0,0.0,0.0,0.0,0.0,0.0,0.0,0.0,0.0,0.0,0.0,0.0,0.0,0.0,0.0,0.0,0.0,0.0,0.0,0.0,0.0,0.0,0.0,0.0,0.0,0.0,0.0,0.0,0.0,0.0,0.0,0.0,0.0,0.0,0.0,0.0,0.0,0.0,0.0,0.0,0.0,0.0,0.0,2.3491,2.3874,2.3739,2.3009,2.2903,2.2422,0.0,0.0,0.0,0.0,0.0,0.0,0.0,0.0,0.0,0.0,0.0,0.0,0.0,0.0,0.0,0.0,0.0,0.0,0.0,0.0,0.0,0.0,0.0,0.0,0.0,0.0,0.0,0.0,0.0,0.0,0.0,0.0,0.0,0.0,0.0,0.0,0.0,0.0,0.0,0.0,0.0,0.0,0.0,0.0,0.0,0.0,0.0,0.0,0.0,0.0,0.0,0.0,0.0,0.0,0.0,0.0,0.0,0.0,0.0,0.0,0.0,0.0,0.0,0.0,0.0,0.0,0.0,0.0,0.0,0.0,0.0,0.0,0.0,0.0,0.0,0.0,0.0,0.0,0.0,0.0,0.0,0.0,0.0,0.0,0.0,0.0,0.0,0.0,0.0,0.0,0.0,0.0,0.0,0.0,0.0,0.0,0.0,0.0,0.0,0.0,0.0,0.0,0.0,0.0,0.0,0.0,0.0,0.0,0.0,2.4858,2.4998,2.4704,2.3818,2.3708,2.315,2.203,0.0,0.0,0.0,0.0,0.0,0.0,0.0,0.0,0.0,0.0,0.0,0.0,0.0,0.0,0.0,0.0,0.0,0.0,0.0,0.0,0.0,0.0,0.0,0.0,0.0,0.0,0.0,0.0,0.0,0.0,0.0,0.0,0.0,0.0,0.0,0.0,0.0,0.0,0.0,0.0,0.0,0.0,0.0,0.0,0.0,0.0,0.0,0.0,0.0,0.0,0.0,0.0,0.0,0.0,0.0,0.0,0.0,0.0,0.0,0.0,0.0,0.0,0.0,0.0,0.0,0.0,0.0,0.0,0.0,0.0,0.0,0.0,0.0,0.0,0.0,0.0,0.0,0.0,0.0,0.0,0.0,0.0,0.0,0.0,0.0,0.0,0.0,0.0,0.0,0.0,0.0,0.0,0.0,0.0,0.0,0.0,0.0,0.0,0.0,0.0,0.0,0.0,0.0,0.0,0.0,0.0,0.0,0.0,2.7207,2.6852,2.6123,2.4957,2.4862,2.3858,0.0,0.0,0.0,0.0,0.0,0.0,0.0,0.0,0.0,0.0,0.0,0.0,0.0,0.0,0.0,0.0,0.0,0.0,0.0,0.0,0.0,0.0,0.0,0.0,0.0,0.0,0.0,0.0,0.0,0.0,0.0,0.0,0.0,0.0,0.0,0.0,0.0,0.0,0.0,0.0,0.0,0.0,0.0,0.0,0.0,0.0,0.0,0.0,0.0,0.0,0.0,0.0,0.0,0.0,0.0,0.0,0.0,0.0,0.0,0.0,0.0,0.0,0.0,0.0,0.0,0.0,0.0,0.0,0.0,0.0,0.0,0.0,0.0,0.0,0.0,0.0,0.0,0.0,0.0,0.0,0.0,0.0,0.0,0.0,0.0,0.0,0.0,0.0,0.0,0.0,0.0,0.0,0.0,0.0,0.0,0.0,0.0,0.0,0.0,0.0,0.0,0.0,0.0,0.0,0.0,0.0,0.0,0.0,0.0,2.8499,2.8606,2.8015,2.6474,2.5607,2.4458,0.0,0.0,0.0,0.0,0.0,0.0,0.0,0.0,0.0,0.0,0.0,0.0,0.0,0.0,0.0,0.0,0.0,0.0,0.0,0.0,0.0,0.0,0.0,0.0,0.0,0.0,0.0,0.0,0.0,0.0,0.0,0.0,0.0,0.0,0.0,0.0,0.0,0.0,0.0,0.0,0.0,0.0,0.0,0.0,0.0,0.0,0.0,0.0,0.0,0.0,0.0,0.0,0.0,0.0,0.0,0.0,0.0,0.0,0.0,0.0,0.0,0.0,0.0,0.0,0.0,0.0,0.0,0.0,0.0,0.0,0.0,0.0,0.0,0.0,0.0,0.0,0.0,0.0,0.0,0.0,0.0,0.0,0.0,0.0,0.0,0.0,0.0,0.0,0.0,0.0,0.0,0.0,0.0,0.0,0.0,0.0,0.0,0.0,0.0,0.0,0.0,0.0,0.0,0.0,0.0,0.0,0.0,0.0,2.8825,2.9307,2.9299,2.892,2.8192,2.6876,2.541,0.0,0.0,0.0,0.0,0.0,0.0,0.0,0.0,0.0,0.0,0.0,0.0,0.0,0.0,0.0,0.0,0.0,0.0,0.0,0.0,0.0,0.0,0.0,0.0,0.0,0.0,0.0,0.0,0.0,0.0,0.0,0.0,0.0,0.0,0.0,0.0,0.0,0.0,0.0,0.0,0.0,0.0,0.0,0.0,0.0,0.0,0.0,0.0,0.0,0.0,0.0,0.0,0.0,0.0,0.0,0.0,0.0,0.0,0.0,0.0,0.0,0.0,0.0,0.0,0.0,0.0,0.0,0.0,0.0,0.0,0.0,0.0,0.0,0.0,0.0,0.0,0.0,0.0,0.0,0.0,0.0,0.0,0.0,0.0,0.0,0.0,0.0,0.0,0.0,0.0,0.0,0.0,0.0,0.0,0.0,0.0,0.0,0.0,0.0,0.0,0.0,0.0,0.0,0.0,0.0,0.0,0.0,0.0,2.8861,2.9878,2.956,2.9512,2.9836,2.8171,2.6417,0.0,0.0,0.0,0.0,0.0,0.0,0.0,0.0,0.0,0.0,0.0,0.0,0.0,0.0,0.0,0.0,0.0,0.0,0.0,0.0,0.0,0.0,0.0,0.0,0.0,0.0,0.0,0.0,0.0,0.0,0.0,0.0,0.0,0.0,0.0,0.0,0.0,0.0,0.0,0.0,0.0,0.0,0.0,0.0,0.0,0.0,0.0,0.0,0.0,0.0,0.0,0.0,0.0,0.0,0.0,0.0,0.0,0.0,0.0,0.0,0.0,0.0,0.0,0.0,0.0,0.0,0.0,0.0,0.0,0.0,0.0,0.0,0.0,0.0,0.0,0.0,0.0,0.0,0.0,0.0,0.0,0.0,0.0,0.0,0.0,0.0,0.0,0.0,0.0,0.0,0.0,0.0,0.0,0.0,0.0,0.0,0.0,0.0,0.0,0.0,0.0,0.0,0.0,0.0,0.0,0.0,0.0,0.0,2.9859,3.0858,3.1269,3.1136,3.0399,2.8248,2.6432,0.0,0.0,0.0,0.0,0.0,0.0,0.0,0.0,0.0,0.0,0.0,0.0,0.0,0.0,0.0,0.0,0.0,0.0,0.0,0.0,0.0,0.0,0.0,0.0,0.0,0.0,0.0,0.0,0.0,0.0,0.0,0.0,0.0,0.0,0.0,0.0,0.0,0.0,0.0,0.0,0.0,0.0,0.0,0.0,0.0,0.0,0.0,0.0,1.5888,0.0,0.0,0.0,0.0,0.0,0.0,0.0,0.0,0.0,0.0,0.0,0.0,0.0,0.0,0.0,0.0,0.0,0.0,0.0,0.0,0.0,0.0,0.0,0.0,0.0,0.0,0.0,0.0,0.0,0.0,0.0,0.0,0.0,0.0,0.0,0.0,0.0,0.0,0.0,0.0,0.0,0.0,0.0,0.0,0.0,0.0,0.0,0.0,0.0,0.0,0.0,0.0,0.0,0.0,0.0,0.0,0.0,0.0,0.0,3.0217,3.1003,3.1483,3.1451,3.0872,2.9051,2.7309,0.0,0.0,0.0,0.0,0.0,0.0,0.0,0.0,0.0,0.0,0.0,0.0,0.0,0.0,0.0,0.0,0.0,0.0,0.0,0.0,0.0,0.0,0.0,0.0,0.0,0.0,0.0,0.0,0.0,0.0,0.0,0.0,0.0,0.0,0.0,0.0,0.0,0.0,0.0,0.0,0.0,0.0,0.0,0.0,0.0,0.0,0.0,0.0,0.0,0.0,0.0,0.0,0.0,0.0,0.0,0.0,0.0,0.0,0.0,0.0,0.0,0.0,0.0,0.0,0.0,0.0,0.0,0.0,0.0,0.0,0.0,0.0,0.0,0.0,0.0,0.0,0.0,0.0,0.0,0.0,0.0,0.0,0.0,0.0,0.0,0.0,0.0,0.0,0.0,0.0,0.0,0.0,0.0,0.0,0.0,0.0,0.0,0.0,0.0,0.0,0.0,0.0,0.0,0.0,0.0,0.0,0.0,2.9463,3.0323,3.1085,3.1384,3.1456,3.1295,3.0056,2.8445,2.6417,0.0,0.0,0.0,0.0,0.0,0.0,0.0,0.0,0.0,0.0,0.0,0.0,0.0,0.0,0.0,0.0,0.0,0.0,0.0,0.0,0.0,0.0,0.0,0.0,0.0,0.0,0.0,0.0,0.0,0.0,0.0,0.0,0.0,0.0,0.0,0.0,0.0,0.0,1.5166,1.5118,0.0,0.0,0.0,0.0,0.0,0.0,0.0,0.0,1.6263,0.0,0.0,0.0,0.0,0.0,0.0,0.0,0.0,0.0,0.0,0.0,0.0,0.0,0.0,0.0,0.0,0.0,0.0,0.0,0.0,0.0,0.0,0.0,0.0,0.0,0.0,0.0,0.0,0.0,0.0,0.0,0.0,0.0,0.0,0.0,0.0,0.0,0.0,0.0,0.0,0.0,0.0,0.0,0.0,0.0,0.0,0.0,0.0,0.0,0.0,0.0,0.0,0.0,0.0,0.0,0.0,2.9302,2.9683,3.0649,3.2195,3.2472,3.2239,3.1345,3.0369,2.8841,2.672,0.0,0.0,0.0,0.0,0.0,0.0,0.0,0.0,0.0,0.0,0.0,0.0,0.0,0.0,0.0,0.0,0.0,0.0,0.0,0.0,0.0,0.0,0.0,0.0,0.0,0.0,0.0,0.0,0.0,0.0,0.0,0.0,0.0,0.0,0.0,0.0,0.0,0.0,0.0,1.5333,1.5163,0.0,0.0,0.0,0.0,0.0,0.0,0.0,0.0,1.6077,0.0,0.0,0.0,0.0,0.0,0.0,0.0,0.0,0.0,0.0,0.0,0.0,0.0,0.0,0.0,0.0,0.0,0.0,0.0,0.0,0.0,0.0,0.0,0.0,0.0,0.0,0.0,0.0,0.0,0.0,0.0,0.0,0.0,0.0,0.0,0.0,0.0,0.0,0.0,0.0,0.0,0.0,0.0,0.0,0.0,0.0,0.0,0.0,0.0,0.0,0.0,0.0,0.0,0.0,0.0,2.9237,3.0142,3.1135,3.2248,3.2397,3.218,3.1661,3.0182,2.8644,0.0,0.0,0.0,0.0,0.0,0.0,0.0,0.0,0.0,0.0,0.0,0.0,0.0,0.0,0.0,0.0,0.0,0.0,0.0,0.0,0.0,0.0,0.0,0.0,0.0,0.0,0.0,0.0,0.0,0.0,0.0,0.0,0.0,0.0,0.0,0.0,0.0,0.0,0.0,0.0,1.6133,1.6149,1.7009,0.0,0.0,0.0,0.0,0.0,0.0,1.685,1.6568,0.0,0.0,0.0,0.0,0.0,0.0,0.0,0.0,0.0,0.0,0.0,0.0,0.0,0.0,0.0,0.0,0.0,0.0,0.0,0.0,0.0,0.0,0.0,0.0,0.0,0.0,0.0,0.0,0.0,0.0,0.0,0.0,0.0,0.0,0.0,0.0,0.0,0.0,0.0,0.0,0.0,0.0,0.0,0.0,0.0,0.0,0.0,0.0,0.0,0.0,0.0,0.0,0.0,0.0,0.0,2.9165,3.0407,3.1456,3.2297,3.2246,3.2119,3.2024,3.0043,2.8464,0.0,0.0,0.0,0.0,0.0,0.0,0.0,0.0,0.0,0.0,0.0,0.0,0.0,0.0,0.0,0.0,0.0,0.0,0.0,0.0,0.0,0.0,0.0,0.0,0.0,0.0,0.0,0.0,0.0,0.0,0.0,0.0,0.0,0.0,0.0,0.0,0.0,0.0,0.0,0.0,0.0,1.7296,1.8129,1.7569,0.0,0.0,0.0,0.0,1.6935,1.7279,0.0,0.0,0.0,0.0,0.0,0.0,0.0,0.0,0.0,0.0,0.0,0.0,0.0,0.0,0.0,0.0,0.0,0.0,0.0,0.0,0.0,0.0,0.0,0.0,0.0,0.0,0.0,0.0,0.0,0.0,0.0,0.0,0.0,0.0,0.0,0.0,0.0,0.0,0.0,0.0,0.0,0.0,0.0,0.0,0.0,0.0,0.0,0.0,0.0,0.0,0.0,0.0,0.0,0.0,0.0,0.0,2.9479,3.0134,3.1314,3.292,3.2812,3.2597,3.2367,3.0458,2.8766,0.0,0.0,0.0,0.0,0.0,0.0,0.0,0.0,0.0,0.0,0.0,0.0,0.0,0.0,0.0,0.0,0.0,0.0,0.0,0.0,0.0,0.0,0.0,0.0,0.0,0.0,0.0,0.0,0.0,0.0,0.0,0.0,0.0,0.0,0.0,0.0,0.0,0.0,0.0,0.0,0.0,1.7784,1.8374,1.79,1.7364,0.0,0.0,1.7564,1.7372,1.8233,0.0,0.0,0.0,0.0,0.0,0.0,0.0,0.0,0.0,0.0,0.0,0.0,0.0,0.0,0.0,0.0,0.0,0.0,0.0,0.0,0.0,0.0,0.0,0.0,0.0,0.0,0.0,0.0,0.0,0.0,0.0,0.0,0.0,0.0,0.0,0.0,0.0,0.0,0.0,0.0,0.0,0.0,0.0,0.0,0.0,0.0,0.0,0.0,0.0,0.0,0.0,0.0,0.0,0.0,0.0,2.7981,2.9343,3.0239,3.1401,3.2908,3.2737,3.2529,3.2372,3.0303,2.8618,0.0,0.0,0.0,0.0,0.0,0.0,0.0,0.0,0.0,0.0,0.0,0.0,0.0,0.0,0.0,0.0,0.0,0.0,0.0,0.0,0.0,0.0,0.0,0.0,0.0,0.0,0.0,0.0,0.0,0.0,0.0,0.0,0.0,0.0,0.0,0.0,0.0,0.0,0.0,0.0,0.0,0.0,1.8411,1.8452,0.0,0.0,0.0,1.8447,1.7673,0.0,0.0,0.0,0.0,0.0,0.0,0.0,0.0,0.0,0.0,0.0,0.0,0.0,0.0,0.0,0.0,0.0,0.0,0.0,0.0,0.0,0.0,0.0,0.0,0.0,0.0,0.0,0.0,0.0,0.0,0.0,0.0,0.0,0.0,0.0,0.0,0.0,0.0,0.0,0.0,0.0,0.0,0.0,0.0,0.0,0.0,0.0,0.0,0.0,0.0,0.0,0.0,0.0,0.0,0.0,0.0,0.0,2.911,3.0418,3.1684,3.29,3.2704,3.2547,3.2556,3.0613,0.0,0.0,0.0,0.0,0.0,0.0,0.0,0.0,0.0,0.0,0.0,0.0,0.0,0.0,0.0,0.0,0.0,0.0,0.0,0.0,0.0,0.0,0.0,0.0,0.0,0.0,0.0,1.7505,0.0,0.0,0.0,0.0,0.0,0.0,0.0,0.0,0.0,0.0,0.0,0.0,0.0,0.0,1.91,1.871,1.911,1.938,0.0,0.0,1.9047,1.8334,1.9241,1.947,0.0,0.0,0.0,0.0,0.0,0.0,0.0,0.0,0.0,0.0,0.0,0.0,0.0,0.0,0.0,0.0,0.0,0.0,0.0,0.0,0.0,0.0,0.0,0.0,0.0,0.0,0.0,0.0,0.0,0.0,0.0,0.0,0.0,0.0,0.0,0.0,0.0,0.0,0.0,0.0,0.0,0.0,0.0,0.0,0.0,0.0,0.0,0.0,0.0,0.0,0.0,0.0,0.0,0.0,0.0,2.8942,3.071,3.2224,3.3409,3.3187,3.3081,3.3059,3.1933,3.0052,0.0,0.0,0.0,0.0,0.0,0.0,0.0,0.0,0.0,0.0,0.0,0.0,0.0,0.0,0.0,0.0,0.0,0.0,0.0,0.0,0.0,0.0,0.0,0.0,0.0,0.0,0.0,0.0,0.0,0.0,0.0,0.0,0.0,0.0,0.0,0.0,0.0,0.0,0.0,0.0,0.0,2.0192,1.9465,1.9849,2.0323,0.0,1.9669,1.9176,1.9608,2.0423,2.0279,1.8267,0.0,0.0,0.0,0.0,0.0,0.0,0.0,0.0,0.0,0.0,0.0,0.0,0.0,0.0,0.0,0.0,0.0,0.0,0.0,0.0,0.0,0.0,0.0,0.0,0.0,0.0,0.0,0.0,0.0,0.0,0.0,0.0,0.0,0.0,0.0,0.0,0.0,0.0,0.0,0.0,0.0,0.0,0.0,0.0,0.0,0.0,0.0,0.0,0.0,0.0,0.0,0.0,0.0,2.8617,2.866,3.0661,3.2218,3.3219,3.3124,3.3124,3.3124,3.2161,3.0484,0.0,0.0,0.0,0.0,0.0,0.0,0.0,0.0,0.0,0.0,0.0,0.0,0.0,0.0,0.0,0.0,0.0,0.0,0.0,0.0,0.0,0.0,0.0,0.0,0.0,0.0,0.0,0.0,1.9489,1.9352,1.8627,0.0,0.0,0.0,0.0,0.0,0.0,0.0,0.0,0.0,0.0,2.049,2.0634,2.091,0.0,0.0,2.066,2.0187,1.9654,1.9952,1.9598,1.7776,1.7176,0.0,0.0,0.0,0.0,0.0,0.0,0.0,0.0,0.0,0.0,0.0,0.0,0.0,0.0,0.0,0.0,0.0,0.0,0.0,0.0,0.0,0.0,0.0,0.0,0.0,0.0,0.0,0.0,0.0,0.0,0.0,0.0,0.0,0.0,0.0,0.0,0.0,0.0,0.0,0.0,0.0,0.0,0.0,0.0,0.0,0.0,0.0,0.0,0.0,0.0,0.0,0.0,2.8568,2.853,3.0836,3.2376,3.3103,3.3256,3.3343,3.3321,3.2568,3.1128,0.0,0.0,0.0,0.0,0.0,0.0,0.0,0.0,0.0,0.0,0.0,0.0,0.0,0.0,0.0,0.0,0.0,0.0,0.0,0.0,0.0,0.0,0.0,0.0,0.0,0.0,0.0,0.0,2.0017,1.9716,1.8674,0.0,0.0,0.0,0.0,0.0,0.0,0.0,0.0,0.0,0.0,2.1156,2.1109,2.1379,2.1374,2.0902,2.0585,2.0175,1.9579,1.9451,1.9013,1.7941,0.0,0.0,0.0,0.0,0.0,0.0,0.0,0.0,0.0,0.0,0.0,0.0,0.0,0.0,0.0,0.0,0.0,0.0,0.0,0.0,0.0,0.0,0.0,0.0,0.0,0.0,0.0,1.4856,0.0,0.0,1.5688,0.0,0.0,0.0,0.0,0.0,0.0,0.0,0.0,0.0,0.0,0.0,0.0,0.0,0.0,0.0,0.0,0.0,0.0,0.0,0.0,0.0,0.0,2.8743,2.8553,3.1292,3.2884,3.3103,3.353,3.377,3.377,3.3343,3.2178,3.0204,0.0,0.0,0.0,0.0,0.0,0.0,0.0,0.0,0.0,0.0,0.0,0.0,0.0,0.0,0.0,0.0,0.0,0.0,0.0,0.0,0.0,0.0,0.0,0.0,0.0,0.0,1.8009,1.869,1.9134,0.0,0.0,0.0,0.0,0.0,0.0,0.0,0.0,0.0,0.0,2.1543,2.2266,2.0657,2.0881,2.0964,2.0213,1.9173,1.8701,1.9565,1.9184,1.884,0.0,0.0,0.0,0.0,0.0,0.0,0.0,0.0,0.0,0.0,0.0,0.0,0.0,0.0,0.0,0.0,0.0,0.0,0.0,0.0,0.0,0.0,0.0,0.0,0.0,0.0,0.0,1.8329,1.8037,0.0,0.0,0.0,0.0,0.0,0.0,0.0,0.0,0.0,0.0,0.0,2.275,2.335,0.0,0.0,0.0,0.0,0.0,0.0,0.0,0.0,0.0,0.0,0.0,0.0,2.8551,2.8449,3.1238,3.2906,3.3124,3.3551,3.3814,3.3792,3.3639,3.2575,3.0527,0.0,0.0,0.0,0.0,0.0,0.0,0.0,0.0,0.0,0.0,0.0,0.0,0.0,0.0,0.0,0.0,0.0,0.0,0.0,0.0,0.0,0.0,0.0,0.0,0.0,2.0413,0.0,0.0,0.0,0.0,0.0,0.0,0.0,0.0,0.0,0.0,0.0,2.0757,2.1221,2.1272,2.1275,2.1246,2.1094,2.1091,0.0,0.0,0.0,0.0,0.0,0.0,0.0,0.0,0.0,0.0,0.0,0.0,0.0,0.0,1.6754,1.5851,1.5927,1.5934,1.5443,0.0,0.0,0.0,0.0,0.0,0.0,0.0,0.0,0.0,0.0,0.0,0.0,0.0,0.0,1.9907,0.0,1.9959,0.0,0.0,0.0,0.0,0.0,0.0,0.0,0.0,2.3074,2.4074,2.4483,2.5016,2.5346,0.0,2.5517,2.5024,0.0,0.0,0.0,0.0,0.0,0.0,0.0,0.0,2.8536,2.8835,3.1473,3.3043,3.3365,3.3814,3.4054,3.4054,3.3989,3.3077,3.1269,2.9915,2.8551,0.0,0.0,0.0,0.0,0.0,0.0,0.0,0.0,0.0,0.0,0.0,0.0,0.0,0.0,0.0,0.0,0.0,0.0,0.0,0.0,0.0,0.0,0.0,2.134,0.0,0.0,0.0,0.0,0.0,0.0,0.0,0.0,0.0,2.0424,2.1111,2.1771,2.2132,2.1841,2.1462,2.1112,0.0,0.0,0.0,0.0,0.0,0.0,0.0,1.7807,1.7343,1.7337,1.7548,1.8064,1.8422,1.8472,1.8052,0.0,0.0,1.6542,1.6501,1.6484,1.5832,1.5848,1.5851,1.5287,1.518,1.507,0.0,0.0,0.0,0.0,0.0,0.0,0.0,0.0,2.0867,2.0455,0.0,2.0584,0.0,0.0,0.0,0.0,2.0376,2.132,0.0,0.0,2.5585,2.6237,2.5444,2.5937,2.6091,2.5883,2.5745,2.5671,2.5648,2.5517,0.0,0.0,0.0,0.0,0.0,0.0,2.8722,2.9713,3.1964,3.3289,3.377,3.4272,3.4457,3.4513,3.4307,3.367,3.2504,3.1173,3.0161,2.9607,2.7048,0.0,0.0,0.0,0.0,0.0,0.0,0.0,0.0,0.0,0.0,0.0,0.0,0.0,0.0,0.0,0.0,0.0,0.0,0.0,0.0,2.1497,0.0,0.0,0.0,0.0,0.0,0.0,0.0,0.0,0.0,0.0,2.1111,2.2037,2.2769,2.2466,0.0,0.0,0.0,0.0,2.0777,1.8675,1.8025,1.7885,1.7965,1.8125,1.8569,1.9473,0.0,0.0,1.9661,1.9076,1.8635,1.8142,1.8548,1.8683,1.7784,1.7349,1.6972,1.6377,1.6302,1.5959,1.5241,1.5145,1.5013,2.1982,0.0,0.0,0.0,0.0,2.1915,2.2571,2.3627,2.3627,2.3435,2.3157,2.346,0.0,0.0,0.0,0.0,0.0,0.0,2.3739,2.4767,2.6178,2.6815,2.6804,2.7329,2.7664,2.782,2.774,2.7887,2.8263,2.8244,2.7309,2.5546,0.0,0.0,0.0,0.0,2.8947,2.9831,3.1987,3.3311,3.3792,3.4272,3.4479,3.4457,3.4329,3.4114,3.3958,3.3107,3.2121,3.1013,2.9503,0.0,0.0,0.0,0.0,0.0,0.0,0.0,0.0,0.0,0.0,0.0,0.0,0.0,0.0,0.0,0.0,0.0,0.0,0.0,2.2202,2.3227,2.3141,0.0,0.0,0.0,0.0,0.0,0.0,0.0,0.0,0.0,2.2854,2.24,2.2039,0.0,0.0,2.0249,1.9542,2.0027,2.0401,2.0219,2.015,0.0,2.0347,1.9853,1.9499,1.9476,2.0076,2.0345,1.9781,2.0154,2.0396,1.9714,1.9576,1.932,1.8798,1.826,1.7827,1.7435,1.7271,1.7046,1.6509,1.655,1.6441,2.4338,2.4385,2.3049,2.2727,2.3139,2.3387,2.4201,2.5353,2.5427,2.5269,2.4937,2.5327,2.4446,2.2702,2.2917,0.0,0.0,0.0,2.5059,2.6286,2.686,2.7362,2.7893,2.8103,2.8445,2.8748,2.8664,2.8808,2.911,2.911,2.8472,2.7231,0.0,0.0,2.702,2.8209,2.9453,3.0705,3.2287,3.3399,3.4076,3.4382,3.4479,3.4513,3.4505,3.4536,3.4585,3.4163,3.3508,3.2717,3.1646,3.0477,0.0,0.0,0.0,0.0,0.0,0.0,0.0,0.0,0.0,0.0,0.0,2.3562,2.2757,0.0,0.0,0.0,2.4104,2.3783,2.3701,2.4122,0.0,0.0,0.0,0.0,0.0,0.0,0.0,2.2243,2.3474,2.4272,2.3894,2.325,2.2738,2.2498,2.1788,2.1079,2.0637,0.0,2.1432,2.1566,2.1256,2.1008,2.1189,2.0788,2.043,2.0436,2.0856,2.1021,2.0314,2.0757,2.0885,2.014,1.9801,1.9593,1.9096,1.8727,1.8248,1.7724,1.7457,1.7184,1.6749,1.6691,1.6619,2.6709,2.6596,2.3751,2.2966,2.3595,2.4271,2.5225,2.6303,2.6486,2.6186,2.5626,2.6296,2.527,2.3121,2.3359,0.0,2.5061,2.5335,2.6297,2.7771,2.7576,2.7877,2.8615,2.8454,2.8607,2.9028,2.8856,2.8815,2.8907,2.8907,2.9028,2.9285,2.8553,2.8302,2.8494,2.8945,3.0201,3.2053,3.277,3.3606,3.4435,3.4479,3.4534,3.4578,3.4835,3.4891,3.4719,3.4471,3.4364,3.4421,3.3476,3.2528,3.1833,0.0,0.0,0.0,0.0,0.0,0.0,0.0,0.0,0.0,0.0,0.0,0.0,0.0,0.0,0.0,2.5434,0.0,2.5798,2.4661,0.0,0.0,0.0,2.4013,2.5321,2.5237,2.5076,2.5075,0.0,0.0,2.4474,2.4466,2.4525,2.4709,2.4493,2.3896,2.2647,2.2977,2.3276,2.2497,2.1762,2.1123,2.1152,2.1176,2.1331,2.1719,2.1968,2.1643,2.0993,2.0822,2.05,1.9669,1.9586,1.9496,1.8956,1.8631,1.8349,1.7485,1.7064,1.6768,1.6425,1.6112,1.5934,2.6367,2.66,2.5861,2.5913,2.6502,2.6661,2.6894,2.7212,2.7249,2.7175,2.7015,2.72,2.6917,2.6353,2.6285,2.6517,2.7021,2.6928,2.7426,2.8356,2.8339,2.8503,2.8901,2.8881,2.9031,2.9385,2.9341,2.9711,3.04,3.0262,3.0467,3.1109,3.0701,3.0242,2.9801,3.022,3.1189,3.2613,3.3157,3.3768,3.4491,3.4479,3.4687,3.5037,3.5011,3.5146,3.5424,3.4821,3.4629,3.4888,3.3931,3.3421,3.3442,3.2589,0.0,0.0,0.0,0.0,0.0,0.0,0.0,0.0,0.0,2.4926,2.3548,0.0,2.5253,0.0,2.7034,2.7912,2.7854,2.7302,0.0,0.0,2.5457,2.5413,2.5443,2.6462,2.6668,2.5313,2.6069,2.653,2.6062,2.5985,2.6086,2.6368,2.489,2.3411,2.2566,2.3024,2.3247,2.2615,2.2754,2.2753,2.2096,2.1785,2.1618,2.1733,2.1558,2.1261,2.1112,2.0673,2.0201,1.9646,1.9141,1.8758,1.8357,1.7933,1.7511,1.7015,1.7048,1.7125,1.6658,1.6294,1.5937,2.6815,2.7027,2.7128,2.7439,2.7777,2.748,2.7506,2.7726,2.7839,2.7839,2.7839,2.7631,2.7434,2.7384,2.7416,2.7599,2.7869,2.7909,2.8227,2.8794,2.8794,2.8947,2.9242,2.9242,2.9546,3.017,3.017,3.0491,3.1107,3.0988,3.1256,3.1905,3.1728,3.1645,3.1656,3.1601,3.2141,3.325,3.39,3.457,3.5124,3.5168,3.5299,3.5539,3.547,3.5641,3.5998,3.5579,3.5513,3.5869,3.5328,3.4998,3.4933,3.4289,3.3663,0.0,0.0,0.0,0.0,0.0,0.0,0.0,0.0,0.0,0.0,0.0,2.6585,2.6703,2.8482,2.9298,2.86,2.8193,2.7791,2.7409,2.726,2.7401,2.7716,2.8451,2.8613,2.7626,2.8009,2.8093,2.7605,2.7347,2.7121,2.6854,2.5922,2.4928,2.413,2.4026,2.3873,2.3554,2.3661,2.3408,2.2568,2.2058,2.1772,2.1696,2.1544,2.1315,2.0933,2.0583,2.0128,1.9362,1.8828,1.8341,1.7952,1.7627,1.7199,1.6635,1.6555,1.6567,1.6262,1.5729,1.5305,2.747,2.751,2.7736,2.7962,2.8108,2.7551,2.7597,2.8072,2.8226,2.8327,2.8303,2.7813,2.7542,2.7416,2.7719,2.7965,2.8201,2.8533,2.8799,2.9051,2.9074,2.9265,2.9596,2.9642,3.017,3.0996,3.1042,3.1175,3.1391,3.1295,3.1569,3.2126,3.2163,3.2597,3.3511,3.3056,3.3168,3.3934,3.4753,3.5452,3.6012,3.5947,3.5991,3.6042,3.5998,3.6114,3.6391,3.6404,3.6476,3.6764,3.6742,3.6563,3.6218,3.5993,3.5527,0.0,3.4109,0.0,0.0,0.0,0.0,0.0,0.0,0.0,0.0,2.8169,2.8077,2.8523,2.9709,3.0078,2.9154,2.861,2.8761,2.9757,2.9421,2.9578,3.0565,3.0513,3.0298,3.0316,2.9732,2.9195,2.8749,2.8451,2.7835,2.682,2.6794,2.6589,2.5953,2.5174,2.4782,2.4913,2.4136,2.3162,2.2372,2.1923,2.1702,2.1702,2.1524,2.1335,2.0611,2.0341,1.9891,1.8888,1.8408,1.8068,1.7674,1.7331,1.6854,1.6098,1.5769,1.5517,1.5288,1.4827,1.4342,2.7371,2.751,2.7574,2.7736,2.7938,2.7829,2.7981,2.8394,2.8433,2.8473,2.8473,2.8376,2.8288,2.8297,2.8562,2.8644,2.8516,2.8799,2.9097,2.9387,2.9387,2.9663,3.0101,3.0514,3.0836,3.1042,3.1173,3.1485,3.1961,3.152,3.1884,3.2945,3.2928,3.3285,3.4041,0.0,0.0,0.0,3.5041,3.5452,3.5932,3.5561,3.5736,3.65,3.6173,0.0,3.664,3.629,3.6187,3.6476,3.6476,0.0,0.0,0.0,0.0,0.0,0.0,0.0,0.0,0.0,0.0,0.0,3.0726,3.0491,3.0035,2.93,2.9363,3.0709,3.0465,3.0622,3.1328,3.1438,3.1241,3.1015,3.1172,3.1174,3.096,3.0586,3.0258,2.9987,2.9567,2.9153,2.878,2.8644,2.8215,2.7276,2.6701,2.6192,2.5656,2.5451,2.5139,2.4495,2.3433,2.2442,2.1557,2.1357,2.1302,2.1257,2.0711,2.0409,2.043,1.9789,1.9174,1.8455,1.7899,1.7456,1.6966,1.627,1.5793,1.5546,1.4645,1.3962,1.431,1.3988,1.3521,2.741,2.7741,2.7741,2.8027,0.0,2.8467,2.8633,2.8922,2.88,2.8865,2.9087,2.8964,2.8922,2.8946,2.8934,2.9024,2.9196,2.9236,2.9454,2.9848,2.9848,3.0124,3.0629,3.0882,3.1178,3.1563,3.1647,3.1837,3.2062,3.2079,3.2413,3.3121,3.3501,3.3988,3.4714,3.5509,3.5881,3.5755,3.5881,3.6173,3.6631,3.6413,3.6522,3.7003,3.7046,0.0,0.0,0.0,0.0,0.0,0.0,0.0,0.0,3.7022,0.0,3.6614,3.6295,3.5748,3.5002,3.4571,3.4195,3.3875,3.4001,3.3314,3.1458,3.1666,3.2246,3.2875,3.2609,3.2614,3.3068,3.2848,3.2448,3.2032,3.1906,3.1684,3.109,3.0805,3.0582,3.0143,2.9623,2.9218,2.8963,2.8404,2.7807,2.7162,2.6447,2.5872,2.5474,2.5047,2.4624,2.3925,2.3134,2.2258,2.1625,2.1148,2.091,2.083,2.0352,1.9953,1.9873,1.9333,1.8675,1.8188,1.7538,1.6944,1.6451,1.5793,1.5298,1.4803,1.4066,1.3231,1.2893,1.2567,1.2401,2.758,2.8142,2.8123,2.8418,2.8958,2.8981,2.9157,2.9441,0.0,0.0,0.0,2.9475,2.939,2.9413,2.9203,2.9372,2.9767,2.9662,2.9894,3.0354,3.0354,3.0652,3.1134,3.1202,3.1517,3.2075,3.218,3.2174,3.217,3.2627,3.3008,3.3256,3.3866,3.4571,3.5435,3.6297,3.6741,3.6806,3.6741,3.6915,3.7352,3.7287,3.7352,3.7505,3.7898,3.7942,3.7658,3.8029,3.8051,3.7658,3.7636,3.7636,3.7614,3.7506,3.7427,3.7405,3.7023,3.6758,3.6619,3.5801,3.5833,3.6838,3.675,3.5664,3.3067,3.4187,3.4805,3.4547,3.4577,3.4425,3.4049,3.3462,3.2966,3.2631,3.2232,3.1731,3.1202,3.0973,3.0704,3.0332,2.9729,2.9293,2.8885,2.8119,2.719,2.6627,2.6071,2.5544,2.497,2.444,2.4,2.3344,2.2795,2.2292,2.175,2.1092,2.0627,2.0505,2.011,1.9723,1.9316,1.8837,1.8428,1.7819,1.71,1.6468,1.6006,1.5526,1.5021,1.4304,1.3645,1.2894,1.1807,1.1221,1.0959,2.795,2.863,2.8602,2.8632,2.8743,2.8743,2.9127,2.9715,2.9441,2.9404,2.9432,2.939,2.939,2.9413,2.9596,2.9697,2.979,3.0007,3.0399,3.0882,3.0905,3.118,3.1662,3.1857,3.201,3.2116,3.2527,3.2716,3.2723,3.2955,3.3256,3.3693,3.402,3.488,3.6126,3.6531,3.6894,3.7265,3.6894,3.6915,3.7352,3.7003,3.7199,3.7964,3.8073,3.8292,3.8557,3.8685,3.8707,3.8641,3.8641,3.8619,3.8619,3.8532,3.8532,3.8572,3.838,3.8016,3.7465,3.7501,3.7326,3.6854,3.655,3.617,3.5779,3.5344,3.5007,3.4694,3.4464,3.4002,3.334,3.3188,3.2984,3.2575,3.2034,3.158,3.142,3.0909,3.0316,2.9961,2.9792,2.9208,2.8312,2.7777,2.7171,2.6216,2.5466,2.479,2.3915,2.3756,2.3504,2.2831,2.2303,2.168,2.1065,2.0719,2.0415,2.013,1.9753,1.9293,1.8894,1.8393,1.7891,1.7035,1.6575,1.6038,1.5743,1.5013,1.4554,1.4309,1.3487,1.2472,1.1692,1.0415,0.9261,2.848,2.9106,2.9134,2.9274,2.9527,2.9527,2.9686,2.9983,2.9908,2.9904,3.0036,2.9904,2.9815,2.9839,2.9958,3.0006,3.0029,3.0445,3.079,3.1019,3.1295,3.1685,3.2144,3.2082,3.2293,3.2662,3.2752,3.2922,3.3188,3.3546,3.3898,3.4326,3.5002,3.583,3.6736,3.7006,3.7178,3.7374,3.7178,3.7287,3.7745,3.7571,3.7789,3.8488,3.875,3.8859,3.8775,3.9078,3.91,3.8797,3.8753,3.8753,3.8753,3.8753,3.8712,3.8501,3.8494,3.8198,3.7718,3.7657,3.7443,3.6897,3.6598,3.6343,3.6163,3.5593,3.5223,3.5123,3.4623,3.4082,3.3521,3.3363,3.2921,3.214,3.1928,3.1653,3.1059,3.06,3.0224,2.9739,2.912,2.8461,2.7879,2.7164,2.6479,2.5518,2.4723,2.3748,2.297,2.2648,2.2395,2.2245,2.1842,2.1421,2.0855,2.0313,2.0035,1.997,1.9327,1.8921,1.8588,1.8079,1.7486,1.7077,1.6408,1.5853,1.544,1.4846,1.4458,1.3974,1.3238,1.2294,1.109,0.8839,0.6828,2.8942,2.9665,2.9665,2.9871,3.0216,3.0216,3.0216,3.0216,3.0216,3.0306,3.0487,3.0306,3.0216,3.0216,3.0216,3.0285,3.0445,3.0813,3.1134,3.1387,3.1754,3.2239,3.2627,3.245,3.2655,3.316,3.3093,3.3223,3.3675,3.4139,3.4667,3.5186,3.6159,3.683,3.7207,3.7506,3.767,3.7549,3.7658,3.7833,3.8095,3.8204,3.851,3.8991,3.934,3.9427,3.9187,3.9515,3.9537,3.9187,3.9165,3.9165,3.9165,3.9038,3.889,3.8635,3.8572,3.8317,3.791,3.7621,3.7344,3.6983,3.6682,3.6377,3.6181,3.5655,3.5354,3.531,3.4759,3.426,3.3915,3.3549,3.2897,3.1976,3.1858,3.1521,3.0535,3.0309,3.0068,2.9484,2.8565,2.7889,2.7291,2.6351,2.5256,2.4326,2.352,2.2717,2.2234,2.1508,2.1265,2.1184,2.1103,2.0761,2.0447,1.9881,1.9381,1.9351,1.8596,1.8091,1.7695,1.7146,1.6645,1.6281,1.5608,1.4864,1.4565,1.4064,1.3568,1.3089,1.2328,1.127,0.9357,0.6718,0.4527,2.9308,3.0079,3.0124,3.017,3.0216,3.0216,3.0216,3.0216,3.0216,3.0216,3.0261,3.0216,3.0239,3.0216,3.0239,3.0491,3.0905,3.0996,3.1502,3.2259,3.2397,3.2695,3.3155,3.3142,3.3135,3.3272,3.3511,3.3822,3.4161,3.4725,3.5469,3.6409,3.7151,3.7493,3.7591,3.8198,3.8358,3.8051,3.8466,3.851,3.816,3.8532,3.8991,3.9471,3.9601,3.9819,4.0061,4.0192,4.0192,4.0148,4.0126,4.0126,4.0126,3.9801,3.9627,3.954,3.9279,3.8819,3.82,3.7801,3.7489,3.7171,3.6819,3.6599,3.6579,3.5982,3.5407,3.5112,3.4648,3.4353,3.4288,3.3658,3.3026,3.2321,3.1856,3.1244,3.0463,3.0285,2.9747,2.8618,2.8347,2.7798,2.6608,2.5371,2.3952,2.2625,2.2187,2.161,2.1011,2.0607,2.0211,1.9805,1.9805,1.9733,1.9139,1.8875,1.8348,1.7495,1.7187,1.6666,1.601,1.5453,1.5027,1.4386,1.3422,1.2952,1.2699,1.2132,1.1636,1.1423,1.0661,0.9353,0.6777,0.4431,0.3079,2.9738,3.0216,3.0216,3.0216,3.0216,3.0216,3.0216,3.0216,3.0216,3.0216,3.0262,3.0537,3.0514,3.0239,3.0537,3.0813,3.1065,3.1616,3.2076,3.2512,3.281,3.3086,3.3269,3.3234,3.3339,3.3578,3.3754,3.4185,3.4967,3.5768,3.6623,3.7428,3.7788,3.7952,3.8089,3.8398,3.8547,3.8385,3.8985,3.9143,3.9075,3.9165,3.9493,3.9994,3.9995,4.0061,4.0257,4.0344,4.0344,4.0301,4.0563,4.0519,3.9975,4.0081,3.9967,3.959,3.9441,3.9182,3.8705,3.8275,3.7806,3.7221,3.6891,3.6476,3.6062,3.5529,3.5189,3.5028,3.463,3.4127,3.3474,3.3054,3.2526,3.1752,3.1251,3.0857,3.0348,2.9732,2.916,2.8725,2.7798,2.6847,2.5607,2.3961,2.2531,2.1584,2.1037,2.0344,1.9906,1.9388,1.8981,1.8582,1.8328,1.8147,1.7982,1.7861,1.7276,1.6566,1.6124,1.557,1.4657,1.391,1.3416,1.2724,1.1779,1.1134,1.1076,1.0563,1.0057,0.9566,0.8319,0.671,0.4478,0.25,0.1155,3.0011,3.017,3.0216,3.0216,3.0306,3.0216,3.0261,3.0306,3.0216,3.0285,3.0468,3.0859,3.0882,3.0813,3.1089,3.1272,3.1502,3.2167,3.2581,3.2741,3.3109,3.3338,3.3476,3.3513,3.3782,3.4207,3.4225,3.4791,3.5758,3.6893,3.7725,3.8215,3.8475,3.8676,3.8785,3.9065,3.9192,3.9095,3.9594,3.9862,3.9797,3.9819,3.9994,4.0301,4.0344,4.0345,4.0476,4.0476,4.0541,4.0672,4.0956,4.0778,4.0122,4.0268,4.0036,3.938,3.933,3.9122,3.8705,3.8406,3.7957,3.73,3.6822,3.6308,3.5827,3.5284,3.4902,3.4658,3.4406,3.3825,3.3128,3.2759,3.2167,3.1173,3.1006,3.0694,2.9946,2.9234,2.873,2.8182,2.6847,2.5514,2.4185,2.2658,2.1441,2.0609,1.9853,1.9173,1.8865,1.8255,1.7846,1.7519,1.678,1.6575,1.695,1.6618,1.6057,1.5155,1.4514,1.3841,1.3041,1.2025,1.1165,1.0096,0.9637,0.8899,0.8144,0.7821,0.7417,0.6707,0.5546,0.3938,0.2149,0.0448,-0.0896,3.0011,3.0216,3.0216,3.0352,3.0578,3.0352,3.0352,3.0578,3.0306,3.0491,3.0905,3.1019,3.139,3.1971,3.1874,3.2032,3.2351,3.2515,3.2814,3.3178,3.3269,3.3522,3.3958,3.4165,3.4537,3.4947,3.5106,3.5645,3.6533,3.7828,3.8527,3.8642,3.9469,3.9794,3.9674,4.0406,4.0612,4.0085,4.0423,4.0538,4.0323,4.0236,4.0257,4.0345,4.0366,4.052,4.0913,4.0978,4.1175,4.1612,4.1296,4.1093,4.0936,4.0414,3.9771,3.915,3.9073,3.8726,3.8067,3.7927,3.7712,3.733,3.6686,3.6181,3.5999,3.5294,3.4641,3.3995,3.3833,3.3665,3.3439,3.2785,3.2152,3.1421,3.1315,3.0562,2.9168,2.8934,2.8104,2.6925,2.574,2.4228,2.2003,2.1562,2.0672,1.9476,1.8774,1.8374,1.77,1.7445,1.6944,1.6205,1.5711,1.5471,1.5396,1.5097,1.4159,1.3146,1.2276,1.1453,1.0169,0.9016,0.8235,0.7302,0.6385,0.5536,0.4765,0.4172,0.3662,0.2955,0.2148,0.0717,-0.0179,-0.1703,-0.278,3.0216,3.0442,3.0442,3.0623,3.0826,3.0736,3.0781,3.0826,3.0578,3.0811,3.1414,3.1646,3.2134,3.291,3.3165,3.3066,3.2804,3.3128,3.3307,3.3365,3.3591,3.3843,3.405,3.4549,3.4872,3.5092,3.5328,3.6004,3.7122,3.8137,3.8918,3.9551,3.9919,4.0143,4.0434,4.0864,4.0828,4.0472,4.064,4.0802,4.0782,4.0738,4.0869,4.1153,4.0891,4.0978,4.1437,4.1437,4.1524,4.1677,4.1643,4.1345,4.0767,4.0153,3.9672,3.9432,3.9445,3.9251,3.8771,3.8485,3.8039,3.7448,3.6662,3.6017,3.5718,3.4857,3.4105,3.3727,3.3044,3.2588,3.2299,3.1993,3.1609,3.1087,3.0469,2.9912,2.9056,2.8417,2.7633,2.6465,2.5037,2.3199,2.1724,2.0733,1.9871,1.8812,1.7872,1.7056,1.6559,1.604,1.5538,1.4878,1.4135,1.339,1.2388,1.2893,1.2586,1.1277,1.0299,0.9212,0.8077,0.6744,0.5895,0.5202,0.4018,0.2994,0.2478,0.1425,0.0717,0.009,-0.0806,-0.1523,-0.2332,-0.3497,-0.4303,3.0487,3.0713,3.0713,3.0871,3.1074,3.1029,3.1005,3.1074,3.099,3.1341,3.1949,3.2323,3.2934,3.3596,3.4046,3.3876,3.335,3.3578,3.3592,3.3388,3.3775,3.4096,3.4372,3.4939,3.5314,3.5571,3.5976,3.6748,3.7736,3.8457,3.9239,4.0057,4.0264,4.0548,4.1014,4.1331,4.1307,4.1058,4.1077,4.1197,4.1177,4.122,4.1437,4.1808,4.1634,4.159,4.1918,4.1918,4.1937,4.1975,4.1934,4.1492,4.0612,4.0121,3.9719,3.9546,3.9481,3.9301,3.8885,3.8574,3.799,3.7107,3.6442,3.5754,3.5082,3.4163,3.35,3.2968,3.2375,3.1609,3.0917,3.0686,3.0531,3.0314,2.9756,2.9042,2.8495,2.7726,2.6702,2.5368,2.4085,2.2567,2.1146,2.017,1.9265,1.8283,1.6899,1.6071,1.5412,1.4878,1.4217,1.3556,1.2644,1.1724,1.0637,1.0476,1.0143,0.8993,0.8458,0.7348,0.6084,0.4825,0.3748,0.3025,0.2098,0.1058,0.0,-0.1074,-0.1793,-0.2332,-0.3049,-0.3676,-0.4393,-0.5109,-0.5739,3.0781,3.0984,3.0984,3.1139,3.1273,3.1139,3.1163,3.1392,3.1569,3.1994,3.2606,3.3053,3.3597,3.4265,3.436,3.4286,3.4017,3.3843,3.3665,3.3457,3.3894,3.44,3.4883,3.5389,3.5818,3.63,3.7265,3.7999,3.8527,3.901,3.9538,4.0089,4.0548,4.1007,4.1581,4.1954,4.2079,4.1787,4.1784,4.177,4.1573,4.166,4.1939,4.2354,4.2398,4.2398,4.242,4.242,4.2479,4.25,4.2165,4.1431,4.0494,4.0249,3.993,3.9333,3.9156,3.8812,3.8155,3.8009,3.7329,3.6516,3.5829,3.5082,3.418,3.35,3.274,3.1916,3.1379,3.084,2.9756,2.929,2.9197,2.9368,2.9042,2.8417,2.7712,2.686,2.5594,2.3864,2.2959,2.2052,2.0558,1.9627,1.8669,1.716,1.6139,1.5247,1.4307,1.3887,1.339,1.2312,1.1231,1.0226,0.9142,0.7972,0.7307,0.665,0.6281,0.5625,0.4361,0.3087,0.2069,0.1309,0.0264,-0.0799,-0.1873,-0.287,-0.3676,-0.4305,-0.5022,-0.5559,-0.6097,-0.6544,-0.717,3.1005,3.1184,3.1229,3.1362,3.1584,3.1496,3.1732,3.2091,3.2055,3.2532,3.341,3.3577,3.3982,3.4533,3.4677,3.4531,3.431,3.4211,3.4129,3.4225,3.4741,3.5253,3.563,3.6063,3.6464,3.6884,3.7448,3.8068,3.8596,3.9078,3.9721,4.0479,4.0732,4.1283,4.204,4.2206,4.2125,4.1851,4.1916,4.1992,4.2016,4.2143,4.242,4.2879,4.2944,4.2944,4.2944,4.2944,4.287,4.2651,4.2229,4.1523,4.0525,4.0022,3.9662,3.9248,3.8667,3.8302,3.7936,3.7181,3.6664,3.607,3.5324,3.4574,3.3802,3.2892,3.2146,3.1379,3.0608,2.9756,2.9212,2.8744,2.851,2.8602,2.8026,2.7398,2.6689,2.5514,2.432,2.3371,2.2382,2.1167,1.9753,1.8831,1.7581,1.6056,1.4968,1.3894,1.2975,1.2478,1.1724,1.0482,0.9643,0.8808,0.7638,0.6476,0.5561,0.4992,0.4606,0.4046,0.2852,0.1652,0.0612,-0.0527,-0.1507,-0.2497,-0.3671,-0.4485,-0.5201,-0.5739,-0.6097,-0.6633,-0.7349,-0.7795,-0.8331,3.1229,3.1451,3.1451,3.154,3.1717,3.1717,3.203,3.2491,3.257,3.3097,3.3863,3.4102,3.4366,3.4727,3.4775,3.4628,3.4433,3.4482,3.4714,3.5,3.5352,3.577,3.6197,3.6766,3.7159,3.7501,3.7895,3.8344,3.8849,3.917,3.9813,4.0663,4.0823,4.1329,4.2184,4.2275,4.2212,4.2025,4.2291,4.248,4.2438,4.2696,4.2995,4.3189,4.3184,4.3184,4.3184,4.3184,4.2953,4.237,4.1735,4.0954,4.0166,3.9734,3.9301,3.8739,3.8302,3.7862,3.7347,3.6645,3.5921,3.5474,3.4649,3.3895,3.3348,3.2375,3.1609,3.084,2.9989,2.9056,2.851,2.7883,2.7569,2.7333,2.7083,2.6373,2.5594,2.448,2.344,2.2648,2.1772,2.0546,1.9072,1.7837,1.6517,1.5126,1.3811,1.2567,1.1736,1.107,1.0065,0.9059,0.814,0.7223,0.605,0.5056,0.3974,0.3491,0.309,0.2425,0.1483,0.0352,-0.0708,-0.204,-0.3127,-0.3843,-0.4933,-0.5652,-0.6368,-0.6726,-0.7081,-0.7706,-0.8331,-0.8778,-0.9224,3.1496,3.1717,3.1717,3.1717,3.1717,3.1717,3.203,3.2539,3.302,3.3525,3.4006,3.4486,3.4727,3.4775,3.4775,3.4677,3.4482,3.4628,3.5178,3.5693,3.5872,3.6001,3.6579,3.7084,3.7603,3.8175,3.8378,3.8792,3.9252,3.9285,3.9813,4.0732,4.0869,4.1266,4.2092,4.2275,4.2275,4.2326,4.2889,4.3059,4.275,4.3303,4.3467,4.3254,4.3184,4.3184,4.3184,4.3093,4.2743,4.2018,4.1025,4.0238,3.9714,3.9373,3.8812,3.8155,3.7936,3.7274,3.6516,3.607,3.5548,3.4667,3.4122,3.3424,3.2664,3.184,3.0994,3.0129,2.9197,2.8417,2.7647,2.6781,2.6228,2.5753,2.5819,2.5356,2.408,2.3692,2.2774,2.1636,2.1082,2.0251,1.8009,1.6923,1.5623,1.4099,1.2612,1.1452,1.0565,0.9731,0.8896,0.7976,0.6888,0.5882,0.4878,0.4206,0.3126,0.2047,0.1549,0.0783,0.0088,-0.0975,-0.214,-0.3489,-0.4389,-0.5199,-0.6007,-0.6726,-0.7263,-0.7617,-0.8153,-0.8778,-0.9313,-0.9847,-1.0293,3.1605,3.1717,3.1717,3.1717,3.1717,3.1717,3.1985,3.2539,3.3044,3.3573,3.403,3.4534,3.4775,3.4775,3.4775,3.4775,3.4726,3.4775,3.5351,3.6165,3.6258,3.6601,3.708,3.7214,3.7739,3.8433,3.8501,3.8804,3.9556,3.9426,3.9836,4.08,4.0846,4.1329,4.2178,4.2275,4.2275,4.2413,4.2935,4.3104,4.2839,4.3394,4.3489,4.3254,4.3184,4.3184,4.3115,4.2581,4.2229,4.1947,4.0882,4.0094,3.9642,3.9083,3.8521,3.7936,3.7181,3.659,3.6126,3.5399,3.4724,3.4441,3.3668,3.2968,3.2222,3.1456,3.0454,2.9353,2.8182,2.7319,2.6702,2.566,2.4786,2.408,2.4308,2.4136,2.3428,2.2475,2.1534,2.0718,1.9725,1.8291,1.6673,1.5184,1.3841,1.2294,1.0941,0.9813,0.9105,0.8395,0.7642,0.664,0.5633,0.471,0.387,0.3197,0.2197,0.0769,0.0,-0.0697,-0.1584,-0.2488,-0.3752,-0.5022,-0.5378,-0.6007,-0.6812,-0.762,-0.8063,-0.851,-0.9134,-0.9758,-1.056,-1.1099,-1.1455,3.1717,3.1717,3.1717,3.1717,3.1717,3.1717,3.1985,3.2539,3.3068,3.3573,3.403,3.4534,3.4775,3.4775,3.4775,3.4775,3.4775,3.4775,3.528,3.6026,3.6531,3.71,3.766,3.7821,3.8272,3.8839,3.9005,3.9337,3.9709,3.9603,4.0002,4.064,4.0823,4.1352,4.2206,4.2275,4.2275,4.2436,4.302,4.328,4.2816,4.353,4.3562,4.3324,4.3184,4.3163,4.2883,4.23,4.1877,4.1431,4.0576,3.9806,3.9228,3.872,3.8082,3.7568,3.6664,3.607,3.5605,3.4875,3.4273,3.382,3.312,3.2435,3.1686,3.0763,2.9508,2.8964,2.7555,2.6689,2.5951,2.4685,2.3572,2.2843,2.2625,2.2556,2.2316,2.1264,2.0196,1.9234,1.8121,1.6818,1.5026,1.3655,1.2253,1.0871,0.9636,0.8605,0.7655,0.6947,0.6305,0.5382,0.4542,0.3617,0.2775,0.2103,0.1348,-0.0085,-0.1542,-0.2254,-0.308,-0.3909,-0.4811,-0.5806,-0.6267,-0.6898,-0.7688,-0.8405,-0.896,-0.9496,-1.0209,-1.0827,-1.1444,-1.1988,-1.2432,3.1717,3.1717,3.1717,3.1717,3.1717,3.1717,3.1985,3.2539,3.3068,3.3573,3.403,3.4558,3.4751,3.4775,3.4775,3.4775,3.4775,3.4775,3.5183,3.593,3.6675,3.7469,3.7945,3.8401,3.8816,3.9189,3.9831,3.9953,3.9908,3.9861,4.0181,4.0716,4.0823,4.1397,4.2069,4.2275,4.2275,4.2477,4.3123,4.3233,4.2928,4.3555,4.3703,4.3302,4.3093,4.2883,4.2511,4.2089,4.1523,4.0811,4.0002,3.9353,3.8647,3.8228,3.7568,3.6886,3.6367,3.568,3.5082,3.4574,3.3971,3.3272,3.2528,3.1763,3.1148,2.9989,2.9042,2.8495,2.7227,2.5951,2.4914,2.3581,2.2553,2.1769,2.1123,2.0729,2.0448,1.9992,1.8976,1.7487,1.6493,1.5138,1.3612,1.2176,1.0896,0.9537,0.831,0.7218,0.6364,0.5745,0.5109,0.4458,0.3532,0.2607,0.1766,0.1009,0.0169,-0.0931,-0.2718,-0.3778,-0.447,-0.5218,-0.5847,-0.6564,-0.7081,-0.7795,-0.8522,-0.9158,-0.981,-1.0347,-1.0848,-1.1583,-1.2231,-1.2603,-1.2964,3.1717,3.1717,3.1717,3.1717,3.1717,3.1717,3.203,3.2515,3.309,3.362,3.4078,3.4583,3.4823,3.4823,3.4823,3.4775,3.4823,3.4871,3.5304,3.6266,3.6843,3.7469,3.7902,3.8227,3.8707,3.9244,3.9332,3.9756,4.0232,4.0106,4.0313,4.1028,4.0931,4.1329,4.2138,4.2275,4.2275,4.2431,4.2959,4.3071,4.2883,4.3309,4.3503,4.3189,4.284,4.2489,4.2089,4.1523,4.079,4.0074,3.9498,3.8991,3.8428,3.7623,3.7034,3.6664,3.5829,3.5231,3.4857,3.4105,3.3424,3.3137,3.2359,3.1533,3.0438,2.9741,2.8651,2.7605,2.6264,2.4867,2.3207,2.2397,2.1469,2.0569,1.9738,1.8907,1.8269,1.8135,1.7411,1.6083,1.4727,1.3269,1.1522,1.0353,0.9204,0.815,0.7087,0.5926,0.5164,0.4556,0.4005,0.3442,0.2607,0.1683,0.0925,0.0,-0.1179,-0.2025,-0.3636,-0.5089,-0.5802,-0.6208,-0.6728,-0.7334,-0.7944,-0.8665,-0.932,-0.9869,-1.0419,-1.1039,-1.1588,-1.2249,-1.2909,-1.3205,-1.3584,3.1937,3.2025,3.2025,3.2025,3.2025,3.2025,3.2196,3.2609,3.3268,3.3754,3.4143,3.4798,3.5163,3.5187,3.5187,3.5187,3.5114,3.5042,3.5499,3.6242,3.6747,3.7228,3.7878,3.807,3.8551,3.9434,3.973,4.0168,4.0429,4.034,4.0409,4.1196,4.0946,4.1374,4.2138,4.2275,4.2275,4.2367,4.2651,4.2804,4.2838,4.3062,4.3142,4.2827,4.2317,4.1811,4.1481,4.0938,4.0198,3.9602,3.9063,3.8574,3.8063,3.7476,3.696,3.6423,3.5605,3.5082,3.4707,3.3954,3.312,3.2892,3.2053,3.0978,2.9851,2.9016,2.789,2.6666,2.5465,2.403,2.2035,2.0968,2.0358,1.9495,1.8573,1.7529,1.6616,1.6345,1.581,1.4399,1.3,1.1797,1.0347,0.9007,0.8159,0.7449,0.6394,0.5239,0.4485,0.3791,0.3081,0.2514,0.168,0.0842,0.0084,-0.1009,-0.2443,-0.3454,-0.4551,-0.5909,-0.6897,-0.7191,-0.738,-0.8007,-0.8654,-0.9462,-1.0111,-1.0565,-1.121,-1.2039,-1.2698,-1.3186,-1.3582,-1.398,-1.4272,3.2201,3.24,3.24,3.24,3.24,3.24,3.2474,3.2695,3.3457,3.3882,3.4268,3.5153,3.5377,3.5548,3.5572,3.5572,3.5549,3.5575,3.594,3.6541,3.6756,3.7308,3.7911,3.8123,3.8551,3.9561,3.989,4.0353,4.0602,4.0468,4.0516,4.1094,4.0984,4.1283,4.1994,4.2252,4.2275,4.2216,4.2321,4.2427,4.2393,4.2593,4.2584,4.2224,4.154,4.1059,4.0758,4.0232,3.9698,3.9154,3.8668,3.8054,3.7547,3.7255,3.7034,3.6201,3.5456,3.5082,3.4782,3.3861,3.2876,3.2462,3.1437,3.0238,2.913,2.8028,2.6912,2.5862,2.4701,2.3409,2.1831,2.0649,1.9548,1.8621,1.7601,1.645,1.5429,1.4727,1.38,1.2944,1.1604,1.0425,0.9324,0.815,0.7447,0.6598,0.5548,0.4641,0.3888,0.3028,0.2313,0.1414,0.0583,-0.0418,-0.1253,-0.21,-0.3535,-0.446,-0.5468,-0.6566,-0.7669,-0.8113,-0.8332,-0.8731,-0.9374,-1.0159,-1.0784,-1.1165,-1.1997,-1.3034,-1.3439,-1.3465,-1.3968,-1.4664,-1.4949,3.2356,3.24,3.24,3.24,3.24,3.24,3.269,3.3039,3.3281,3.385,3.4613,3.4883,3.5275,3.5522,3.562,3.562,3.5719,3.5965,3.6407,3.6991,3.7205,3.7761,3.8117,3.8157,3.8629,3.9369,3.9801,4.0226,4.0775,4.0584,4.054,4.0878,4.086,4.1191,4.1696,4.2086,4.2148,4.1998,4.1965,4.1936,4.1881,4.175,4.1768,4.1435,4.0758,4.0297,4.0111,3.9584,3.8987,3.8538,3.8136,3.7592,3.7089,3.6882,3.6645,3.6201,3.5402,3.4936,3.4786,3.3524,3.2482,3.1712,3.0858,2.9503,2.8198,2.714,2.6246,2.5019,2.3781,2.2493,2.136,2.019,1.9236,1.82,1.6983,1.5778,1.4546,1.3395,1.2302,1.1553,1.0391,0.9241,0.8384,0.7525,0.6666,0.5805,0.4805,0.4053,0.3453,0.2349,0.1306,0.0411,-0.0495,-0.1571,-0.2653,-0.351,-0.4619,-0.5206,-0.6131,-0.6975,-0.7989,-0.8738,-0.9282,-0.9676,-1.0103,-1.0672,-1.1227,-1.1822,-1.2356,-1.3062,-1.3343,-1.3641,-1.4228,-1.4901,-1.5395,3.2636,3.2748,3.2766,3.2791,3.2766,3.2766,3.2872,3.3146,3.3444,3.399,3.4661,3.5059,3.5481,3.5879,3.6026,3.5955,3.596,3.6356,3.6801,3.7193,3.7631,3.8014,3.8372,3.8262,3.8562,3.9135,3.9489,4.0138,4.1019,4.0513,4.0505,4.082,4.0875,4.1076,4.1581,4.2086,4.2079,4.187,4.1637,4.1517,4.1419,4.1241,4.0964,4.0711,3.9993,3.9515,3.9406,3.8973,3.8482,3.8157,3.7937,3.7332,3.6742,3.6447,3.6365,3.6054,3.5258,3.4723,3.4447,3.315,3.1853,3.1439,3.0435,2.9169,2.7784,2.6749,2.5513,2.4009,2.2724,2.1575,2.0782,1.9596,1.8345,1.7142,1.5955,1.4742,1.3494,1.23,1.1355,1.0566,0.9666,0.8672,0.7759,0.69,0.5962,0.5022,0.4003,0.3398,0.2949,0.1767,0.0566,-0.0244,-0.1144,-0.2209,-0.3367,-0.4305,-0.5333,-0.6004,-0.6697,-0.7543,-0.8558,-0.9392,-1.0065,-1.0686,-1.1076,-1.132,-1.1849,-1.2365,-1.2765,-1.3127,-1.3651,-1.4242,-1.4643,-1.5132,-1.5726,3.2896,3.3136,3.3136,3.3136,3.3136,3.3136,3.3093,3.3212,3.352,3.4053,3.4726,3.5157,3.5683,3.6207,3.6358,3.6288,3.61,3.6646,3.7047,3.7443,3.7885,3.8273,3.8509,3.8469,3.8631,3.9026,3.9176,3.9994,4.0697,4.0466,4.0481,4.0633,4.069,4.0823,4.1214,4.1765,4.181,4.1565,4.1421,4.1345,4.1111,4.0662,4.0291,4.0291,3.9255,3.8759,3.8808,3.8535,3.8125,3.7757,3.746,3.7051,3.6213,3.5949,3.5949,3.5687,3.4917,3.4442,3.3674,3.2634,3.1433,3.099,2.979,2.8701,2.7329,2.588,2.4398,2.2819,2.1656,2.0728,2.0065,1.8772,1.7425,1.6223,1.5051,1.3816,1.2754,1.16,1.0697,0.9867,0.9074,0.8066,0.7123,0.6234,0.5372,0.4688,0.3673,0.291,0.2299,0.1118,0.0,-0.0807,-0.1701,-0.2752,-0.3819,-0.4665,-0.5757,-0.6755,-0.738,-0.8082,-0.9105,-1.0128,-1.0798,-1.1386,-1.1653,-1.1986,-1.2484,-1.3002,-1.3395,-1.3909,-1.4302,-1.4805,-1.526,-1.5817,-1.638,3.3068,3.3111,3.3111,3.3136,3.3111,3.3111,3.3111,3.3136,3.3212,3.3771,3.4771,3.4826,3.5449,3.6229,3.6405,3.6358,3.6486,3.6887,3.734,3.7692,3.819,3.8584,3.8951,3.8631,3.8717,3.8941,3.8972,3.9513,4.0114,4.0205,4.0246,4.0305,4.031,4.031,4.0678,4.1374,4.1291,4.0923,4.1091,4.1015,4.0454,3.9819,3.9531,3.9245,3.8758,3.8378,3.8367,3.8264,3.7928,3.73,3.6873,3.6348,3.5648,3.5252,3.5,3.4649,3.4178,3.3652,3.2943,3.1963,3.0991,3.0194,2.9194,2.8027,2.6441,2.4649,2.2986,2.1688,2.0777,2.0101,1.9379,1.8224,1.7006,1.575,1.4521,1.3417,1.2251,1.1107,1.0207,0.9182,0.8379,0.7372,0.6373,0.5593,0.4789,0.411,0.3428,0.2584,0.165,0.0394,-0.0714,-0.1592,-0.2393,-0.3431,-0.4174,-0.5096,-0.6094,-0.7243,-0.7958,-0.8601,-0.9603,-1.0535,-1.1346,-1.1848,-1.2198,-1.2618,-1.3191,-1.3638,-1.4137,-1.4467,-1.4806,-1.5409,-1.5997,-1.6519,-1.7013,3.3428,3.3428,3.3454,3.3454,3.3428,3.3454,3.3428,3.3454,3.3454,3.4063,3.4952,3.5118,3.5664,3.642,3.6477,3.6405,3.6531,3.6958,3.7287,3.7739,3.8241,3.8715,3.8759,3.8669,3.8774,3.8732,3.8833,3.896,3.9459,3.9765,3.9917,4.0153,4.0148,4.0333,4.0387,4.1253,4.1297,4.1021,4.0817,4.0582,4.0214,3.9625,3.921,3.9144,3.857,3.8237,3.8171,3.8191,3.7837,3.7213,3.6722,3.6055,3.5261,3.4602,3.4117,3.3463,3.2895,3.2509,3.2354,3.1421,3.0477,2.9504,2.8392,2.6821,2.4963,2.3372,2.2126,2.1183,2.0218,1.9486,1.8748,1.7526,1.6196,1.5069,1.404,1.2764,1.1669,1.0766,0.9736,0.8636,0.7699,0.6794,0.5904,0.513,0.4413,0.3822,0.2836,0.1769,0.0692,-0.0615,-0.155,-0.2425,-0.329,-0.4155,-0.4826,-0.5508,-0.6418,-0.7489,-0.8361,-0.9064,-0.9972,-1.0911,-1.1628,-1.2402,-1.2798,-1.3309,-1.3849,-1.4106,-1.4358,-1.4817,-1.5271,-1.5902,-1.6551,-1.7138,-1.7793,3.3894,3.3852,3.3768,3.37,3.37,3.37,3.3658,3.3683,3.3658,3.4246,3.5058,3.5461,3.6069,3.6535,3.6572,3.6452,3.6455,3.6832,3.7084,3.7487,3.809,3.8567,3.8714,3.8753,3.8788,3.8473,3.8626,3.8803,3.894,3.9204,3.9632,3.9977,3.9952,4.0186,4.0594,4.1037,4.1246,4.1203,4.0647,4.0409,4.0214,3.9691,3.9363,3.9099,3.8681,3.8262,3.8026,3.815,3.7837,3.683,3.6348,3.5675,3.4678,3.3879,3.3162,3.257,3.1992,3.1547,3.123,3.0501,2.9764,2.8767,2.7488,2.5812,2.3763,2.2418,2.1485,2.0707,1.9659,1.8867,1.8083,1.6904,1.5732,1.46,1.3459,1.2115,1.0938,1.024,0.9366,0.8371,0.7447,0.6477,0.5609,0.476,0.4043,0.3462,0.2414,0.1058,-0.0227,-0.1512,-0.2284,-0.3156,-0.4004,-0.4789,-0.5228,-0.5978,-0.6881,-0.7719,-0.8579,-0.9512,-1.049,-1.1183,-1.1894,-1.2559,-1.3293,-1.3813,-1.418,-1.4415,-1.4645,-1.5345,-1.6047,-1.6468,-1.6985,-1.7727,-1.8452,3.4356,3.4314,3.3894,3.3742,3.37,3.37,3.37,3.3742,3.37,3.4127,3.4907,3.5718,3.635,3.6603,3.6709,3.6593,3.643,3.6455,3.6757,3.7235,3.7789,3.8316,3.8617,3.8862,3.9,3.8736,3.8591,3.8621,3.8815,3.8998,3.9226,3.946,3.9698,3.995,4.0301,4.0693,4.0978,4.0934,4.0449,4.0169,3.9996,3.9671,3.9366,3.9059,3.8729,3.8294,3.7657,3.7839,3.7447,3.6073,3.5633,3.5073,3.4079,3.3204,3.2466,3.1912,3.1513,3.0854,3.0102,2.9605,2.8841,2.7741,2.6468,2.5003,2.3227,2.2236,2.1254,2.0154,1.9129,1.823,1.741,1.6368,1.5292,1.4297,1.3233,1.1969,1.086,0.998,0.9122,0.8164,0.7195,0.6156,0.5355,0.4514,0.4057,0.3413,0.1866,0.0524,-0.0975,-0.2177,-0.2937,-0.3713,-0.4623,-0.5331,-0.5618,-0.6351,-0.715,-0.7976,-0.8831,-0.9908,-1.0978,-1.1598,-1.1892,-1.2808,-1.3539,-1.4054,-1.4601,-1.4915,-1.5388,-1.6155,-1.6814,-1.7104,-1.7814,-1.856,-1.9174,3.4521,3.4839,3.4647,3.4397,3.4147,3.4147,3.4147,3.4147,3.4147,3.4481,3.5077,3.6022,3.6521,3.6662,3.6887,3.6922,3.6828,3.6828,3.6912,3.7071,3.7503,3.7961,3.8341,3.8615,3.8731,3.869,3.8502,3.8287,3.831,3.8779,3.8776,3.8933,3.9405,3.9988,4.0306,4.038,4.0474,4.0303,3.9914,3.9575,3.9001,3.8744,3.8359,3.8036,3.7712,3.7325,3.6855,3.6958,3.6359,3.5631,3.5014,3.4324,3.3643,3.2728,3.2017,3.1439,3.1123,3.0267,2.9242,2.8838,2.8142,2.6285,2.5209,2.4233,2.2841,2.1697,2.0892,1.9865,1.8617,1.7599,1.7228,1.6037,1.4856,1.4047,1.3009,1.1817,1.072,0.9769,0.8744,0.7741,0.6705,0.575,0.5041,0.4267,0.3898,0.3364,0.1619,-0.0074,-0.1559,-0.2825,-0.3578,-0.4332,-0.5233,-0.5941,-0.6308,-0.6933,-0.7553,-0.8234,-0.8997,-1.0042,-1.1029,-1.1329,-1.1776,-1.277,-1.3683,-1.4263,-1.4829,-1.5481,-1.6029,-1.6551,-1.7196,-1.7747,-1.8493,-1.9279,-1.9781,3.4286,3.4792,3.4819,3.4762,3.4579,3.4605,3.4605,3.4605,3.4522,3.4774,3.5336,3.5983,3.6404,3.6599,3.6825,3.7027,3.701,3.7062,3.6968,3.713,3.7369,3.7678,3.7937,3.8166,3.8438,3.8576,3.8515,3.8307,3.8229,3.8658,3.8761,3.8887,3.9174,3.9732,4.0135,4.0251,4.0163,3.9938,3.9503,3.9066,3.8545,3.8165,3.7806,3.7444,3.723,3.6699,3.6401,3.6313,3.5824,3.5082,3.4329,3.3846,3.3152,3.2431,3.169,3.1157,3.0637,2.9865,2.8977,2.7996,2.7115,2.5509,2.4661,2.3653,2.234,2.1221,2.0383,1.9576,1.8127,1.7047,1.6847,1.5593,1.4596,1.3722,1.26,1.1439,1.0358,0.9355,0.8258,0.7253,0.6317,0.5481,0.4566,0.3804,0.2842,0.2304,0.1232,-0.0511,-0.2055,-0.3306,-0.4263,-0.5008,-0.583,-0.647,-0.7053,-0.7506,-0.7972,-0.8517,-0.9259,-0.9872,-1.0679,-1.1128,-1.1843,-1.2845,-1.3754,-1.4415,-1.5139,-1.5783,-1.623,-1.6701,-1.7432,-1.8347,-1.8784,-1.9548,-2.0057,3.37,3.4206,3.4233,3.4526,3.4952,3.5086,3.5044,3.5003,3.4839,3.4936,3.5257,3.5443,3.5861,3.643,3.6644,3.6896,3.7093,3.715,3.7155,3.7215,3.7428,3.7569,3.7728,3.7937,3.8141,3.8339,3.8384,3.8398,3.8348,3.8757,3.8863,3.8809,3.8975,3.9306,3.9743,4.0091,4.0241,4.014,3.9494,3.9037,3.8494,3.8053,3.7486,3.7024,3.6729,3.6121,3.5536,3.5532,3.503,3.4136,3.3578,3.3046,3.2471,3.1717,3.1037,3.0455,3.0343,2.9591,2.8395,2.7016,2.5914,2.5027,2.4349,2.335,2.208,2.0989,1.9923,1.9151,1.7648,1.6518,1.5739,1.5055,1.4259,1.3388,1.2288,1.108,1.0019,0.8948,0.7872,0.7048,0.6191,0.5245,0.4262,0.3217,0.1898,0.1063,0.0428,-0.0863,-0.2464,-0.3633,-0.4576,-0.5584,-0.6322,-0.7127,-0.7688,-0.803,-0.8455,-0.8925,-0.9575,-1.0312,-1.1014,-1.1691,-1.2449,-1.3162,-1.3935,-1.4781,-1.5506,-1.6156,-1.6748,-1.7428,-1.8121,-1.8824,-1.9313,-1.9735,-2.0343,3.35,3.4012,3.4012,3.4119,3.4376,3.4888,3.5086,3.5086,3.5044,3.5068,3.5182,3.5373,3.5588,3.6053,3.6556,3.6884,3.7098,3.752,3.7598,3.7392,3.7531,3.7646,3.776,3.7774,3.7862,3.8091,3.8266,3.826,3.8145,3.853,3.8615,3.8567,3.8544,3.883,3.9093,3.9262,3.9186,3.9243,3.8828,3.8343,3.7588,3.6982,3.6343,3.5748,3.5519,3.4943,3.4186,3.4429,3.3977,3.3218,3.2729,3.2118,3.1785,3.1099,3.0203,2.9679,2.9408,2.8754,2.7536,2.6338,2.5297,2.4671,2.4042,2.3151,2.2071,2.0726,1.9728,1.872,1.7379,1.6446,1.5963,1.501,1.4199,1.3324,1.2207,1.0829,0.9692,0.856,0.7561,0.6922,0.6103,0.4708,0.355,0.2575,0.1368,0.0208,-0.042,-0.135,-0.2798,-0.3808,-0.4812,-0.5866,-0.6784,-0.762,-0.8272,-0.8709,-0.9253,-0.9902,-1.0426,-1.0986,-1.163,-1.2279,-1.3015,-1.3835,-1.4514,-1.52,-1.6098,-1.6955,-1.7615,-1.8268,-1.8787,-1.9332,-1.9722,-2.0144,-2.06,3.3264,3.3772,3.3799,3.387,3.4082,3.4726,3.5076,3.5155,3.5208,3.5168,3.5165,3.5345,3.5511,3.5769,3.6166,3.6847,3.6985,3.7377,3.7776,3.7546,3.7531,3.7598,3.7617,3.7581,3.7622,3.7835,3.799,3.7991,3.7861,3.8052,3.809,3.8121,3.8078,3.828,3.8461,3.8515,3.8504,3.8443,3.8019,3.751,3.6747,3.6058,3.529,3.4807,3.4401,3.3836,3.3376,3.3035,3.2914,3.2463,3.1892,3.1347,3.1133,3.0599,2.9689,2.9253,2.8438,2.795,2.7095,2.5961,2.5138,2.463,2.3826,2.2921,2.1857,2.0504,1.9364,1.826,1.7132,1.6138,1.531,1.4459,1.3763,1.289,1.1672,1.0324,0.9029,0.7856,0.7045,0.6428,0.5734,0.4231,0.2843,0.1828,0.0794,-0.027,-0.1235,-0.223,-0.3113,-0.4183,-0.5177,-0.6219,-0.7257,-0.8163,-0.8852,-0.9363,-1.0034,-1.0747,-1.1261,-1.1731,-1.2266,-1.2888,-1.3682,-1.4415,-1.5203,-1.6013,-1.7023,-1.7832,-1.8299,-1.8707,-1.9074,-1.9625,-2.0127,-2.0601,-2.1025,3.3063,3.3514,3.3578,3.3798,3.4159,3.4512,3.4939,3.5372,3.5386,3.5331,3.5153,3.5153,3.5322,3.5537,3.568,3.6183,3.6891,3.703,3.7429,3.7678,3.7644,3.7629,3.7537,3.7355,3.7402,3.7515,3.7627,3.7737,3.7593,3.764,3.7608,3.7542,3.7508,3.756,3.7653,3.7799,3.7914,3.7839,3.7482,3.6961,3.6392,3.5472,3.488,3.4404,3.4004,3.3507,3.3151,3.2874,3.2615,3.2131,3.1523,3.1218,3.095,3.0519,2.9839,2.8994,2.7815,2.721,2.6766,2.5612,2.4733,2.4134,2.3371,2.2498,2.1421,2.0154,1.8847,1.7658,1.6517,1.5168,1.4069,1.3509,1.2895,1.1937,1.0841,0.9524,0.8173,0.7195,0.6425,0.5759,0.5107,0.3981,0.2558,0.1414,0.0388,-0.0916,-0.1932,-0.2971,-0.391,-0.475,-0.573,-0.6565,-0.7594,-0.8634,-0.9314,-0.988,-1.0685,-1.1413,-1.1909,-1.242,-1.3005,-1.3633,-1.4403,-1.5203,-1.6007,-1.6874,-1.7928,-1.8435,-1.8707,-1.9107,-1.9734,-2.0146,-2.0836,-2.1246,-2.1703,3.2814,3.298,3.298,3.3054,3.3202,3.3733,3.4405,3.5177,3.5453,3.5548,3.5534,3.5345,3.5383,3.5476,3.5736,3.6135,3.6586,3.7051,3.7513,3.7665,3.7723,3.7756,3.769,3.7485,3.7381,3.7369,3.7432,3.7447,3.7316,3.7295,3.7168,3.7032,3.6967,3.6744,3.6667,3.6707,3.72,3.7379,3.6997,3.6643,3.6038,3.5136,3.4529,3.4017,3.3501,3.3032,3.27,3.2347,3.2096,3.1919,3.0892,3.0436,3.0717,2.9688,2.8678,2.7939,2.6854,2.6001,2.5818,2.4822,2.3841,2.3322,2.2371,2.1652,2.0677,1.9588,1.8136,1.7055,1.6086,1.494,1.387,1.3184,1.2367,1.1303,1.0314,0.9235,0.797,0.6955,0.6133,0.5234,0.4588,0.3539,0.2205,0.1139,0.0064,-0.1346,-0.2588,-0.3544,-0.4458,-0.5288,-0.6088,-0.6906,-0.7844,-0.8833,-0.9636,-1.027,-1.1163,-1.2052,-1.2525,-1.3106,-1.3968,-1.466,-1.527,-1.6098,-1.7016,-1.7924,-1.8789,-1.9173,-1.9399,-2.0116,-2.0758,-2.1066,-2.1401,-2.1954,-2.2419,3.2765,3.2793,3.2975,3.2988,3.2993,3.3394,3.4038,3.4678,3.5241,3.5437,3.5491,3.548,3.5467,3.5426,3.5624,3.5911,3.6257,3.6479,3.6867,3.719,3.7591,3.7527,3.7515,3.7612,3.7438,3.7304,3.722,3.7188,3.701,3.6997,3.6923,3.6674,3.6495,3.6234,3.6066,3.6138,3.6267,3.6478,3.644,3.6174,3.5521,3.4801,3.4225,3.35,3.2949,3.2706,3.2244,3.1876,3.1592,3.1384,3.0238,2.9659,2.9653,2.8627,2.7694,2.6991,2.6058,2.5347,2.493,2.4121,2.3231,2.2468,2.1606,2.0824,2.0037,1.9024,1.7781,1.6604,1.5763,1.485,1.3983,1.2985,1.1939,1.0834,0.9955,0.9081,0.7953,0.6886,0.5871,0.4857,0.3948,0.2979,0.1922,0.0872,-0.0188,-0.1456,-0.2614,-0.3668,-0.4556,-0.5274,-0.6167,-0.6969,-0.801,-0.9038,-0.977,-1.0451,-1.1344,-1.2192,-1.2882,-1.3616,-1.4721,-1.5615,-1.6173,-1.7094,-1.8123,-1.9049,-1.9843,-1.9889,-2.0157,-2.104,-2.1852,-2.2221,-2.2545,-2.2855,-2.3304,3.2934,3.3049,3.3419,3.3466,3.3347,3.3492,3.3697,3.3946,3.4661,3.5018,3.5116,3.5464,3.5494,3.5346,3.5507,3.5719,3.6007,3.6189,3.6449,3.6567,3.7034,3.7156,3.7206,3.7462,3.7221,3.7073,3.7019,3.6959,3.6606,3.6571,3.6529,3.6358,3.6379,3.61,3.5646,3.553,3.5577,3.5468,3.5511,3.5395,3.4811,3.4373,3.3951,3.304,3.2854,3.2746,3.2153,3.1572,3.097,3.0435,2.9846,2.92,2.8482,2.7648,2.6924,2.625,2.5494,2.4786,2.4183,2.3476,2.2765,2.1979,2.1199,2.0219,1.9259,1.8576,1.7453,1.632,1.5432,1.4544,1.3628,1.2804,1.1821,1.0738,0.9741,0.864,0.7475,0.6289,0.5154,0.423,0.3481,0.2544,0.1582,0.0551,-0.0247,-0.1498,-0.2581,-0.3673,-0.4388,-0.5137,-0.6009,-0.6924,-0.7925,-0.8898,-0.9536,-1.0321,-1.1359,-1.2227,-1.2948,-1.397,-1.489,-1.5914,-1.7058,-1.8072,-1.9104,-2.0063,-2.0791,-2.0996,-2.1539,-2.2539,-2.3207,-2.3534,-2.3803,-2.4125,-2.4256,3.3197,3.3619,3.3618,3.357,3.3501,3.3395,3.3409,3.35,3.3973,3.4371,3.4678,3.5045,3.5217,3.5219,3.5534,3.5831,3.6055,3.6094,3.6396,3.6518,3.669,3.6682,3.6665,3.6974,3.6781,3.6567,3.657,3.6705,3.6351,3.6196,3.6058,3.5817,3.5795,3.5428,3.5008,3.4946,3.4903,3.4625,3.467,3.4585,3.4146,3.3558,3.3009,3.2532,3.2319,3.2183,3.1678,3.1242,3.0843,3.0469,2.9797,2.9141,2.8351,2.7133,2.6526,2.6209,2.5141,2.4261,2.3578,2.2894,2.2107,2.1148,2.0256,1.9314,1.8564,1.8022,1.7185,1.6122,1.5092,1.4149,1.3319,1.262,1.1766,1.0636,0.952,0.8264,0.701,0.5702,0.4472,0.369,0.3028,0.2202,0.1255,0.0361,-0.0424,-0.1407,-0.2409,-0.3353,-0.3911,-0.4624,-0.5642,-0.6556,-0.7714,-0.8556,-0.9285,-1.0076,-1.111,-1.2027,-1.2826,-1.3861,-1.5074,-1.635,-1.7625,-1.8906,-2.0048,-2.0902,-2.174,-2.2525,-2.3158,-2.4121,-2.4631,-2.4969,-2.553,-2.5992,-2.5796,3.3009,3.3312,3.3688,3.3779,3.3709,3.3501,3.3431,3.3452,3.3584,3.3776,3.4131,3.4782,3.5205,3.5237,3.5625,3.5818,3.6061,3.5993,3.5977,3.6064,3.6253,3.6161,3.6288,3.6462,3.6267,3.6063,3.6077,3.6065,3.5915,3.5726,3.5494,3.5392,3.5109,3.4823,3.4462,3.4503,3.4346,3.3933,3.4019,3.3817,3.354,3.3188,3.2768,3.2287,3.2061,3.1909,3.1584,3.1195,3.067,3.0003,2.9172,2.8471,2.7622,2.6717,2.5993,2.5375,2.4507,2.3465,2.2812,2.2112,2.1368,2.04,1.9822,1.9038,1.8181,1.7621,1.6714,1.5685,1.4765,1.3859,1.3196,1.248,1.1595,1.0508,0.9372,0.8131,0.669,0.524,0.4124,0.3253,0.2651,0.2053,0.112,0.0238,-0.0538,-0.1016,-0.2113,-0.2863,-0.3471,-0.4082,-0.5063,-0.6052,-0.7046,-0.8198,-0.9032,-0.9888,-1.0816,-1.1743,-1.2544,-1.4017,-1.5328,-1.6886,-1.8328,-1.9387,-2.0472,-2.1597,-2.241,-2.3343,-2.4583,-2.5591,-2.6075,-2.6428,-2.7063,-2.7621,-2.7463,3.2643,3.2835,3.3705,3.4088,3.3917,3.3709,3.364,3.3605,3.3466,3.3389,3.3571,3.4724,3.5124,3.5354,3.5648,3.5653,3.5723,3.5805,3.5656,3.5493,3.5743,3.5736,3.578,3.5858,3.5844,3.5737,3.5601,3.5437,3.5269,3.5203,3.5198,3.508,3.4804,3.4546,3.4362,3.4126,3.3835,3.3427,3.3273,3.3089,3.3073,3.3131,3.2647,3.2367,3.2211,3.2266,3.1838,3.124,3.0541,2.9615,2.8574,2.7867,2.7082,2.6318,2.5406,2.471,2.3794,2.275,2.1938,2.1359,2.0564,1.9828,1.9497,1.8906,1.8023,1.7098,1.6219,1.5446,1.4611,1.3831,1.3127,1.2346,1.1429,1.0351,0.918,0.7922,0.632,0.485,0.3949,0.298,0.2386,0.1909,0.1045,0.0176,-0.047,-0.0998,-0.1593,-0.226,-0.293,-0.3532,-0.434,-0.5222,-0.6107,-0.7215,-0.8398,-0.9361,-1.0243,-1.1163,-1.2137,-1.3915,-1.5627,-1.6982,-1.8337,-1.9498,-2.0638,-2.183,-2.3109,-2.4202,-2.5469,-2.6794,-2.7488,-2.7862,-2.8336,-2.8768,-2.889,3.2748,3.3747,3.4176,3.4332,3.4259,3.3985,3.3876,3.3813,3.3779,3.3709,3.3733,3.4228,3.4705,3.4861,3.5123,3.5241,3.5256,3.541,3.5276,3.5048,3.5184,3.5235,3.5322,3.5416,3.5652,3.5539,3.5244,3.5076,3.4882,3.4952,3.4886,3.4558,3.4283,3.4007,3.3754,3.355,3.3292,3.2936,3.2509,3.2213,3.2176,3.2257,3.2374,3.2053,3.1745,3.1499,3.104,3.0684,3.0223,2.9444,2.8281,2.7435,2.673,2.5937,2.5019,2.4193,2.3291,2.2425,2.1665,2.1071,2.0386,1.9845,1.9394,1.8658,1.7725,1.6838,1.609,1.5557,1.4757,1.3984,1.3259,1.2354,1.1417,1.0052,0.88,0.7271,0.5734,0.4817,0.4029,0.3243,0.2559,0.1871,0.1022,0.0286,-0.0347,-0.0926,-0.1633,-0.2232,-0.2478,-0.3067,-0.3651,-0.4325,-0.5123,-0.6167,-0.729,-0.8461,-0.9446,-1.045,-1.1727,-1.3517,-1.5262,-1.694,-1.8201,-1.9324,-2.0787,-2.2103,-2.343,-2.4682,-2.6191,-2.7418,-2.8602,-2.9297,-2.9708,-2.9914,-3.0038]},{"header":{"parameterUnit":"m.s-1","parameterCategory":1,"la1":31.0,"la2":29.5877,"lo1":-88.7671,"lo2":-86.6584,"dy":0.0162,"dx":0.0185,"nx":115,"ny":88,"refTime":"2023-09-27T00:00:00:Z","depth":0,"parameterNumber":3,"parameterNumberName":"V-component_of_WINDS"},"data":[0.0,0.0,0.0,0.0,0.0,0.0,0.0,0.0,0.0,0.0,0.0,0.0,0.0,0.0,0.0,0.0,0.0,0.0,0.0,0.0,0.0,0.0,0.0,0.0,0.0,0.0,0.0,0.0,0.0,0.0,0.0,0.0,0.0,0.0,0.0,0.0,0.0,0.0,0.0,0.0,0.0,0.0,0.0,0.0,0.0,0.0,0.0,0.0,0.0,0.0,0.0,0.0,0.0,0.0,0.0,0.0,0.0,0.0,0.0,0.0,0.0,0.0,0.0,0.0,0.0,0.0,0.0,0.0,0.0,0.0,0.0,0.0,0.0,0.0,0.0,0.0,0.0,0.0,0.0,0.0,0.0,0.0,0.0,0.0,0.0,0.0,0.0,0.0,0.0,0.0,0.0,0.0,0.0,0.0,0.0,0.0,0.0,0.0,0.0,0.0,0.0,0.0,0.0,0.0,0.0,0.0,0.0,0.0,0.0,0.0,0.0,0.0,0.0,0.0,0.0,0.0,0.0,0.0,0.0,0.0,0.0,0.0,0.0,0.0,0.0,0.0,0.0,0.0,0.0,0.0,0.0,0.0,0.0,0.0,0.0,0.0,0.0,0.0,0.0,0.0,0.0,0.0,0.0,0.0,0.0,0.0,0.0,0.0,0.0,0.0,0.0,0.0,0.0,0.0,0.0,0.0,0.0,0.0,0.0,0.0,0.0,0.0,0.0,0.0,0.0,0.0,0.0,0.0,0.0,0.0,0.0,0.0,0.0,0.0,0.0,0.0,0.0,0.0,0.0,0.0,0.0,0.0,0.0,0.0,0.0,0.0,0.0,0.0,0.0,0.0,0.0,0.0,0.0,0.0,0.0,0.0,0.0,0.0,0.0,0.0,0.0,0.0,0.0,0.0,0.0,0.0,0.0,0.0,0.0,0.0,0.0,0.0,0.0,0.0,0.0,0.0,0.0,0.0,0.0,0.0,0.0,0.0,0.0,0.0,0.0,0.0,0.0,0.0,0.0,0.0,0.0,0.0,0.0,0.0,0.0,0.0,0.0,0.0,0.0,0.0,0.0,0.0,0.0,0.0,0.0,0.0,0.0,0.0,0.0,0.0,0.0,0.0,0.0,0.0,0.0,0.0,0.0,0.0,0.0,0.0,0.0,0.0,0.0,0.0,0.0,0.0,0.0,0.0,0.0,0.0,0.0,0.0,0.0,0.0,0.0,0.0,0.0,0.0,0.0,0.0,0.0,0.0,0.0,0.0,0.0,0.0,0.0,0.0,0.0,0.0,0.0,0.0,0.0,0.0,0.0,0.0,0.0,0.0,0.0,0.0,0.0,0.0,0.0,0.0,0.0,0.0,0.0,0.0,0.0,0.0,0.0,0.0,0.0,0.0,0.0,0.0,0.0,0.0,0.0,0.0,0.0,0.0,0.0,0.0,0.0,0.0,0.0,0.0,0.0,0.0,0.0,0.0,0.0,0.0,0.0,0.0,0.0,0.0,0.0,0.0,0.0,0.0,0.0,0.0,0.0,0.0,0.0,0.0,0.0,0.0,0.0,0.0,0.0,0.0,0.0,0.0,0.0,0.0,0.0,0.0,0.0,0.0,0.0,0.0,0.0,0.0,0.0,0.0,0.0,0.0,0.0,0.0,0.0,0.0,0.0,0.0,0.0,0.0,0.0,0.0,0.0,0.0,0.0,0.0,0.0,0.0,0.0,0.0,0.0,0.0,0.0,0.0,0.0,0.0,0.0,0.0,0.0,0.0,0.0,0.0,0.0,0.0,0.0,0.0,0.0,0.0,0.0,0.0,0.0,0.0,0.0,0.0,0.0,0.0,0.0,0.0,0.0,0.0,0.0,0.0,0.0,0.0,0.0,0.0,0.0,0.0,0.0,0.0,0.0,0.0,0.0,0.0,0.0,0.0,0.0,0.0,0.0,0.0,0.0,0.0,0.0,0.0,0.0,0.0,0.0,0.0,0.0,0.0,0.0,0.0,0.0,0.0,0.0,0.0,0.0,0.0,0.0,0.0,0.0,0.0,0.0,0.0,0.0,0.0,0.0,0.0,0.0,0.0,0.0,0.0,0.0,0.0,0.0,0.0,0.0,0.0,0.0,0.0,0.0,0.0,0.0,0.0,0.0,0.0,0.0,0.0,0.0,0.0,0.0,0.0,0.0,0.0,0.0,0.0,0.0,0.0,0.0,0.0,0.0,0.0,0.0,0.0,0.0,0.0,0.0,0.0,0.0,0.0,0.0,0.0,0.0,0.0,0.0,0.0,0.0,0.0,0.0,0.0,0.0,0.0,0.0,0.0,0.0,0.0,0.0,0.0,0.0,0.0,0.0,0.0,0.0,0.0,0.0,0.0,0.0,0.0,0.0,0.0,0.0,0.0,0.0,0.0,0.0,0.0,0.0,0.0,0.0,0.0,0.0,0.0,0.0,0.0,0.0,0.0,0.0,0.0,0.0,0.0,0.0,0.0,0.0,0.0,0.0,0.0,0.0,0.0,0.0,0.0,0.0,0.0,0.0,0.0,0.0,0.0,0.0,0.0,0.0,0.0,0.0,0.0,0.0,0.0,0.0,0.0,0.0,0.0,0.0,0.0,0.0,0.0,0.0,0.0,0.0,0.0,0.0,0.0,0.0,0.0,0.0,0.0,0.0,0.0,0.0,0.0,0.0,0.0,0.0,0.0,0.0,0.0,0.0,0.0,0.0,0.0,0.0,0.0,0.0,0.0,0.0,0.0,0.0,0.0,0.0,0.0,0.0,0.0,0.0,0.0,0.0,0.0,0.0,0.0,0.0,0.0,0.0,0.0,0.0,0.0,0.0,0.0,0.0,0.0,0.0,0.0,0.0,0.0,0.0,0.0,0.0,0.0,0.0,0.0,0.0,0.0,0.0,0.0,0.0,0.0,0.0,0.0,0.0,0.0,0.0,0.0,0.0,0.0,0.0,0.0,0.0,0.0,0.0,0.0,0.0,0.0,0.0,0.0,0.0,0.0,0.0,0.0,0.0,0.0,0.0,0.0,0.0,0.0,0.0,0.0,0.0,0.0,0.0,0.0,0.0,0.0,0.0,0.0,0.0,0.0,0.0,0.0,0.0,0.0,0.0,0.0,0.0,0.0,0.0,0.0,0.0,0.0,0.0,0.0,0.0,0.0,0.0,0.0,0.0,0.0,0.0,0.0,0.0,0.0,0.0,0.0,0.0,0.0,0.0,0.0,0.0,0.0,0.0,0.0,0.0,0.0,0.0,0.0,0.0,0.0,0.0,0.0,0.0,0.0,0.0,0.0,0.0,0.0,0.0,0.0,0.0,0.0,0.0,0.0,0.0,0.0,0.0,0.0,0.0,0.0,0.0,0.0,0.0,0.0,0.0,0.0,0.0,0.0,0.0,0.0,0.0,0.0,0.0,0.0,0.0,0.0,0.0,0.0,0.0,0.0,0.0,0.0,0.0,0.0,0.0,0.0,0.0,0.0,0.0,0.0,0.0,0.0,0.0,0.0,0.0,0.0,0.0,0.0,0.0,0.0,0.0,0.0,0.0,0.0,0.0,0.0,0.0,0.0,0.0,0.0,0.0,0.0,0.0,0.0,0.0,0.0,0.0,0.0,0.0,0.0,0.0,0.0,0.0,0.0,0.0,0.0,0.0,0.0,0.0,0.0,0.0,0.0,0.0,0.0,0.0,0.0,0.0,0.0,0.0,0.0,0.0,0.0,0.0,0.0,0.0,0.0,0.0,0.0,0.0,0.0,0.0,0.0,0.0,0.0,0.0,0.0,0.0,0.0,0.0,0.0,0.0,0.0,0.0,0.0,0.0,0.0,0.0,0.0,0.0,0.0,0.0,0.0,0.0,0.0,0.0,0.0,0.0,0.0,0.0,0.0,0.0,0.0,0.0,0.0,0.0,0.0,0.0,0.0,0.0,0.0,0.0,0.0,0.0,0.0,0.0,0.0,0.0,0.0,0.0,0.0,0.0,0.0,0.0,0.0,0.0,0.0,0.0,0.0,0.0,0.0,0.0,0.0,0.0,0.0,0.0,0.0,0.0,0.0,0.0,0.0,0.0,0.0,0.0,0.0,0.0,0.0,0.0,0.0,0.0,0.0,0.0,0.0,0.0,0.0,0.0,0.0,0.0,0.0,0.0,0.0,0.0,0.0,0.0,0.0,0.0,0.0,0.0,0.0,0.0,0.0,0.0,0.0,0.0,0.0,0.0,0.0,0.0,0.0,0.0,0.0,0.0,0.0,0.0,0.0,0.0,0.0,0.0,0.0,1.5683,0.0,0.0,0.0,0.0,0.0,0.0,0.0,0.0,0.0,0.0,0.0,0.0,0.0,0.0,0.0,0.0,0.0,0.0,0.0,0.0,0.0,0.0,0.0,0.0,0.0,0.0,0.0,0.0,0.0,0.0,0.0,0.0,0.0,0.0,0.0,0.0,0.0,0.0,0.0,0.0,0.0,0.0,0.0,0.0,0.0,0.0,0.0,0.0,0.0,0.0,0.0,0.0,0.0,0.0,0.0,0.0,0.0,0.0,0.0,0.0,0.0,0.0,0.0,0.0,0.0,0.0,0.0,0.0,0.0,0.0,0.0,0.0,0.0,0.0,0.0,0.0,0.0,0.0,0.0,0.0,0.0,0.0,0.0,0.0,0.0,0.0,0.0,0.0,0.0,0.0,0.0,0.0,0.0,0.0,0.0,0.0,0.0,0.0,0.0,0.0,0.0,0.0,0.0,0.0,0.0,0.0,0.0,0.0,0.0,0.0,1.7188,1.694,1.6738,1.6678,1.6808,0.0,0.0,0.0,0.0,0.0,0.0,0.0,0.0,0.0,0.0,0.0,0.0,0.0,0.0,0.0,0.0,0.0,0.0,0.0,0.0,0.0,0.0,0.0,0.0,0.0,0.0,0.0,0.0,0.0,0.0,0.0,0.0,0.0,0.0,0.0,0.0,0.0,0.0,0.0,0.0,0.0,0.0,0.0,0.0,0.0,0.0,0.0,0.0,0.0,0.0,0.0,0.0,0.0,0.0,0.0,0.0,0.0,0.0,0.0,0.0,0.0,0.0,0.0,0.0,0.0,0.0,0.0,0.0,0.0,0.0,0.0,0.0,0.0,0.0,0.0,0.0,0.0,0.0,0.0,0.0,0.0,0.0,0.0,0.0,0.0,0.0,0.0,0.0,0.0,0.0,0.0,0.0,0.0,0.0,0.0,0.0,0.0,0.0,0.0,0.0,0.0,0.0,0.0,0.0,0.0,0.0,0.0,0.0,0.0,0.0,0.0,0.0,1.785,1.7897,1.8011,0.0,0.0,0.0,0.0,0.0,0.0,0.0,0.0,0.0,0.0,0.0,0.0,0.0,0.0,0.0,0.0,0.0,0.0,0.0,0.0,0.0,0.0,0.0,0.0,0.0,0.0,0.0,0.0,0.0,0.0,0.0,0.0,0.0,0.0,0.0,0.0,0.0,0.0,0.0,0.0,0.0,0.0,0.0,0.0,0.0,0.0,0.0,0.0,0.0,0.0,0.0,0.0,0.0,0.0,0.0,0.0,0.0,0.0,0.0,0.0,0.0,0.0,0.0,0.0,0.0,0.0,0.0,0.0,0.0,0.0,0.0,0.0,0.0,0.0,0.0,0.0,0.0,0.0,0.0,0.0,0.0,0.0,0.0,0.0,0.0,0.0,0.0,0.0,0.0,0.0,0.0,0.0,0.0,0.0,0.0,0.0,0.0,0.0,0.0,0.0,0.0,0.0,0.0,0.0,0.0,0.0,0.0,0.0,0.0,0.0,1.9185,1.9132,1.9239,0.0,1.8996,0.0,0.0,0.0,0.0,0.0,0.0,0.0,0.0,0.0,0.0,0.0,0.0,0.0,0.0,0.0,0.0,0.0,0.0,0.0,0.0,0.0,0.0,0.0,0.0,0.0,0.0,0.0,0.0,0.0,0.0,0.0,0.0,0.0,0.0,0.0,0.0,0.0,0.0,0.0,0.0,0.0,0.0,0.0,0.0,0.0,0.0,0.0,0.0,0.0,0.0,0.0,0.0,0.0,0.0,0.0,0.0,0.0,0.0,0.0,0.0,0.0,0.0,0.0,0.0,0.0,0.0,0.0,0.0,0.0,0.0,0.0,0.0,0.0,0.0,0.0,0.0,0.0,0.0,0.0,0.0,0.0,0.0,0.0,0.0,0.0,0.0,0.0,0.0,0.0,0.0,0.0,0.0,0.0,0.0,0.0,0.0,0.0,0.0,0.0,0.0,0.0,0.0,0.0,0.0,0.0,0.0,0.0,0.0,0.0,0.0,1.9798,1.9427,1.9863,1.998,0.0,0.0,0.0,0.0,0.0,0.0,0.0,0.0,0.0,0.0,0.0,0.0,0.0,0.0,0.0,0.0,0.0,0.0,0.0,0.0,0.0,0.0,0.0,0.0,0.0,0.0,0.0,0.0,0.0,0.0,0.0,0.0,0.0,0.0,0.0,0.0,0.0,0.0,0.0,0.0,0.0,0.0,0.0,0.0,0.0,0.0,0.0,0.0,0.0,0.0,0.0,0.0,0.0,0.0,0.0,0.0,0.0,0.0,0.0,0.0,0.0,0.0,0.0,0.0,0.0,0.0,0.0,0.0,0.0,0.0,0.0,0.0,0.0,0.0,0.0,0.0,0.0,0.0,0.0,0.0,0.0,0.0,0.0,0.0,0.0,0.0,0.0,0.0,0.0,0.0,0.0,0.0,0.0,0.0,0.0,0.0,0.0,0.0,0.0,0.0,0.0,0.0,0.0,0.0,0.0,0.0,0.0,0.0,0.0,0.0,2.0405,2.0475,2.012,2.0568,2.0639,2.0243,0.0,0.0,0.0,0.0,0.0,0.0,0.0,0.0,0.0,0.0,0.0,0.0,0.0,0.0,0.0,0.0,0.0,0.0,0.0,0.0,0.0,0.0,0.0,0.0,0.0,0.0,0.0,0.0,0.0,0.0,0.0,0.0,0.0,0.0,0.0,0.0,0.0,0.0,0.0,0.0,0.0,0.0,0.0,0.0,0.0,0.0,0.0,0.0,0.0,0.0,0.0,0.0,0.0,0.0,0.0,0.0,0.0,0.0,0.0,0.0,0.0,0.0,0.0,0.0,0.0,0.0,0.0,0.0,0.0,0.0,0.0,0.0,0.0,0.0,0.0,0.0,0.0,0.0,0.0,0.0,0.0,0.0,0.0,0.0,0.0,0.0,0.0,0.0,0.0,0.0,0.0,0.0,0.0,0.0,0.0,0.0,0.0,0.0,0.0,0.0,0.0,0.0,0.0,0.0,0.0,0.0,0.0,0.0,2.1304,2.1331,2.1379,2.1496,2.1524,2.1167,0.0,0.0,0.0,0.0,0.0,0.0,0.0,0.0,0.0,0.0,0.0,0.0,0.0,0.0,0.0,0.0,0.0,0.0,0.0,0.0,0.0,0.0,0.0,0.0,0.0,0.0,0.0,0.0,0.0,0.0,0.0,0.0,0.0,0.0,0.0,0.0,0.0,0.0,0.0,0.0,0.0,0.0,0.0,0.0,0.0,0.0,0.0,0.0,0.0,0.0,0.0,0.0,0.0,0.0,0.0,0.0,0.0,0.0,0.0,0.0,0.0,0.0,0.0,0.0,0.0,0.0,0.0,0.0,0.0,0.0,0.0,0.0,0.0,0.0,0.0,0.0,0.0,0.0,0.0,0.0,0.0,0.0,0.0,0.0,0.0,0.0,0.0,0.0,0.0,0.0,0.0,0.0,0.0,0.0,0.0,0.0,0.0,0.0,0.0,0.0,0.0,0.0,0.0,0.0,0.0,0.0,0.0,0.0,0.0,2.141,2.1509,2.1578,2.1722,2.1817,2.1741,0.0,0.0,0.0,0.0,0.0,0.0,0.0,0.0,0.0,0.0,0.0,0.0,0.0,0.0,0.0,0.0,0.0,0.0,0.0,0.0,0.0,0.0,0.0,0.0,0.0,0.0,0.0,0.0,0.0,0.0,0.0,0.0,0.0,0.0,0.0,0.0,0.0,0.0,0.0,0.0,0.0,0.0,0.0,0.0,0.0,0.0,0.0,0.0,0.0,0.0,0.0,0.0,0.0,0.0,0.0,0.0,0.0,0.0,0.0,0.0,0.0,0.0,0.0,0.0,0.0,0.0,0.0,0.0,0.0,0.0,0.0,0.0,0.0,0.0,0.0,0.0,0.0,0.0,0.0,0.0,0.0,0.0,0.0,0.0,0.0,0.0,0.0,0.0,0.0,0.0,0.0,0.0,0.0,0.0,0.0,0.0,0.0,0.0,0.0,0.0,0.0,0.0,0.0,0.0,0.0,0.0,0.0,0.0,0.0,2.2155,0.0,2.2217,2.2145,2.2265,2.2189,0.0,0.0,0.0,0.0,0.0,0.0,0.0,0.0,0.0,0.0,0.0,0.0,0.0,0.0,0.0,0.0,0.0,0.0,0.0,0.0,0.0,0.0,0.0,0.0,0.0,0.0,0.0,0.0,0.0,0.0,0.0,0.0,0.0,0.0,0.0,0.0,0.0,0.0,0.0,0.0,0.0,0.0,0.0,0.0,0.0,0.0,0.0,0.0,0.0,0.0,0.0,0.0,0.0,0.0,0.0,0.0,0.0,0.0,0.0,0.0,0.0,0.0,0.0,0.0,0.0,0.0,0.0,0.0,0.0,0.0,0.0,0.0,0.0,0.0,0.0,0.0,0.0,0.0,0.0,0.0,0.0,0.0,0.0,0.0,0.0,0.0,0.0,0.0,0.0,0.0,0.0,0.0,0.0,0.0,0.0,0.0,0.0,0.0,0.0,0.0,0.0,0.0,0.0,0.0,0.0,0.0,0.0,0.0,2.3089,2.364,2.3695,2.3414,2.293,2.2927,2.2512,0.0,0.0,0.0,0.0,0.0,0.0,0.0,0.0,0.0,0.0,0.0,0.0,0.0,0.0,0.0,0.0,0.0,0.0,0.0,0.0,0.0,0.0,0.0,0.0,0.0,0.0,0.0,0.0,0.0,0.0,0.0,0.0,0.0,0.0,0.0,0.0,0.0,0.0,0.0,0.0,0.0,0.0,0.0,0.0,0.0,0.0,0.0,0.0,0.0,0.0,0.0,0.0,0.0,0.0,0.0,0.0,0.0,0.0,0.0,0.0,0.0,0.0,0.0,0.0,0.0,0.0,0.0,0.0,0.0,0.0,0.0,0.0,0.0,0.0,0.0,0.0,0.0,0.0,0.0,0.0,0.0,0.0,0.0,0.0,0.0,0.0,0.0,0.0,0.0,0.0,0.0,0.0,0.0,0.0,0.0,0.0,0.0,0.0,0.0,0.0,0.0,0.0,0.0,0.0,0.0,0.0,0.0,0.0,0.0,2.3905,2.4241,2.421,2.3775,2.3769,2.3473,0.0,0.0,0.0,0.0,0.0,0.0,0.0,0.0,0.0,0.0,0.0,0.0,0.0,0.0,0.0,0.0,0.0,0.0,0.0,0.0,0.0,0.0,0.0,0.0,0.0,0.0,0.0,0.0,0.0,0.0,0.0,0.0,0.0,0.0,0.0,0.0,0.0,0.0,0.0,0.0,0.0,0.0,0.0,0.0,0.0,0.0,0.0,0.0,0.0,0.0,0.0,0.0,0.0,0.0,0.0,0.0,0.0,0.0,0.0,0.0,0.0,0.0,0.0,0.0,0.0,0.0,0.0,0.0,0.0,0.0,0.0,0.0,0.0,0.0,0.0,0.0,0.0,0.0,0.0,0.0,0.0,0.0,0.0,0.0,0.0,0.0,0.0,0.0,0.0,0.0,0.0,0.0,0.0,0.0,0.0,0.0,0.0,0.0,0.0,0.0,0.0,0.0,0.0,0.0,0.0,0.0,0.0,0.0,0.0,2.6599,2.6574,2.6261,2.5486,2.5535,2.488,2.3521,0.0,0.0,0.0,0.0,0.0,0.0,0.0,0.0,0.0,0.0,0.0,0.0,0.0,0.0,0.0,0.0,0.0,0.0,0.0,0.0,0.0,0.0,0.0,0.0,0.0,0.0,0.0,0.0,0.0,0.0,0.0,0.0,0.0,0.0,0.0,0.0,0.0,0.0,0.0,0.0,0.0,0.0,0.0,0.0,0.0,0.0,0.0,0.0,0.0,0.0,0.0,0.0,0.0,0.0,0.0,0.0,0.0,0.0,0.0,0.0,0.0,0.0,0.0,0.0,0.0,0.0,0.0,0.0,0.0,0.0,0.0,0.0,0.0,0.0,0.0,0.0,0.0,0.0,0.0,0.0,0.0,0.0,0.0,0.0,0.0,0.0,0.0,0.0,0.0,0.0,0.0,0.0,0.0,0.0,0.0,0.0,0.0,0.0,0.0,0.0,0.0,0.0,0.0,0.0,0.0,0.0,0.0,0.0,3.1161,3.0485,2.9462,2.8146,2.7917,2.6614,0.0,0.0,0.0,0.0,0.0,0.0,0.0,0.0,0.0,0.0,0.0,0.0,0.0,0.0,0.0,0.0,0.0,0.0,0.0,0.0,0.0,0.0,0.0,0.0,0.0,0.0,0.0,0.0,0.0,0.0,0.0,0.0,0.0,0.0,0.0,0.0,0.0,0.0,0.0,0.0,0.0,0.0,0.0,0.0,0.0,0.0,0.0,0.0,0.0,0.0,0.0,0.0,0.0,0.0,0.0,0.0,0.0,0.0,0.0,0.0,0.0,0.0,0.0,0.0,0.0,0.0,0.0,0.0,0.0,0.0,0.0,0.0,0.0,0.0,0.0,0.0,0.0,0.0,0.0,0.0,0.0,0.0,0.0,0.0,0.0,0.0,0.0,0.0,0.0,0.0,0.0,0.0,0.0,0.0,0.0,0.0,0.0,0.0,0.0,0.0,0.0,0.0,0.0,0.0,0.0,0.0,0.0,0.0,0.0,3.4572,3.5091,3.406,3.1481,2.9653,2.8012,0.0,0.0,0.0,0.0,0.0,0.0,0.0,0.0,0.0,0.0,0.0,0.0,0.0,0.0,0.0,0.0,0.0,0.0,0.0,0.0,0.0,0.0,0.0,0.0,0.0,0.0,0.0,0.0,0.0,0.0,0.0,0.0,0.0,0.0,0.0,0.0,0.0,0.0,0.0,0.0,0.0,0.0,0.0,0.0,0.0,0.0,0.0,0.0,0.0,0.0,0.0,0.0,0.0,0.0,0.0,0.0,0.0,0.0,0.0,0.0,0.0,0.0,0.0,0.0,0.0,0.0,0.0,0.0,0.0,0.0,0.0,0.0,0.0,0.0,0.0,0.0,0.0,0.0,0.0,0.0,0.0,0.0,0.0,0.0,0.0,0.0,0.0,0.0,0.0,0.0,0.0,0.0,0.0,0.0,0.0,0.0,0.0,0.0,0.0,0.0,0.0,0.0,0.0,0.0,0.0,0.0,0.0,0.0,3.4658,3.6434,3.7586,3.7435,3.5922,3.2822,3.0283,0.0,0.0,0.0,0.0,0.0,0.0,0.0,0.0,0.0,0.0,0.0,0.0,0.0,0.0,0.0,0.0,0.0,0.0,0.0,0.0,0.0,0.0,0.0,0.0,0.0,0.0,0.0,0.0,0.0,0.0,0.0,0.0,0.0,0.0,0.0,0.0,0.0,0.0,0.0,0.0,0.0,0.0,0.0,0.0,0.0,0.0,0.0,0.0,0.0,0.0,0.0,0.0,0.0,0.0,0.0,0.0,0.0,0.0,0.0,0.0,0.0,0.0,0.0,0.0,0.0,0.0,0.0,0.0,0.0,0.0,0.0,0.0,0.0,0.0,0.0,0.0,0.0,0.0,0.0,0.0,0.0,0.0,0.0,0.0,0.0,0.0,0.0,0.0,0.0,0.0,0.0,0.0,0.0,0.0,0.0,0.0,0.0,0.0,0.0,0.0,0.0,0.0,0.0,0.0,0.0,0.0,0.0,0.0,3.604,3.7478,3.8962,3.9974,4.0414,3.6384,3.2842,0.0,0.0,0.0,0.0,0.0,0.0,0.0,0.0,0.0,0.0,0.0,0.0,0.0,0.0,0.0,0.0,0.0,0.0,0.0,0.0,0.0,0.0,0.0,0.0,0.0,0.0,0.0,0.0,0.0,0.0,0.0,0.0,0.0,0.0,0.0,0.0,0.0,0.0,0.0,0.0,0.0,0.0,0.0,0.0,0.0,0.0,0.0,0.0,0.0,0.0,0.0,0.0,0.0,0.0,0.0,0.0,0.0,0.0,0.0,0.0,0.0,0.0,0.0,0.0,0.0,0.0,0.0,0.0,0.0,0.0,0.0,0.0,0.0,0.0,0.0,0.0,0.0,0.0,0.0,0.0,0.0,0.0,0.0,0.0,0.0,0.0,0.0,0.0,0.0,0.0,0.0,0.0,0.0,0.0,0.0,0.0,0.0,0.0,0.0,0.0,0.0,0.0,0.0,0.0,0.0,0.0,0.0,0.0,3.7791,4.0034,4.1685,4.2464,4.2324,3.7064,3.3529,0.0,0.0,0.0,0.0,0.0,0.0,0.0,0.0,0.0,0.0,0.0,0.0,0.0,0.0,0.0,0.0,0.0,0.0,0.0,0.0,0.0,0.0,0.0,0.0,0.0,0.0,0.0,0.0,0.0,0.0,0.0,0.0,0.0,0.0,0.0,0.0,0.0,0.0,0.0,0.0,0.0,0.0,0.0,0.0,0.0,0.0,0.0,0.0,3.1098,0.0,0.0,0.0,0.0,0.0,0.0,0.0,0.0,0.0,0.0,0.0,0.0,0.0,0.0,0.0,0.0,0.0,0.0,0.0,0.0,0.0,0.0,0.0,0.0,0.0,0.0,0.0,0.0,0.0,0.0,0.0,0.0,0.0,0.0,0.0,0.0,0.0,0.0,0.0,0.0,0.0,0.0,0.0,0.0,0.0,0.0,0.0,0.0,0.0,0.0,0.0,0.0,0.0,0.0,0.0,0.0,0.0,0.0,0.0,3.8851,4.0956,4.2742,4.3588,4.3282,3.944,3.6158,0.0,0.0,0.0,0.0,0.0,0.0,0.0,0.0,0.0,0.0,0.0,0.0,0.0,0.0,0.0,0.0,0.0,0.0,0.0,0.0,0.0,0.0,0.0,0.0,0.0,0.0,0.0,0.0,0.0,0.0,0.0,0.0,0.0,0.0,0.0,0.0,0.0,0.0,0.0,0.0,0.0,0.0,0.0,0.0,0.0,0.0,0.0,0.0,0.0,0.0,0.0,0.0,0.0,0.0,0.0,0.0,0.0,0.0,0.0,0.0,0.0,0.0,0.0,0.0,0.0,0.0,0.0,0.0,0.0,0.0,0.0,0.0,0.0,0.0,0.0,0.0,0.0,0.0,0.0,0.0,0.0,0.0,0.0,0.0,0.0,0.0,0.0,0.0,0.0,0.0,0.0,0.0,0.0,0.0,0.0,0.0,0.0,0.0,0.0,0.0,0.0,0.0,0.0,0.0,0.0,0.0,0.0,3.7457,3.9608,4.1628,4.3395,4.4304,4.4179,4.204,3.9061,3.5216,0.0,0.0,0.0,0.0,0.0,0.0,0.0,0.0,0.0,0.0,0.0,0.0,0.0,0.0,0.0,0.0,0.0,0.0,0.0,0.0,0.0,0.0,0.0,0.0,0.0,0.0,0.0,0.0,0.0,0.0,0.0,0.0,0.0,0.0,0.0,0.0,0.0,0.0,2.7502,2.8062,0.0,0.0,0.0,0.0,0.0,0.0,0.0,0.0,3.2441,0.0,0.0,0.0,0.0,0.0,0.0,0.0,0.0,0.0,0.0,0.0,0.0,0.0,0.0,0.0,0.0,0.0,0.0,0.0,0.0,0.0,0.0,0.0,0.0,0.0,0.0,0.0,0.0,0.0,0.0,0.0,0.0,0.0,0.0,0.0,0.0,0.0,0.0,0.0,0.0,0.0,0.0,0.0,0.0,0.0,0.0,0.0,0.0,0.0,0.0,0.0,0.0,0.0,0.0,0.0,0.0,3.6838,3.8078,4.0489,4.411,4.5211,4.5617,4.5289,4.2872,3.9787,3.6111,0.0,0.0,0.0,0.0,0.0,0.0,0.0,0.0,0.0,0.0,0.0,0.0,0.0,0.0,0.0,0.0,0.0,0.0,0.0,0.0,0.0,0.0,0.0,0.0,0.0,0.0,0.0,0.0,0.0,0.0,0.0,0.0,0.0,0.0,0.0,0.0,0.0,0.0,0.0,2.9142,2.9363,0.0,0.0,0.0,0.0,0.0,0.0,0.0,0.0,3.3706,0.0,0.0,0.0,0.0,0.0,0.0,0.0,0.0,0.0,0.0,0.0,0.0,0.0,0.0,0.0,0.0,0.0,0.0,0.0,0.0,0.0,0.0,0.0,0.0,0.0,0.0,0.0,0.0,0.0,0.0,0.0,0.0,0.0,0.0,0.0,0.0,0.0,0.0,0.0,0.0,0.0,0.0,0.0,0.0,0.0,0.0,0.0,0.0,0.0,0.0,0.0,0.0,0.0,0.0,0.0,3.7337,3.9549,4.198,4.4795,4.584,4.6279,4.6067,4.3004,3.9881,0.0,0.0,0.0,0.0,0.0,0.0,0.0,0.0,0.0,0.0,0.0,0.0,0.0,0.0,0.0,0.0,0.0,0.0,0.0,0.0,0.0,0.0,0.0,0.0,0.0,0.0,0.0,0.0,0.0,0.0,0.0,0.0,0.0,0.0,0.0,0.0,0.0,0.0,0.0,0.0,3.0663,3.1272,3.4208,0.0,0.0,0.0,0.0,0.0,0.0,3.5328,3.503,0.0,0.0,0.0,0.0,0.0,0.0,0.0,0.0,0.0,0.0,0.0,0.0,0.0,0.0,0.0,0.0,0.0,0.0,0.0,0.0,0.0,0.0,0.0,0.0,0.0,0.0,0.0,0.0,0.0,0.0,0.0,0.0,0.0,0.0,0.0,0.0,0.0,0.0,0.0,0.0,0.0,0.0,0.0,0.0,0.0,0.0,0.0,0.0,0.0,0.0,0.0,0.0,0.0,0.0,0.0,3.7838,4.072,4.3295,4.5384,4.6375,4.6843,4.6813,4.3006,3.9721,0.0,0.0,0.0,0.0,0.0,0.0,0.0,0.0,0.0,0.0,0.0,0.0,0.0,0.0,0.0,0.0,0.0,0.0,0.0,0.0,0.0,0.0,0.0,0.0,0.0,0.0,0.0,0.0,0.0,0.0,0.0,0.0,0.0,0.0,0.0,0.0,0.0,0.0,0.0,0.0,0.0,3.3493,3.6661,3.5238,0.0,0.0,0.0,0.0,3.5504,3.6637,0.0,0.0,0.0,0.0,0.0,0.0,0.0,0.0,0.0,0.0,0.0,0.0,0.0,0.0,0.0,0.0,0.0,0.0,0.0,0.0,0.0,0.0,0.0,0.0,0.0,0.0,0.0,0.0,0.0,0.0,0.0,0.0,0.0,0.0,0.0,0.0,0.0,0.0,0.0,0.0,0.0,0.0,0.0,0.0,0.0,0.0,0.0,0.0,0.0,0.0,0.0,0.0,0.0,0.0,0.0,0.0,3.868,4.0631,4.3398,4.6905,4.7409,4.7652,4.7761,4.3097,3.9503,0.0,0.0,0.0,0.0,0.0,0.0,0.0,0.0,0.0,0.0,0.0,0.0,0.0,0.0,0.0,0.0,0.0,0.0,0.0,0.0,0.0,0.0,0.0,0.0,0.0,0.0,0.0,0.0,0.0,0.0,0.0,0.0,0.0,0.0,0.0,0.0,0.0,0.0,0.0,0.0,0.0,3.4998,3.7672,3.6599,3.5601,0.0,0.0,3.8099,3.823,4.0713,0.0,0.0,0.0,0.0,0.0,0.0,0.0,0.0,0.0,0.0,0.0,0.0,0.0,0.0,0.0,0.0,0.0,0.0,0.0,0.0,0.0,0.0,0.0,0.0,0.0,0.0,0.0,0.0,0.0,0.0,0.0,0.0,0.0,0.0,0.0,0.0,0.0,0.0,0.0,0.0,0.0,0.0,0.0,0.0,0.0,0.0,0.0,0.0,0.0,0.0,0.0,0.0,0.0,0.0,0.0,3.6383,3.9028,4.1716,4.4535,4.7437,4.7745,4.7887,4.7993,4.268,3.9031,0.0,0.0,0.0,0.0,0.0,0.0,0.0,0.0,0.0,0.0,0.0,0.0,0.0,0.0,0.0,0.0,0.0,0.0,0.0,0.0,0.0,0.0,0.0,0.0,0.0,0.0,0.0,0.0,0.0,0.0,0.0,0.0,0.0,0.0,0.0,0.0,0.0,0.0,0.0,0.0,0.0,0.0,3.7958,3.7938,0.0,0.0,0.0,4.0015,3.878,0.0,0.0,0.0,0.0,0.0,0.0,0.0,0.0,0.0,0.0,0.0,0.0,0.0,0.0,0.0,0.0,0.0,0.0,0.0,0.0,0.0,0.0,0.0,0.0,0.0,0.0,0.0,0.0,0.0,0.0,0.0,0.0,0.0,0.0,0.0,0.0,0.0,0.0,0.0,0.0,0.0,0.0,0.0,0.0,0.0,0.0,0.0,0.0,0.0,0.0,0.0,0.0,0.0,0.0,0.0,0.0,0.0,3.925,4.2742,4.5672,4.787,4.8146,4.8252,4.8152,4.3417,0.0,0.0,0.0,0.0,0.0,0.0,0.0,0.0,0.0,0.0,0.0,0.0,0.0,0.0,0.0,0.0,0.0,0.0,0.0,0.0,0.0,0.0,0.0,0.0,0.0,0.0,0.0,2.6075,0.0,0.0,0.0,0.0,0.0,0.0,0.0,0.0,0.0,0.0,0.0,0.0,0.0,0.0,3.7791,3.8681,3.9399,4.0179,0.0,0.0,4.1674,4.0582,4.3727,4.4778,0.0,0.0,0.0,0.0,0.0,0.0,0.0,0.0,0.0,0.0,0.0,0.0,0.0,0.0,0.0,0.0,0.0,0.0,0.0,0.0,0.0,0.0,0.0,0.0,0.0,0.0,0.0,0.0,0.0,0.0,0.0,0.0,0.0,0.0,0.0,0.0,0.0,0.0,0.0,0.0,0.0,0.0,0.0,0.0,0.0,0.0,0.0,0.0,0.0,0.0,0.0,0.0,0.0,0.0,0.0,3.9472,4.3253,4.6343,4.861,4.8857,4.8929,4.8897,4.6354,4.2523,0.0,0.0,0.0,0.0,0.0,0.0,0.0,0.0,0.0,0.0,0.0,0.0,0.0,0.0,0.0,0.0,0.0,0.0,0.0,0.0,0.0,0.0,0.0,0.0,0.0,0.0,0.0,0.0,0.0,0.0,0.0,0.0,0.0,0.0,0.0,0.0,0.0,0.0,0.0,0.0,0.0,3.9953,4.0355,4.1037,4.237,0.0,4.3536,4.2944,4.523,4.8407,4.8806,4.3296,0.0,0.0,0.0,0.0,0.0,0.0,0.0,0.0,0.0,0.0,0.0,0.0,0.0,0.0,0.0,0.0,0.0,0.0,0.0,0.0,0.0,0.0,0.0,0.0,0.0,0.0,0.0,0.0,0.0,0.0,0.0,0.0,0.0,0.0,0.0,0.0,0.0,0.0,0.0,0.0,0.0,0.0,0.0,0.0,0.0,0.0,0.0,0.0,0.0,0.0,0.0,0.0,0.0,3.8498,3.9629,4.3384,4.6442,4.8788,4.8994,4.8994,4.8994,4.6577,4.2935,0.0,0.0,0.0,0.0,0.0,0.0,0.0,0.0,0.0,0.0,0.0,0.0,0.0,0.0,0.0,0.0,0.0,0.0,0.0,0.0,0.0,0.0,0.0,0.0,0.0,0.0,0.0,0.0,3.0519,3.0745,3.0322,0.0,0.0,0.0,0.0,0.0,0.0,0.0,0.0,0.0,0.0,4.155,4.3261,4.4211,0.0,0.0,4.6132,4.5743,4.5337,4.7291,4.7313,4.2782,4.1466,0.0,0.0,0.0,0.0,0.0,0.0,0.0,0.0,0.0,0.0,0.0,0.0,0.0,0.0,0.0,0.0,0.0,0.0,0.0,0.0,0.0,0.0,0.0,0.0,0.0,0.0,0.0,0.0,0.0,0.0,0.0,0.0,0.0,0.0,0.0,0.0,0.0,0.0,0.0,0.0,0.0,0.0,0.0,0.0,0.0,0.0,0.0,0.0,0.0,0.0,0.0,0.0,3.8873,3.9722,4.3834,4.6998,4.8961,4.9188,4.9317,4.9285,4.7387,4.4249,0.0,0.0,0.0,0.0,0.0,0.0,0.0,0.0,0.0,0.0,0.0,0.0,0.0,0.0,0.0,0.0,0.0,0.0,0.0,0.0,0.0,0.0,0.0,0.0,0.0,0.0,0.0,0.0,3.2034,3.2174,3.1388,0.0,0.0,0.0,0.0,0.0,0.0,0.0,0.0,0.0,0.0,4.3617,4.4505,4.5587,4.6365,4.6537,4.6507,4.6261,4.571,4.6527,4.6329,4.3855,0.0,0.0,0.0,0.0,0.0,0.0,0.0,0.0,0.0,0.0,0.0,0.0,0.0,0.0,0.0,0.0,0.0,0.0,0.0,0.0,0.0,0.0,0.0,0.0,0.0,0.0,0.0,1.7823,0.0,0.0,1.8655,0.0,0.0,0.0,0.0,0.0,0.0,0.0,0.0,0.0,0.0,0.0,0.0,0.0,0.0,0.0,0.0,0.0,0.0,0.0,0.0,0.0,0.0,3.9471,3.9754,4.4898,4.8071,4.8961,4.971,5.0066,5.0066,4.9317,4.7039,4.3036,0.0,0.0,0.0,0.0,0.0,0.0,0.0,0.0,0.0,0.0,0.0,0.0,0.0,0.0,0.0,0.0,0.0,0.0,0.0,0.0,0.0,0.0,0.0,0.0,0.0,0.0,2.882,3.0649,3.2161,0.0,0.0,0.0,0.0,0.0,0.0,0.0,0.0,0.0,0.0,4.3208,4.6291,4.3553,4.4526,4.5737,4.6074,4.4226,4.3791,4.6945,4.6892,4.6778,0.0,0.0,0.0,0.0,0.0,0.0,0.0,0.0,0.0,0.0,0.0,0.0,0.0,0.0,0.0,0.0,0.0,0.0,0.0,0.0,0.0,0.0,0.0,0.0,0.0,0.0,0.0,2.1844,2.1783,0.0,0.0,0.0,0.0,0.0,0.0,0.0,0.0,0.0,0.0,0.0,2.8473,2.9093,0.0,0.0,0.0,0.0,0.0,0.0,0.0,0.0,0.0,0.0,0.0,0.0,3.9659,4.0068,4.503,4.8103,4.8994,4.9742,5.0131,5.0098,4.9872,4.7619,4.3096,0.0,0.0,0.0,0.0,0.0,0.0,0.0,0.0,0.0,0.0,0.0,0.0,0.0,0.0,0.0,0.0,0.0,0.0,0.0,0.0,0.0,0.0,0.0,0.0,0.0,3.1736,0.0,0.0,0.0,0.0,0.0,0.0,0.0,0.0,0.0,0.0,0.0,3.9662,4.1314,4.3255,4.4729,4.5304,4.6021,4.7094,0.0,0.0,0.0,0.0,0.0,0.0,0.0,0.0,0.0,0.0,0.0,0.0,0.0,0.0,4.6985,4.3698,4.4667,4.6114,4.6322,0.0,0.0,0.0,0.0,0.0,0.0,0.0,0.0,0.0,0.0,0.0,0.0,0.0,0.0,2.3936,0.0,2.3944,0.0,0.0,0.0,0.0,0.0,0.0,0.0,0.0,2.8814,3.0265,3.0987,3.1661,3.2296,0.0,3.2807,3.2102,0.0,0.0,0.0,0.0,0.0,0.0,0.0,0.0,4.0006,4.08,4.558,4.853,4.935,5.0131,5.0487,5.0487,5.0154,4.8128,4.4245,4.0986,3.7717,0.0,0.0,0.0,0.0,0.0,0.0,0.0,0.0,0.0,0.0,0.0,0.0,0.0,0.0,0.0,0.0,0.0,0.0,0.0,0.0,0.0,0.0,0.0,3.374,0.0,0.0,0.0,0.0,0.0,0.0,0.0,0.0,0.0,3.8513,4.0447,4.2612,4.4268,4.5281,4.5894,4.5927,0.0,0.0,0.0,0.0,0.0,0.0,0.0,4.4919,4.4598,4.5312,4.6778,4.9294,5.0785,5.1805,5.2242,0.0,0.0,4.8383,4.9139,5.0544,5.0793,5.1238,5.1645,5.1815,5.2294,5.2773,0.0,0.0,0.0,0.0,0.0,0.0,0.0,0.0,2.4814,2.4649,0.0,2.4695,0.0,0.0,0.0,0.0,2.5219,2.6565,0.0,0.0,3.1807,3.2837,3.2567,3.3272,3.3697,3.3808,3.4011,3.4067,3.4036,3.3104,0.0,0.0,0.0,0.0,0.0,0.0,4.0641,4.214,4.6617,4.9354,5.0066,5.0811,5.1205,5.1167,5.0268,4.8762,4.6529,4.3402,4.0854,3.9024,3.4932,0.0,0.0,0.0,0.0,0.0,0.0,0.0,0.0,0.0,0.0,0.0,0.0,0.0,0.0,0.0,0.0,0.0,0.0,0.0,0.0,3.4655,0.0,0.0,0.0,0.0,0.0,0.0,0.0,0.0,0.0,0.0,4.0447,4.3485,4.6045,4.6063,0.0,0.0,0.0,0.0,4.8214,4.4947,4.3651,4.3582,4.4604,4.6012,4.8061,5.1228,0.0,0.0,5.71,5.5401,5.4314,5.5221,5.7513,5.7715,5.3735,5.3795,5.4447,5.4629,5.4815,5.4753,5.4957,5.5551,5.5546,2.7636,0.0,0.0,0.0,0.0,2.6585,2.7259,2.8158,2.8158,2.8115,2.8092,2.8145,0.0,0.0,0.0,0.0,0.0,0.0,3.0181,3.1559,3.3282,3.4321,3.4775,3.5455,3.6134,3.6751,3.6812,3.7092,3.7592,3.7312,3.6158,3.421,0.0,0.0,0.0,0.0,4.1533,4.3202,4.698,4.9386,5.0098,5.0811,5.1237,5.1205,5.03,4.9405,4.861,4.6629,4.4211,4.1437,3.9152,0.0,0.0,0.0,0.0,0.0,0.0,0.0,0.0,0.0,0.0,0.0,0.0,0.0,0.0,0.0,0.0,0.0,0.0,0.0,3.5274,3.7535,3.8229,0.0,0.0,0.0,0.0,0.0,0.0,0.0,0.0,0.0,4.609,4.5051,4.4445,0.0,0.0,4.456,4.3893,4.6197,4.8501,4.9886,4.9872,0.0,5.3529,5.2922,5.2679,5.4433,5.7287,5.9509,5.9987,6.1344,6.2539,6.3003,6.3782,6.3942,6.2956,6.1894,6.141,6.1563,6.2015,6.2523,6.2707,6.314,6.3572,3.1151,3.0316,2.8783,2.8191,2.8258,2.856,2.9358,3.0483,3.037,3.0248,3.0117,3.025,2.9459,2.791,2.8238,0.0,0.0,0.0,3.2074,3.3644,3.4534,3.5578,3.6598,3.7125,3.7748,3.8498,3.856,3.8843,3.925,3.925,3.8654,3.748,0.0,0.0,3.7968,4.038,4.2655,4.4781,4.7532,4.9515,5.0519,5.0973,5.1237,5.1167,5.0559,5.0016,4.9507,4.8227,4.6439,4.4114,4.267,4.0814,0.0,0.0,0.0,0.0,0.0,0.0,0.0,0.0,0.0,0.0,0.0,3.3572,3.2276,0.0,0.0,0.0,3.7118,3.7694,3.8207,3.9461,0.0,0.0,0.0,0.0,0.0,0.0,0.0,4.3072,4.6698,4.9354,4.9538,4.8201,4.7537,4.8384,4.7808,4.7484,4.7891,0.0,5.2387,5.4228,5.4309,5.4907,5.7052,5.7116,5.7493,5.956,6.1439,6.2826,6.3223,6.4845,6.6238,6.6918,6.7385,6.7771,6.8278,6.7813,6.6932,6.586,6.6012,6.6447,6.6558,6.7257,6.7918,3.4651,3.4195,3.0469,2.9198,2.9597,3.0107,3.0943,3.1979,3.1776,3.1416,3.1018,3.1477,3.0451,2.8425,2.9236,0.0,3.1576,3.2355,3.3735,3.5706,3.5857,3.666,3.806,3.8278,3.8748,3.9408,3.9535,3.9661,3.9787,3.9787,4.023,4.1055,3.9754,3.9405,4.0132,4.1724,4.3943,4.6746,4.8243,4.9706,5.1172,5.1237,5.1199,5.1264,5.1043,5.053,4.9699,4.8775,4.7844,4.6837,4.5447,4.4059,4.2629,0.0,0.0,0.0,0.0,0.0,0.0,0.0,0.0,0.0,0.0,0.0,0.0,0.0,0.0,0.0,4.0117,0.0,4.2099,4.1144,0.0,0.0,0.0,4.3098,4.6035,4.7589,4.8687,4.9346,0.0,0.0,5.1599,5.2467,5.3816,5.566,5.55,5.5121,5.4844,5.6692,5.8341,5.785,5.7629,5.7451,5.8313,6.0006,6.2392,6.5147,6.6134,6.6118,6.6327,6.6545,6.7053,6.8034,6.8871,6.9708,7.0746,7.1398,7.127,6.8224,6.7808,6.7881,6.8086,6.8762,6.9365,3.4911,3.4587,3.3627,3.3093,3.2874,3.2997,3.3211,3.3455,3.3425,3.3335,3.3213,3.3365,3.3091,3.2543,3.2898,3.3562,3.4507,3.4778,3.5824,3.7375,3.7437,3.7997,3.8968,3.9031,3.9503,4.026,4.0292,4.0893,4.1938,4.2037,4.2419,4.3015,4.3642,4.3391,4.2461,4.3359,4.5064,4.7452,4.8357,4.9595,5.1135,5.1237,5.1426,5.1944,5.1301,5.1019,5.1302,4.9961,4.8998,4.8574,4.7241,4.6212,4.5714,4.4547,0.0,0.0,0.0,0.0,0.0,0.0,0.0,0.0,0.0,3.6524,3.4343,0.0,3.9166,0.0,4.3264,4.566,4.6015,4.5891,0.0,0.0,4.5691,4.6563,4.8232,5.0697,5.1778,5.0495,5.3302,5.5466,5.5731,5.7185,5.9109,6.1372,5.7585,5.482,5.5679,5.7894,5.9779,6.0689,6.2095,6.3591,6.4401,6.5824,6.703,6.7895,6.8115,6.8208,6.8255,6.896,6.9588,6.995,7.0818,7.1567,7.1953,7.2261,7.2244,7.1559,7.1351,7.1332,7.1443,7.1647,7.1887,3.5992,3.5784,3.5756,3.5518,3.5156,3.4393,3.4272,3.4546,3.4455,3.4455,3.4455,3.4121,3.403,3.412,3.4544,3.5246,3.6075,3.6537,3.7374,3.856,3.856,3.9031,3.9881,3.9881,4.0481,4.1525,4.1525,4.2161,4.321,4.3343,4.392,4.504,4.5736,4.5936,4.5739,4.5872,4.6875,4.872,4.9789,5.0892,5.2074,5.2139,5.2333,5.2689,5.2217,5.2101,5.2377,5.1527,5.0955,5.0753,4.9987,4.9407,4.8974,4.785,4.6761,0.0,0.0,0.0,0.0,0.0,0.0,0.0,0.0,0.0,0.0,0.0,4.1931,4.2734,4.6364,4.852,4.8073,4.8222,4.8501,4.8941,4.956,5.0729,5.2818,5.4946,5.6005,5.5409,5.7745,5.9567,5.9881,6.1242,6.2749,6.4433,6.2197,6.0368,6.0481,6.1782,6.3221,6.4714,6.6129,6.7502,6.8692,6.9432,6.9849,6.9873,6.992,6.999,7.0105,7.0616,7.1072,7.1325,7.2154,7.2884,7.3021,7.3421,7.3763,7.3893,7.3911,7.3588,7.2976,7.3212,7.3581,3.7208,3.7178,3.7059,3.6938,3.6631,3.5184,3.485,3.537,3.5247,3.5216,3.5186,3.4577,3.4394,3.4544,3.5399,3.6198,3.7002,3.7779,3.8654,3.944,3.9471,3.9913,4.0735,4.0798,4.1525,4.2663,4.2823,4.3305,4.4111,4.4179,4.5085,4.6743,4.6907,4.7652,4.8872,4.8663,4.9058,5.0191,5.1523,5.256,5.3265,5.3168,5.3233,5.3434,5.3369,5.3291,5.3197,5.3093,5.2949,5.2749,5.2717,5.2461,5.1844,5.1047,5.0037,0.0,4.793,0.0,0.0,0.0,0.0,0.0,0.0,0.0,0.0,4.3793,4.4823,4.666,4.9322,5.0557,4.9742,5.0057,5.1094,5.2999,5.3766,5.5191,5.794,5.9245,6.0274,6.1138,6.2335,6.3148,6.3266,6.447,6.5376,6.5967,6.6947,6.707,6.6523,6.6446,6.7176,6.8916,6.9358,6.973,7.0685,7.1152,7.1261,7.1261,7.1233,7.1453,7.1584,7.1823,7.203,7.2381,7.3149,7.3837,7.3972,7.4695,7.5245,7.533,7.54,7.5013,7.3904,7.4117,7.465,3.7329,3.7178,3.718,3.7059,3.6907,3.6597,3.6383,3.6261,3.623,3.6199,3.6199,3.6076,3.6045,3.6138,3.6971,3.7499,3.7842,3.8654,3.9503,4.0356,4.0356,4.0734,4.143,4.1999,4.2442,4.2726,4.3402,4.414,4.4808,4.512,4.5961,4.7269,4.8135,4.8885,4.9646,0.0,0.0,0.0,5.1706,5.256,5.3272,5.2721,5.2981,5.4114,5.3628,0.0,5.4067,5.3549,5.3147,5.2949,5.2949,0.0,0.0,0.0,0.0,0.0,0.0,0.0,0.0,0.0,0.0,0.0,4.6977,4.6617,4.5702,4.6776,4.8389,5.0359,5.1463,5.264,5.4262,5.5144,5.5928,5.6678,5.8015,5.9253,6.0113,6.1179,6.2038,6.2343,6.3406,6.4156,6.4452,6.5878,6.7081,6.751,6.8663,6.936,6.931,6.9219,6.9541,7.0143,7.0546,7.0908,7.1345,7.1528,7.1626,7.1476,7.1636,7.1764,7.1839,7.2585,7.3154,7.3338,7.42,7.4867,7.4979,7.5333,7.5514,7.5566,7.5785,7.5795,7.5372,7.5472,7.5716,3.764,3.7834,3.7834,3.7963,0.0,3.8122,3.7997,3.7778,3.728,3.728,3.7651,3.7746,3.7778,3.7809,3.8309,3.8779,3.9187,3.9691,4.0355,4.1083,4.1083,4.1462,4.2157,4.2505,4.311,4.3844,4.4265,4.4944,4.5789,4.6349,4.7162,4.8192,4.8973,4.9918,5.0984,5.2521,5.3071,5.2637,5.3071,5.3628,5.4308,5.3984,5.4146,5.4859,5.4924,0.0,0.0,0.0,0.0,0.0,0.0,0.0,0.0,5.3616,0.0,5.2901,5.2076,5.141,5.0928,5.0655,5.0816,5.1545,5.286,5.2419,4.9618,5.1422,5.3402,5.4984,5.5776,5.6632,5.7857,5.8655,5.9145,5.9459,6.0324,6.119,6.2018,6.2639,6.3227,6.3912,6.4628,6.524,6.5824,6.6916,6.7969,6.8734,6.9806,7.0604,7.0707,7.0487,7.0511,7.1246,7.2,7.252,7.2712,7.2852,7.2921,7.2943,7.3078,7.3188,7.321,7.3758,7.421,7.433,7.4848,7.5264,7.5374,7.5514,7.5616,7.5715,7.5895,7.6005,7.6024,7.6118,7.6145,3.8047,3.8557,3.8619,3.8935,3.9314,3.9345,3.9313,3.9247,0.0,0.0,0.0,3.9026,3.909,3.9121,3.9376,3.9785,4.0319,4.0639,4.1146,4.1778,4.1778,4.2189,4.2853,4.3045,4.3781,4.4967,4.5324,4.5949,4.6808,4.7584,4.8365,4.9188,4.9623,5.0655,5.2288,5.3686,5.447,5.4567,5.447,5.4729,5.5377,5.528,5.5377,5.5604,5.6187,5.6251,5.583,5.6381,5.6413,5.583,5.5798,5.5798,5.5766,5.5084,5.4712,5.468,5.3995,5.3608,5.3656,5.3454,5.4137,5.6188,5.7965,5.7493,5.4092,5.6062,5.7926,5.8942,5.9738,6.0231,6.0489,6.0994,6.1353,6.1531,6.1917,6.2614,6.362,6.4035,6.4554,6.5419,6.5996,6.6574,6.7433,6.8094,6.8807,6.9821,7.0906,7.1637,7.1756,7.1484,7.1468,7.2383,7.3131,7.3776,7.4019,7.4168,7.438,7.4252,7.44,7.4584,7.4691,7.4854,7.4955,7.4942,7.5189,7.545,7.5709,7.5889,7.595,7.6248,7.6408,7.6539,7.6714,7.6802,7.6761,3.8647,3.878,3.9188,3.9408,3.9471,3.9471,3.9724,4.0066,3.9247,3.8933,3.9058,3.909,3.909,3.9121,3.9814,4.0225,4.0351,4.1112,4.1841,4.2505,4.2537,4.2916,4.3579,4.4354,4.4773,4.5129,4.6561,4.738,4.7612,4.8401,4.9188,4.9835,4.9849,5.087,5.281,5.3905,5.4697,5.5247,5.4697,5.4729,5.5377,5.4859,5.515,5.6284,5.6446,5.677,5.7297,5.7352,5.7385,5.7288,5.7288,5.7255,5.7255,5.7126,5.7126,5.7051,5.6237,5.5965,5.6336,5.6124,5.6662,5.8269,5.892,5.8879,5.8386,5.8969,5.9578,5.9941,6.0299,6.056,6.0928,6.1765,6.2361,6.2576,6.3555,6.4391,6.46,6.5538,6.633,6.6705,6.7507,6.8187,6.8775,6.9624,7.0324,7.106,7.1913,7.2768,7.306,7.3112,7.3152,7.3529,7.3813,7.408,7.4379,7.4395,7.456,7.4476,7.4698,7.4939,7.5081,7.5165,7.5246,7.5284,7.5547,7.5862,7.6522,7.6788,7.7115,7.7677,7.7983,7.8191,7.8233,7.8452,7.8243,3.947,3.9787,4.0008,4.0293,4.064,4.064,4.0766,4.0985,4.0604,4.0413,4.0314,4.0413,4.0478,4.0509,4.0858,4.1016,4.1048,4.1808,4.2378,4.2695,4.3074,4.3611,4.4243,4.477,4.5483,4.6323,4.7212,4.7902,4.8289,4.9038,4.9554,4.9829,5.0928,5.2255,5.3576,5.4479,5.5118,5.5409,5.5118,5.528,5.596,5.5701,5.6025,5.7061,5.745,5.7611,5.7621,5.7935,5.7968,5.7654,5.7589,5.7589,5.7589,5.7589,5.7664,5.7758,5.7339,5.7303,5.7666,5.8125,5.8774,5.9624,6.0311,6.0784,6.0936,6.0728,6.0854,6.1452,6.1824,6.2124,6.2385,6.2912,6.3409,6.3764,6.4743,6.5442,6.5855,6.6759,6.7486,6.7787,6.8395,6.9137,6.9878,7.0536,7.1296,7.206,7.2832,7.3361,7.369,7.379,7.3826,7.3912,7.4033,7.4399,7.4884,7.5155,7.5431,7.5852,7.61,7.6242,7.6324,7.6406,7.6503,7.6636,7.6782,7.7058,7.762,7.7735,7.8007,7.8254,7.858,7.8733,7.8912,7.9117,7.9041,4.0388,4.083,4.083,4.1114,4.1588,4.1588,4.1588,4.1588,4.1588,4.1522,4.139,4.1522,4.1588,4.1588,4.1588,4.1683,4.1904,4.241,4.2853,4.32,4.3706,4.4271,4.4907,4.5179,4.5992,4.7357,4.7927,4.8454,4.8997,4.9673,4.9973,5.0135,5.2123,5.3464,5.401,5.5084,5.5586,5.5668,5.583,5.6089,5.6478,5.664,5.7093,5.7806,5.8324,5.8453,5.8097,5.8583,5.8615,5.8097,5.8065,5.8065,5.8065,5.815,5.8203,5.8372,5.8414,5.8582,5.8938,5.977,6.0495,6.0946,6.181,6.2533,6.2826,6.2542,6.2489,6.3051,6.3357,6.3761,6.4122,6.4447,6.4738,6.5198,6.5864,6.6458,6.7003,6.7876,6.8538,6.8834,6.9389,7.0126,7.0864,7.1427,7.207,7.2966,7.3476,7.3728,7.3875,7.409,7.416,7.4183,7.4206,7.4546,7.5321,7.5513,7.5965,7.6899,7.7085,7.7206,7.7417,7.7741,7.789,7.7847,7.8024,7.8289,7.8583,7.8754,7.896,7.9278,7.9519,7.9557,7.9805,7.9796,7.9715,4.1183,4.1495,4.1462,4.1525,4.1588,4.1588,4.1588,4.1588,4.1588,4.1588,4.1555,4.1588,4.162,4.1588,4.162,4.1968,4.2537,4.2663,4.3358,4.4401,4.4591,4.5001,4.5634,4.5932,4.6561,4.7517,4.8872,4.9558,4.9705,5.0408,5.089,5.128,5.2812,5.367,5.3935,5.532,5.6205,5.6413,5.7029,5.7093,5.6575,5.7126,5.7806,5.8518,5.8572,5.8896,5.9393,5.9587,5.9587,5.9522,5.949,5.949,5.949,5.9708,5.987,5.9881,6.0053,6.0351,6.0837,6.1086,6.1781,6.2791,6.3134,6.3712,6.4489,6.4913,6.4873,6.45,6.4484,6.4951,6.5867,6.6236,6.6422,6.6637,6.7164,6.758,6.8021,6.8827,6.9656,7.017,7.0827,7.1715,7.2123,7.265,7.3172,7.3715,7.4011,7.4141,7.4191,7.4305,7.4454,7.4563,7.4563,7.4622,7.5019,7.5005,7.5698,7.6541,7.6731,7.7166,7.7823,7.8135,7.8218,7.8577,7.8628,7.8984,7.9618,7.9983,8.0254,8.064,8.0981,8.13,8.1555,8.1168,8.0605,4.1596,4.1588,4.1588,4.1588,4.1588,4.1588,4.1588,4.1588,4.1588,4.1588,4.1652,4.2031,4.1999,4.162,4.2031,4.241,4.2758,4.3516,4.4148,4.4749,4.5159,4.5539,4.5792,4.6059,4.6848,4.8066,4.9227,4.9973,5.0288,5.0728,5.1463,5.2472,5.3223,5.3825,5.4397,5.5609,5.6218,5.6376,5.7527,5.8032,5.7796,5.8065,5.8551,5.9155,5.9295,5.9393,5.9684,5.9673,5.9673,5.9749,6.0137,6.0214,5.9968,6.0413,6.0816,6.1109,6.1762,6.225,6.2547,6.2766,6.3232,6.3985,6.422,6.4636,6.5226,6.5607,6.5834,6.6052,6.5821,6.5907,6.6591,6.6844,6.7059,6.7515,6.8179,6.8701,6.897,7.0045,7.0834,7.1096,7.1715,7.2285,7.2816,7.3744,7.4275,7.4352,7.459,7.4944,7.4617,7.4632,7.4737,7.4877,7.4899,7.5225,7.5626,7.5855,7.6351,7.7108,7.752,7.7833,7.8129,7.8385,7.8589,7.9219,7.9404,7.9852,8.0728,8.0915,8.1176,8.1589,8.1726,8.1835,8.2026,8.1837,8.1476,4.1784,4.1621,4.1588,4.1588,4.1522,4.1588,4.1555,4.1522,4.1588,4.1683,4.1936,4.2473,4.2505,4.2217,4.2692,4.3042,4.3358,4.4275,4.4843,4.5065,4.557,4.5886,4.6076,4.6339,4.7252,4.8627,4.9566,5.0267,5.0831,5.1366,5.2163,5.3206,5.3692,5.4221,5.5006,5.605,5.6627,5.6884,5.8152,5.882,5.8863,5.8896,5.9155,5.9608,5.9673,5.9814,6.0008,6.0008,6.0105,6.0299,6.0862,6.1028,6.0761,6.1273,6.1797,6.2263,6.2941,6.353,6.3784,6.3919,6.4278,6.4932,6.5249,6.567,6.6156,6.6535,6.7045,6.7655,6.7345,6.7289,6.7548,6.7728,6.8011,6.8601,6.9233,6.9757,7.0123,7.1015,7.1557,7.1775,7.2285,7.2807,7.3342,7.44,7.5084,7.4628,7.5075,7.5494,7.4967,7.4957,7.5056,7.5133,7.5301,7.5547,7.6064,7.6137,7.6776,7.7517,7.7838,7.8,7.8455,7.8696,7.8822,7.936,7.9929,8.0447,8.088,8.1226,8.1695,8.1796,8.1882,8.1976,8.2081,8.2147,8.2143,4.1784,4.1588,4.1588,4.1489,4.1323,4.1489,4.1489,4.1323,4.1522,4.1968,4.2537,4.2695,4.2908,4.3305,4.357,4.3987,4.4527,4.465,4.5061,4.5665,4.5792,4.6139,4.674,4.7024,4.7864,4.9108,4.9904,5.0671,5.1335,5.2426,5.3028,5.3186,5.4324,5.515,5.562,5.6778,5.7732,5.8052,5.8815,5.9399,5.964,5.9652,5.9684,5.9814,5.9705,6.0073,6.0656,6.0753,6.1044,6.1692,6.195,6.2085,6.2142,6.253,6.3033,6.342,6.3606,6.3818,6.4304,6.4386,6.4829,6.5814,6.6354,6.6986,6.7704,6.8162,6.854,6.9124,6.8986,6.9024,6.9134,6.9317,6.9742,7.016,7.0336,7.0709,7.1295,7.139,7.1805,7.2255,7.2686,7.3204,7.3985,7.4887,7.5178,7.4972,7.495,7.5089,7.5171,7.519,7.5264,7.5427,7.5532,7.5621,7.5676,7.5896,7.6394,7.7011,7.751,7.7794,7.8563,7.9136,7.9182,7.947,8.0019,8.0434,8.0797,8.1299,8.1832,8.2056,8.2042,8.2106,8.2148,8.217,8.2179,4.1588,4.1423,4.1423,4.129,4.1187,4.1254,4.1221,4.1187,4.1323,4.1734,4.2357,4.2865,4.3427,4.3872,4.4413,4.4584,4.4535,4.4975,4.5425,4.5818,4.6234,4.6582,4.6866,4.7662,4.8441,4.9197,4.9987,5.0944,5.1923,5.2733,5.3566,5.4313,5.4818,5.5379,5.6037,5.7026,5.7771,5.8069,5.8856,5.9645,6.032,6.0397,6.0591,6.1012,6.0623,6.0753,6.1433,6.1433,6.1562,6.1789,6.2471,6.2762,6.2626,6.3485,6.4108,6.4348,6.4843,6.5325,6.5657,6.5825,6.6219,6.6868,6.7347,6.7738,6.825,6.8781,6.9157,6.9342,6.967,6.9885,7.0062,7.0202,7.0375,7.065,7.0919,7.1114,7.1467,7.1682,7.1988,7.2467,7.2972,7.3578,7.423,7.508,7.5475,7.5101,7.5531,7.576,7.547,7.5462,7.5527,7.566,7.5803,7.5938,7.6068,7.6024,7.6233,7.6596,7.6931,7.7108,7.7667,7.8068,7.8176,7.9361,8.0016,8.0686,8.1095,8.1628,8.2145,8.2148,8.2144,8.2134,8.2193,8.2152,8.2114,4.139,4.1223,4.1223,4.1153,4.1049,4.1083,4.1052,4.1049,4.1406,4.1875,4.2493,4.3286,4.3903,4.4382,4.4874,4.4954,4.4763,4.5274,4.5604,4.585,4.6487,4.6929,4.7308,4.82,4.8941,4.9526,5.0437,5.1518,5.254,5.3176,5.4008,5.5007,5.5291,5.5809,5.6581,5.7412,5.791,5.823,5.9075,5.9942,6.0618,6.0967,6.1433,6.1983,6.1724,6.166,6.2145,6.2145,6.2321,6.2672,6.3356,6.3739,6.3748,6.4519,6.5134,6.533,6.5871,6.6388,6.6677,6.6812,6.7146,6.7638,6.7999,6.8319,6.8667,6.9085,6.9452,6.9706,7.0026,7.0375,7.0682,7.0783,7.085,7.0985,7.1179,7.1431,7.1651,7.1994,7.238,7.2899,7.358,7.4101,7.4356,7.5274,7.5511,7.5071,7.5835,7.6015,7.5753,7.566,7.5787,7.5908,7.6066,7.6173,7.6293,7.6355,7.64,7.6701,7.7233,7.719,7.73,7.7506,7.8035,7.92,8.0129,8.0852,8.1484,8.2024,8.2168,8.2193,8.217,8.2144,8.2109,8.2067,8.2065,4.1221,4.1117,4.1117,4.095,4.0848,4.095,4.0982,4.1003,4.1704,4.2361,4.3074,4.3764,4.4283,4.4756,4.488,4.4986,4.5142,4.5321,4.5599,4.5945,4.6545,4.7239,4.7902,4.8597,4.9299,4.9963,5.129,5.2302,5.3028,5.3692,5.4419,5.5177,5.5809,5.6441,5.7231,5.7878,5.8318,5.8719,5.9535,6.0211,6.0489,6.1329,6.2178,6.2793,6.2858,6.2858,6.289,6.289,6.3274,6.4059,6.4466,6.5033,6.5437,6.568,6.5965,6.6278,6.6473,6.672,6.7097,6.718,6.7516,6.7959,6.828,6.8667,6.912,6.9452,6.9813,7.0237,7.0478,7.0716,7.1179,7.1372,7.1368,7.134,7.1431,7.1682,7.1957,7.2321,7.2779,7.3447,7.4225,7.4744,7.4764,7.5216,7.558,7.5456,7.5521,7.5786,7.581,7.5848,7.5938,7.612,7.6287,7.6389,7.6526,7.6657,7.6762,7.6979,7.7637,7.8,7.8316,7.8572,7.8996,7.9989,8.0703,8.1402,8.1736,8.2176,8.2144,8.2153,8.2112,8.2077,8.2039,8.2005,8.1952,4.1052,4.0916,4.0882,4.078,4.0608,4.0677,4.089,4.1353,4.1775,4.2492,4.3345,4.3758,4.4186,4.46,4.4685,4.4799,4.5017,4.5092,4.5497,4.6253,4.6843,4.7533,4.8372,4.9072,4.9844,5.065,5.1543,5.2396,5.3123,5.3787,5.4672,5.5715,5.6062,5.6821,5.7864,5.8226,5.8381,5.8673,5.9585,6.039,6.1133,6.204,6.289,6.357,6.3667,6.3667,6.3667,6.3667,6.3858,6.4286,6.4564,6.5021,6.5647,6.5955,6.6172,6.6464,6.6804,6.7014,6.7222,6.7597,6.7879,6.8197,6.8586,6.8967,6.9305,6.9742,7.0132,7.0478,7.0817,7.1179,7.1404,7.1593,7.1687,7.1692,7.1836,7.2078,7.2343,7.2807,7.3215,7.3564,7.4075,7.4431,7.4698,7.5177,7.5399,7.5539,7.5682,7.5887,7.601,7.6093,7.6173,7.6393,7.6465,7.6565,7.6691,7.6915,7.7104,7.7456,7.8106,7.8841,7.9206,7.9709,8.0115,8.0545,8.1275,8.1719,8.2027,8.2143,8.2101,8.2065,8.2039,8.1998,8.1937,8.1895,8.1842,4.0882,4.0712,4.0712,4.0643,4.0505,4.0505,4.0905,4.1586,4.197,4.2649,4.3538,4.3945,4.4284,4.4548,4.461,4.4723,4.4874,4.4836,4.5446,4.6552,4.7021,4.7684,4.8584,4.9573,5.0448,5.1263,5.2039,5.2776,5.3471,5.3913,5.4798,5.5967,5.6189,5.6884,5.8194,5.8321,5.8367,5.8645,5.9703,6.0668,6.1459,6.2561,6.3444,6.3879,6.4024,6.4024,6.4024,6.4024,6.4132,6.4472,6.4885,6.5381,6.5867,6.6129,6.6388,6.6762,6.7014,6.7263,6.755,6.7845,6.8275,6.8509,6.893,6.9303,6.9525,7.0026,7.0375,7.0716,7.1081,7.1467,7.1687,7.1933,7.2054,7.2144,7.2197,7.2459,7.2779,7.3162,7.3501,7.379,7.4094,7.4403,7.4754,7.5018,7.5279,7.5611,7.5902,7.6118,7.625,7.635,7.645,7.6536,7.6639,7.677,7.6871,7.7139,7.7437,7.8008,7.865,7.9377,7.9986,8.0624,8.113,8.1302,8.1854,8.1863,8.2117,8.211,8.2058,8.2029,8.196,8.1904,8.1842,8.1796,8.1747,4.0677,4.0505,4.0505,4.0505,4.0505,4.0505,4.0905,4.1648,4.2263,4.291,4.3624,4.424,4.4548,4.461,4.461,4.4685,4.4836,4.4723,4.5434,4.6516,4.7068,4.7559,4.8542,4.9774,5.0702,5.1591,5.2461,5.3271,5.3902,5.4071,5.4798,5.6062,5.6252,5.6929,5.8068,5.8321,5.8321,5.8525,5.9852,6.0786,6.1195,6.2713,6.369,6.3976,6.4024,6.4024,6.4024,6.4038,6.4272,6.4702,6.5336,6.5824,6.6095,6.6345,6.672,6.7097,6.7222,6.7591,6.7959,6.8197,6.847,6.8965,6.9192,6.9489,6.9849,7.0272,7.0649,7.0979,7.1368,7.1682,7.2024,7.2351,7.2553,7.2723,7.2658,7.2863,7.3294,7.3461,7.3628,7.393,7.4131,7.4281,7.4655,7.4789,7.5111,7.5611,7.5873,7.6057,7.6382,7.6493,7.6594,7.6696,7.6801,7.6885,7.6994,7.7034,7.7398,7.8176,7.8891,7.9723,8.0547,8.1244,8.173,8.1957,8.2031,8.2062,8.2046,8.2029,8.1983,8.1912,8.186,8.1796,8.1737,8.1674,8.1619,4.0543,4.0505,4.0505,4.0505,4.0505,4.0505,4.094,4.1648,4.2294,4.2971,4.3655,4.4302,4.461,4.461,4.461,4.461,4.4648,4.461,4.5349,4.6498,4.6722,4.7592,4.8652,4.9384,5.0309,5.1351,5.2031,5.2681,5.3825,5.4017,5.483,5.6157,5.622,5.6884,5.8053,5.8321,5.8321,5.851,5.9916,6.085,6.1323,6.2698,6.3723,6.3976,6.4024,6.4024,6.4071,6.4333,6.4564,6.4748,6.5425,6.5911,6.6139,6.6516,6.6888,6.7222,6.7597,6.7919,6.8123,6.8548,6.8892,6.9078,6.9414,6.9706,7.0097,7.0444,7.0883,7.1304,7.1775,7.2108,7.238,7.2714,7.3017,7.3294,7.3178,7.3193,7.3464,7.3802,7.3879,7.3462,7.3614,7.3702,7.3684,7.3806,7.4228,7.4975,7.5461,7.5813,7.6216,7.6651,7.673,7.6862,7.6942,7.7004,7.7051,7.7082,7.743,7.8277,7.9062,7.988,8.0687,8.1446,8.1828,8.2112,8.205,8.2046,8.1983,8.1951,8.1869,8.1824,8.1757,8.1685,8.1585,8.1553,8.1504,4.0505,4.0505,4.0505,4.0505,4.0505,4.0505,4.094,4.1648,4.2325,4.2971,4.3655,4.4302,4.461,4.461,4.461,4.461,4.461,4.461,4.5157,4.6111,4.6757,4.77,4.8749,4.9512,5.0445,5.1192,5.1996,5.2918,5.3664,5.3888,5.4806,5.5936,5.6189,5.6915,5.8226,5.8321,5.8321,5.8542,5.9758,6.0677,6.1148,6.2603,6.3531,6.3929,6.4024,6.3991,6.4179,6.4518,6.4793,6.5033,6.557,6.6086,6.643,6.6728,6.7139,6.7428,6.7879,6.8197,6.8397,6.8816,6.9118,6.934,6.9634,6.9956,7.0341,7.075,7.124,7.1463,7.2018,7.2343,7.2528,7.2721,7.309,7.3566,7.3429,7.3205,7.3279,7.355,7.3446,7.3057,7.3019,7.321,7.3041,7.323,7.3715,7.4405,7.5087,7.5527,7.6022,7.6521,7.689,7.696,7.7014,7.7063,7.7059,7.7081,7.7215,7.8008,7.85,7.946,8.0644,8.139,8.1577,8.1747,8.1909,8.1936,8.1709,8.1678,8.1815,8.1755,8.1669,8.155,8.1426,8.1427,8.136,4.0505,4.0505,4.0505,4.0505,4.0505,4.0505,4.094,4.1648,4.2325,4.2971,4.3655,4.4332,4.4579,4.461,4.461,4.461,4.461,4.461,4.5133,4.5988,4.6942,4.7958,4.8676,4.9707,5.0472,5.1072,5.2499,5.314,5.3565,5.3746,5.4675,5.5784,5.6189,5.6979,5.8036,5.8321,5.8321,5.8464,5.9491,6.0471,6.1165,6.2348,6.3292,6.3897,6.4038,6.4179,6.4379,6.4656,6.5021,6.547,6.5922,6.6311,6.677,6.7056,6.7428,6.7759,6.8039,6.8358,6.8667,6.8967,6.9266,6.9561,6.9956,7.0306,7.0581,7.1081,7.1431,7.1651,7.2101,7.2279,7.2354,7.2306,7.2634,7.3198,7.3062,7.2891,7.2808,7.3015,7.3044,7.2491,7.2523,7.2778,7.2999,7.3253,7.3454,7.3682,7.4381,7.4966,7.5592,7.619,7.6666,7.7019,7.7028,7.7065,7.7089,7.7103,7.7265,7.7611,7.7843,7.8659,8.0266,8.0965,8.1078,8.1141,8.0941,8.0954,8.1077,8.1164,8.1364,8.1336,8.1035,8.113,8.1233,8.1294,8.1277,4.0505,4.0505,4.0505,4.0505,4.0505,4.0505,4.0905,4.1617,4.2258,4.2934,4.3618,4.4264,4.4572,4.4572,4.4572,4.461,4.4572,4.4633,4.5187,4.6419,4.7157,4.7958,4.8512,4.9149,4.9766,5.0684,5.1258,5.2163,5.3028,5.3709,5.448,5.57,5.6207,5.6884,5.8131,5.8321,5.8321,5.8401,5.9128,6.0106,6.1102,6.1996,6.3002,6.3879,6.4114,6.4347,6.4656,6.5021,6.5437,6.5878,6.6225,6.6525,6.6896,6.7353,6.7678,6.7879,6.828,6.859,6.8781,6.9157,6.9489,6.9669,6.9991,7.041,7.0847,7.1143,7.1589,7.1915,7.1916,7.1709,7.1689,7.1578,7.1902,7.2327,7.2397,7.2133,7.1935,7.2734,7.2871,7.2175,7.1985,7.203,7.1737,7.1954,7.2346,7.2944,7.3605,7.4256,7.5018,7.584,7.6418,7.6915,7.7065,7.713,7.7104,7.7109,7.7217,7.7317,7.7454,7.7646,7.9241,7.9994,7.9912,7.982,7.9761,7.9922,8.0242,8.0373,8.05,8.0457,8.0538,8.0756,8.093,8.108,8.1176,4.0331,4.0261,4.0261,4.0261,4.0261,4.0261,4.0475,4.0995,4.1918,4.253,4.3019,4.3846,4.4305,4.4335,4.4335,4.4335,4.4343,4.445,4.5233,4.6388,4.7034,4.765,4.8481,4.8727,4.9343,5.0586,5.1197,5.1994,5.2927,5.3533,5.4361,5.5673,5.6099,5.6947,5.8131,5.8321,5.8321,5.8447,5.911,6.0009,6.1038,6.1929,6.2919,6.3793,6.4086,6.4231,6.4955,6.4883,6.5436,6.6072,6.6482,6.6812,6.7105,6.7435,6.7719,6.7965,6.8397,6.8667,6.8857,6.9231,6.9634,6.9742,7.0131,7.0613,7.097,7.1146,7.126,7.156,7.1416,7.1046,7.124,7.1073,7.1291,7.1815,7.1817,7.1636,7.1613,7.2236,7.2435,7.1574,7.1444,7.1454,7.1363,7.1426,7.1607,7.2391,7.308,7.3759,7.467,7.5491,7.6305,7.6795,7.7013,7.7144,7.7109,7.7103,7.7188,7.7188,7.717,7.7235,7.7859,7.8264,7.8442,7.8656,7.902,7.9202,7.9476,7.9575,7.9763,7.9958,8.0172,8.041,8.0622,8.0831,8.0939,4.0121,4.0011,4.0011,4.0011,4.0011,4.0011,4.0102,4.0375,4.1316,4.2028,4.2318,4.3411,4.3883,4.3996,4.4026,4.4026,4.4096,4.4425,4.5284,4.6352,4.673,4.7538,4.8306,4.8686,4.9343,5.0636,5.1172,5.1999,5.2794,5.3339,5.4134,5.5409,5.6023,5.6821,5.78,5.8289,5.8321,5.8508,5.9058,5.9894,6.0825,6.1684,6.2543,6.3492,6.3661,6.3833,6.4442,6.4542,6.4781,6.5975,6.6306,6.675,6.7216,6.7557,6.7678,6.8083,6.8474,6.8667,6.8819,6.9233,6.9706,6.9814,7.0196,7.0593,7.0762,7.0701,7.08,7.0816,7.0733,7.0472,7.0853,7.0556,7.0788,7.136,7.1257,7.1251,7.1439,7.1587,7.1413,7.1137,7.1249,7.1352,7.1425,7.1529,7.1606,7.1807,7.2522,7.3251,7.4195,7.4978,7.5707,7.6237,7.6404,7.66,7.6591,7.7002,7.7106,7.7058,7.6993,7.6986,7.7002,7.7192,7.764,7.8146,7.8465,7.8486,7.8599,7.8822,7.9095,7.9485,7.9774,7.9928,8.0238,8.0591,8.0657,4.0046,4.0011,4.0011,4.0011,4.0011,4.0011,4.0279,4.08,4.1007,4.1802,4.2743,4.3077,4.3463,4.3866,4.3988,4.3988,4.4109,4.4513,4.5261,4.6194,4.6773,4.7578,4.8243,4.851,4.9332,5.0389,5.0944,5.1603,5.2661,5.325,5.3921,5.4742,5.5726,5.6694,5.739,5.7927,5.8413,5.8473,5.8832,5.9475,6.0372,6.1031,6.1633,6.2749,6.2912,6.3254,6.3419,6.3657,6.3933,6.4296,6.458,6.544,6.6398,6.7227,6.7668,6.8083,6.837,6.8566,6.8642,6.931,6.946,6.9385,6.9513,6.9717,6.9792,6.9791,6.9966,7.0165,7.0058,6.9744,6.9323,6.9551,6.9658,7.0057,7.0402,7.0442,7.0707,7.0974,7.1131,7.094,7.112,7.1396,7.1502,7.1598,7.1683,7.1758,7.2106,7.2778,7.3552,7.422,7.4832,7.5272,7.5584,7.5804,7.5969,7.656,7.6892,7.6855,7.6826,7.6832,7.6812,7.6691,7.6981,7.7405,7.739,7.7156,7.7432,7.7936,7.8012,7.8055,7.8681,7.9383,7.9677,7.9911,8.0136,3.9768,3.9727,3.9661,3.9691,3.9661,3.9661,3.9877,4.0209,4.057,4.1234,4.2047,4.253,4.3042,4.3524,4.3606,4.3714,4.4013,4.4497,4.5243,4.6032,4.6782,4.7577,4.824,4.8427,4.9136,4.9977,5.0543,5.1374,5.262,5.3157,5.3752,5.4541,5.5619,5.6536,5.7231,5.7927,5.8318,5.8564,5.8778,5.9292,6.0406,6.0999,6.189,6.2243,6.2475,6.2779,6.3216,6.2979,6.3417,6.3977,6.4244,6.4823,6.5607,6.6263,6.6975,6.7807,6.8093,6.8148,6.8157,6.8536,6.8503,6.8393,6.8761,6.9137,6.9201,6.9231,6.9155,6.9236,6.9422,6.9215,6.905,6.9193,6.9373,6.9398,6.9801,7.0107,7.0239,7.0656,7.0695,7.0699,7.1025,7.1271,7.1573,7.1661,7.1745,7.1817,7.1881,7.2381,7.3026,7.3611,7.4177,7.4531,7.4913,7.4967,7.5237,7.5815,7.6259,7.6287,7.6543,7.6582,7.6594,7.6496,7.645,7.6641,7.6389,7.6313,7.6431,7.6982,7.6798,7.6895,7.7915,7.8762,7.9006,7.9232,7.9514,3.9553,3.9403,3.9403,3.9403,3.9403,3.9403,3.9439,3.9493,3.9948,4.0673,4.1384,4.1991,4.262,4.315,4.3329,4.3438,4.3696,4.4258,4.5042,4.5828,4.6576,4.7369,4.7981,4.8363,4.8783,4.9616,5.0143,5.119,5.2325,5.3095,5.3721,5.4291,5.5367,5.6189,5.6726,5.7484,5.8078,5.8542,5.8882,5.946,6.038,6.1434,6.2191,6.2191,6.2065,6.233,6.2713,6.2423,6.2674,6.3306,6.3754,6.4174,6.4829,6.5021,6.5867,6.7295,6.7434,6.7414,6.7539,6.7658,6.7794,6.7611,6.8106,6.8444,6.85,6.8309,6.8188,6.8198,6.8166,6.8331,6.8285,6.8854,6.8925,6.8897,6.9322,6.9858,6.9662,6.9785,7.0008,7.0208,7.0709,7.0792,7.0736,7.1251,7.1243,7.1526,7.1585,7.205,7.2659,7.3194,7.3672,7.4019,7.4238,7.4168,7.4433,7.4933,7.5249,7.5322,7.5774,7.6095,7.6216,7.6284,7.6231,7.6185,7.6263,7.6212,7.6131,7.6164,7.6452,7.6916,7.7639,7.7982,7.8053,7.862,7.9183,3.9409,3.9373,3.9373,3.9403,3.9373,3.9373,3.9373,3.9403,3.9493,4.0247,4.1346,4.1504,4.2154,4.308,4.329,4.3329,4.3579,4.4058,4.4698,4.5421,4.6226,4.7015,4.7673,4.8133,4.8565,4.9285,4.9658,5.0574,5.1691,5.2753,5.3409,5.3853,5.4725,5.5355,5.586,5.6947,5.7489,5.8039,5.8684,5.9261,5.9834,6.0446,6.0728,6.0867,6.1132,6.1417,6.17,6.1534,6.1742,6.2078,6.2287,6.2956,6.3981,6.4423,6.5138,6.6031,6.654,6.6764,6.6986,6.72,6.7224,6.7029,6.7343,6.7456,6.7339,6.7266,6.7234,6.75,6.7172,6.7052,6.7305,6.7424,6.758,6.7884,6.8317,6.8622,6.8602,6.9153,6.9331,6.9159,6.9497,6.9414,6.9356,7.009,7.0697,7.1014,7.1363,7.175,7.2012,7.2264,7.2731,7.2951,7.3086,7.3083,7.3514,7.4043,7.4321,7.4375,7.493,7.5488,7.5485,7.5558,7.5915,7.5877,7.5941,7.5911,7.5774,7.5894,7.6279,7.6654,7.7067,7.7028,7.6908,7.7717,7.877,3.9053,3.9053,3.9083,3.9083,3.9053,3.9083,3.9053,3.9083,3.9083,3.9795,4.0834,4.0846,4.1665,4.3021,4.328,4.329,4.3439,4.3947,4.4436,4.4975,4.5878,4.6653,4.7123,4.7752,4.8419,4.8802,4.937,4.9866,5.0962,5.2058,5.2972,5.3528,5.4505,5.5386,5.5588,5.6649,5.7629,5.8448,5.9113,5.9464,5.976,6.0152,6.0378,6.042,6.0835,6.1044,6.1086,6.1119,6.1293,6.1628,6.1877,6.2448,6.3124,6.3398,6.3661,6.4799,6.4213,6.4672,6.597,6.6246,6.6299,6.6268,6.6284,6.6177,6.6108,6.6231,6.637,6.6677,6.6649,6.6582,6.6753,6.7165,6.7137,6.7278,6.75,6.7634,6.7911,6.8455,6.8728,6.8481,6.8239,6.8217,6.8339,6.9028,6.9665,7.0013,7.0216,7.0485,7.0504,7.0505,7.1038,7.1678,7.176,7.1794,7.2417,7.3035,7.3352,7.3565,7.41,7.4489,7.4492,7.4676,7.5002,7.5116,7.497,7.5,7.518,7.5649,7.6079,7.6229,7.6339,7.645,7.6631,7.7303,7.8236,3.8649,3.8686,3.876,3.8767,3.8767,3.8767,3.8804,3.8833,3.8804,3.9483,4.033,4.0704,4.1676,4.2872,4.32,4.325,4.3349,4.3798,4.4097,4.4676,4.5394,4.6167,4.6756,4.7431,4.8007,4.826,4.8887,4.9443,5.0179,5.1208,5.2355,5.3171,5.4115,5.5058,5.5873,5.6613,5.7426,5.8844,5.9419,5.9628,5.976,6.0109,6.0325,6.0496,6.0717,6.0936,6.0854,6.1053,6.1293,6.0993,6.1553,6.1946,6.2241,6.2235,6.2532,6.3238,6.2788,6.31,6.4388,6.5039,6.5122,6.5184,6.5353,6.5319,6.5511,6.557,6.5635,6.5926,6.5839,6.607,6.6329,6.6559,6.6484,6.6542,6.6902,6.6999,6.7162,6.7509,6.7715,6.7569,6.7324,6.7267,6.7502,6.8076,6.8553,6.8936,6.9137,6.9289,6.9335,6.928,6.9767,7.0515,7.0511,7.0697,7.141,7.1939,7.229,7.2677,7.317,7.3488,7.3474,7.3727,7.4051,7.406,7.3971,7.4075,7.4244,7.5034,7.5785,7.5846,7.59,7.6249,7.6616,7.717,7.7602,3.824,3.8277,3.8649,3.873,3.8767,3.8767,3.8767,3.873,3.8767,3.9172,3.9891,4.0998,4.2001,4.2763,4.2981,4.313,4.3319,4.3349,4.3708,4.4276,4.5035,4.5663,4.6329,4.7039,4.7734,4.8049,4.8515,4.899,4.9682,5.048,5.1585,5.2485,5.3526,5.436,5.5216,5.6138,5.7185,5.846,5.9129,5.9414,5.9577,5.9794,6.0043,6.0289,6.0501,6.0547,6.0117,6.0556,6.0662,6.0035,6.0796,6.121,6.1323,6.1313,6.1707,6.2127,6.1848,6.2223,6.311,6.4034,6.4211,6.4183,6.4296,6.4713,6.4915,6.4807,6.493,6.5157,6.5099,6.491,6.4973,6.5042,6.5584,6.5848,6.615,6.6192,6.6225,6.6284,6.6486,6.6493,6.6369,6.6199,6.619,6.6644,6.7534,6.7961,6.8412,6.8592,6.8743,6.8794,6.9,6.9393,6.9377,6.9679,7.0401,7.0809,7.1008,7.1392,7.1921,7.2214,7.2375,7.2713,7.3022,7.3105,7.3053,7.3154,7.3405,7.4139,7.4801,7.5198,7.5454,7.5589,7.6027,7.6572,7.6903,3.7509,3.7853,3.7976,3.8202,3.8427,3.8427,3.8427,3.8427,3.8427,3.8547,3.8957,4.0627,4.1645,4.1989,4.2621,4.285,4.293,4.293,4.3218,4.3596,4.4203,4.4941,4.5693,4.6533,4.7298,4.7885,4.8187,4.8458,4.9035,4.9859,5.0306,5.1316,5.277,5.404,5.497,5.5834,5.6873,5.7425,5.8075,5.826,5.8645,5.8815,5.9067,5.9276,5.9482,5.9588,5.9558,5.9724,5.9771,5.989,6.0342,6.0513,6.0537,6.0593,6.1016,6.1536,6.1083,6.1206,6.2178,6.3097,6.3581,6.3654,6.3793,6.3962,6.4057,6.3918,6.4062,6.4224,6.4394,6.4275,6.4577,6.4924,6.5324,6.5383,6.5398,6.5346,6.5377,6.5368,6.5316,6.5403,6.5164,6.4902,6.4961,6.5095,6.6096,6.6986,6.7441,6.7851,6.8029,6.8105,6.8266,6.8378,6.8394,6.8767,6.948,6.9616,6.967,7.0222,7.0719,7.0894,7.1142,7.153,7.1814,7.1962,7.2072,7.2118,7.2483,7.3225,7.3827,7.4272,7.4486,7.4638,7.5221,7.591,7.6144,3.6768,3.731,3.7339,3.7605,3.7985,3.8014,3.8014,3.8014,3.8089,3.8283,3.8563,4.0139,4.0967,4.1368,4.1898,4.25,4.267,4.2729,4.2809,4.3186,4.3753,4.4311,4.5012,4.5788,4.6629,4.7425,4.7775,4.7943,4.8602,4.9259,4.9724,5.0565,5.1868,5.3208,5.4612,5.5783,5.6567,5.6774,5.7077,5.7377,5.7823,5.8074,5.8355,5.8634,5.8863,5.8873,5.8966,5.9112,5.9182,5.9261,5.961,5.9976,5.9961,6.0043,6.0393,6.0495,6.0453,6.0229,6.1266,6.2149,6.2922,6.3337,6.3211,6.3053,6.2867,6.2965,6.3201,6.3046,6.3478,6.3898,6.3991,6.4027,6.4181,6.4214,6.4444,6.4462,6.4486,6.452,6.4355,6.4279,6.4143,6.4259,6.4291,6.4497,6.5094,6.5975,6.6434,6.6912,6.7273,6.7301,6.7287,6.7392,6.7483,6.7974,6.8544,6.8535,6.864,6.9362,6.9739,6.9695,6.9892,7.0257,7.0298,7.0162,7.0348,7.0853,7.1221,7.1561,7.2462,7.3437,7.3669,7.3929,7.4303,7.4913,7.5183,3.6139,3.6682,3.671,3.7025,3.7482,3.7625,3.7663,3.7701,3.7853,3.8294,3.89,3.9363,4.0091,4.0996,4.1328,4.1887,4.239,4.2548,4.2648,4.2906,4.3342,4.389,4.437,4.5012,4.5758,4.6406,4.6875,4.7418,4.821,4.8833,4.9297,4.9785,5.0793,5.2161,5.3833,5.5562,5.6416,5.6535,5.6798,5.7066,5.7339,5.7492,5.7724,5.7976,5.7932,5.7806,5.7847,5.8125,5.8155,5.8096,5.8601,5.8857,5.8731,5.8875,5.9148,5.945,5.9551,5.9841,6.0547,6.1218,6.1989,6.2731,6.2411,6.204,6.1923,6.2054,6.224,6.2155,6.2315,6.2462,6.2542,6.271,6.3016,6.3327,6.3589,6.3652,6.3709,6.3671,6.3538,6.3084,6.3566,6.3965,6.396,6.406,6.4425,6.4952,6.5428,6.5932,6.6399,6.6541,6.6483,6.6328,6.6418,6.6415,6.6825,6.7217,6.7638,6.8365,6.8671,6.8486,6.8574,6.8937,6.8844,6.8513,6.8878,6.954,6.9582,6.9634,7.078,7.1902,7.3019,7.3446,7.3683,7.3975,7.4296,3.5147,3.5684,3.5684,3.5798,3.6146,3.7168,3.7625,3.7625,3.7663,3.7854,3.8227,3.8688,3.9179,3.9865,4.0779,4.1324,4.1656,4.2222,4.231,4.2544,4.289,4.3307,4.3726,4.4228,4.4923,4.5698,4.6214,4.6724,4.7422,4.8115,4.8546,4.9032,4.9892,5.1296,5.271,5.404,5.4432,5.5016,5.5453,5.5789,5.6254,5.614,5.6231,5.6657,5.6294,5.6193,5.6337,5.6738,5.6828,5.6959,5.7556,5.7497,5.7637,5.7877,5.7865,5.8092,5.8186,5.8468,5.9051,5.9681,6.0511,6.1064,6.123,6.0905,6.0847,6.1277,6.14,6.147,6.162,6.1916,6.2284,6.252,6.2749,6.3021,6.3167,6.3022,6.2969,6.2897,6.271,6.1958,6.1966,6.1539,6.1343,6.2095,6.268,6.3632,6.4178,6.5103,6.5722,6.5788,6.5722,6.5401,6.5234,6.4984,6.5023,6.5596,6.5837,6.6256,6.6769,6.6996,6.7244,6.7486,6.7745,6.7623,6.7919,6.821,6.8365,6.864,6.936,7.0322,7.1357,7.2465,7.2967,7.3257,7.3658,3.4072,3.4668,3.4696,3.4845,3.5293,3.6514,3.7205,3.7453,3.751,3.7548,3.771,3.8236,3.8668,3.912,3.9816,4.0833,4.1076,4.1512,4.2046,4.2252,4.2421,4.2779,4.3178,4.3519,4.405,4.4792,4.5376,4.5883,4.6546,4.7095,4.7566,4.814,4.9068,5.0341,5.1623,5.2408,5.2997,5.3523,5.3921,5.4323,5.4608,5.4737,5.4865,5.5033,5.492,5.4811,5.5001,5.5252,5.5461,5.6087,5.6369,5.6406,5.6747,5.6948,5.7032,5.7257,5.7666,5.7947,5.8438,5.8481,5.9221,5.9646,5.9719,5.9905,6.0052,6.0404,6.0492,6.0671,6.0999,6.1027,6.1119,6.1406,6.1446,6.1635,6.148,6.1285,6.1331,6.1217,6.1237,6.0519,6.0235,5.9576,5.9189,5.9816,6.0659,6.1796,6.2878,6.3867,6.4808,6.4904,6.4872,6.4584,6.4318,6.417,6.4,6.4085,6.426,6.4224,6.4691,6.5282,6.5383,6.5542,6.6139,6.6742,6.6848,6.702,6.7335,6.7731,6.8294,6.8912,6.9662,7.0766,7.1965,7.244,7.2725,3.3063,3.3661,3.3652,3.4094,3.4836,3.5583,3.6419,3.7193,3.7289,3.7394,3.7615,3.7615,3.8045,3.8697,3.8937,3.9747,4.0792,4.1036,4.157,4.2029,4.2269,4.2439,4.2521,4.2784,4.3312,4.3731,4.4251,4.4874,4.5604,4.6172,4.665,4.7303,4.8224,4.9171,5.008,5.0849,5.159,5.2321,5.2913,5.3279,5.3574,5.372,5.3967,5.4133,5.4155,5.428,5.4498,5.4711,5.5093,5.5512,5.5859,5.6031,5.6268,5.6503,5.6865,5.7213,5.7666,5.7694,5.7729,5.7525,5.7568,5.7906,5.8765,5.9188,5.9255,5.9161,5.9099,5.9139,5.9305,5.9181,5.9171,5.9101,5.9078,5.9,5.8853,5.8883,5.9086,5.9134,5.9262,5.9134,5.9116,5.8771,5.8577,5.8928,5.9335,5.9993,6.1063,6.1843,6.2808,6.3925,6.3884,6.3804,6.3571,6.3438,6.3263,6.2821,6.3007,6.3117,6.3105,6.3524,6.3566,6.3794,6.4305,6.4883,6.5414,6.5841,6.6331,6.6759,6.717,6.7748,6.8259,6.94,7.0623,7.1154,7.1546,3.2814,3.298,3.298,3.3126,3.342,3.4103,3.5087,3.6189,3.6792,3.7134,3.7201,3.7327,3.7613,3.7794,3.8406,3.9262,4.0014,4.07,4.1389,4.1831,4.1988,4.2117,4.2228,4.2462,4.2813,4.3083,4.3442,4.3942,4.4768,4.5343,4.6001,4.6661,4.7209,4.7778,4.8329,4.8934,5.0272,5.1448,5.2108,5.2453,5.2681,5.2959,5.317,5.3268,5.3225,5.3379,5.3492,5.3569,5.3948,5.4596,5.4601,5.4767,5.5415,5.5398,5.5532,5.5733,5.583,5.5759,5.5844,5.608,5.6165,5.5959,5.643,5.6961,5.7198,5.7497,5.7521,5.781,5.8006,5.8029,5.8053,5.7973,5.7873,5.7812,5.7758,5.7901,5.8088,5.8219,5.835,5.8359,5.8296,5.786,5.7731,5.7996,5.8359,5.8734,5.9279,6.0091,6.0892,6.2001,6.2517,6.2432,6.2203,6.1872,6.1713,6.1373,6.1733,6.2003,6.191,6.1989,6.2361,6.2563,6.2698,6.3096,6.3785,6.4631,6.5523,6.5778,6.5753,6.6313,6.6851,6.8105,6.9188,6.9629,7.0301,3.1918,3.1946,3.2263,3.2417,3.2635,3.3394,3.4187,3.4982,3.6018,3.6536,3.6592,3.6982,3.7211,3.7412,3.787,3.851,3.9309,3.9635,4.0233,4.0943,4.1476,4.1587,4.1756,4.214,4.2503,4.2725,4.3005,4.3445,4.4107,4.4881,4.5597,4.5797,4.619,4.6691,4.7215,4.7847,4.8678,4.9978,5.097,5.1541,5.1804,5.1961,5.2202,5.2207,5.2095,5.234,5.2489,5.253,5.2838,5.328,5.3175,5.3232,5.3772,5.3839,5.4061,5.4285,5.4479,5.4512,5.4704,5.4981,5.4896,5.4749,5.4675,5.5144,5.5809,5.6245,5.6609,5.6965,5.7082,5.7165,5.7142,5.7097,5.7085,5.7066,5.7187,5.7332,5.7499,5.7637,5.7671,5.7686,5.7364,5.6836,5.6803,5.7103,5.7539,5.8028,5.8418,5.8909,5.9552,6.0277,6.0585,6.0577,6.033,6.0026,5.9991,6.0035,6.0111,6.0263,6.0279,6.0478,6.1023,6.1485,6.1704,6.1902,6.2178,6.3044,6.3904,6.4053,6.4174,6.4753,6.5308,6.6173,6.7136,6.7815,6.8652,3.0779,3.0886,3.1575,3.2036,3.2273,3.3129,3.3477,3.3504,3.4889,3.5635,3.5812,3.6564,3.6916,3.7003,3.7335,3.7887,3.8528,3.8893,3.9344,3.9819,4.0504,4.0816,4.114,4.1698,4.207,4.246,4.2868,4.3178,4.3529,4.4168,4.4809,4.4999,4.5633,4.6102,4.6454,4.6936,4.7536,4.8152,4.9328,5.0083,5.0063,5.0365,5.0932,5.0877,5.1322,5.19,5.2086,5.2029,5.1799,5.1798,5.1825,5.1743,5.2186,5.2412,5.27,5.3083,5.345,5.361,5.3842,5.4154,5.4287,5.4231,5.4163,5.4078,5.4386,5.5118,5.5566,5.599,5.612,5.6236,5.6223,5.6016,5.5912,5.5892,5.5955,5.6136,5.6303,5.629,5.6092,5.6091,5.5907,5.5488,5.5759,5.6091,5.6523,5.7207,5.7677,5.797,5.8194,5.8721,5.9031,5.9048,5.9198,5.9099,5.896,5.8907,5.8437,5.8462,5.8706,5.8753,5.9171,5.9915,6.0736,6.0768,6.082,6.1292,6.1915,6.2299,6.2775,6.3211,6.3759,6.4222,6.4956,6.5836,6.6869,3.0956,3.1419,3.1763,3.1927,3.2,3.2391,3.2545,3.2563,3.3532,3.4296,3.4982,3.5662,3.6151,3.6312,3.6877,3.7512,3.8161,3.8285,3.8859,3.9333,3.9865,4.0032,4.0365,4.1244,4.1573,4.1605,4.2069,4.2881,4.313,4.3617,4.4034,4.423,4.47,4.5041,4.5417,4.5957,4.6528,4.6686,4.7719,4.8598,4.8765,4.9171,4.9635,4.9856,5.0366,5.0639,5.0818,5.0858,5.0827,5.0961,5.1221,5.1507,5.1946,5.1845,5.2201,5.2711,5.2709,5.2777,5.2957,5.3128,5.3207,5.3007,5.2769,5.2705,5.2974,5.3862,5.4503,5.4868,5.512,5.5208,5.5213,5.4936,5.4766,5.4718,5.4685,5.4889,5.5103,5.4821,5.4543,5.4484,5.4369,5.4526,5.479,5.5155,5.5584,5.6076,5.6589,5.6854,5.6819,5.7157,5.7929,5.8108,5.8596,5.8558,5.8209,5.7879,5.7491,5.7506,5.7853,5.7734,5.751,5.8216,5.9026,5.9285,5.9486,5.9854,6.0344,6.1056,6.1528,6.1828,6.2132,6.2586,6.2992,6.3731,6.4863,3.0181,3.0659,3.1346,3.1706,3.178,3.2,3.2073,3.2164,3.2645,3.3119,3.3761,3.4934,3.5669,3.5857,3.657,3.7091,3.767,3.7681,3.7912,3.8421,3.9047,3.9291,3.9863,4.0495,4.0723,4.0852,4.1411,4.2041,4.2425,4.2482,4.2677,4.3317,4.3647,4.3876,4.4308,4.5067,4.5578,4.5546,4.6502,4.7083,4.7568,4.8289,4.881,4.9129,4.937,4.9608,4.9816,4.9922,4.9926,5.0056,5.0274,5.045,5.0742,5.0916,5.129,5.1598,5.167,5.1637,5.1844,5.1934,5.1907,5.1623,5.1471,5.1433,5.1701,5.2472,5.2809,5.3164,5.3467,5.3588,5.3675,5.3525,5.3684,5.3748,5.3839,5.4001,5.4001,5.3808,5.3905,5.416,5.3958,5.375,5.4051,5.4452,5.4802,5.4795,5.5311,5.5786,5.5751,5.5749,5.6453,5.6984,5.7381,5.7425,5.7023,5.6802,5.6633,5.6767,5.6875,5.7013,5.6958,5.7005,5.7255,5.7524,5.781,5.815,5.8762,5.9449,6.0088,6.0472,6.069,6.0963,6.1325,6.1675,6.26,2.9071,2.95,3.075,3.1373,3.1559,3.178,3.1853,3.189,3.2036,3.2173,3.249,3.4272,3.52,3.5742,3.6275,3.6598,3.6911,3.7158,3.7247,3.7402,3.8079,3.8406,3.8792,3.9304,3.9896,4.0305,4.0685,4.1035,4.1385,4.1492,4.1855,4.2461,4.2789,4.2947,4.3394,4.3976,4.4495,4.446,4.4966,4.5439,4.6366,4.7425,4.7949,4.8326,4.8665,4.9097,4.9143,4.9155,4.8995,4.9287,4.9492,4.9759,4.988,5.0155,5.0404,5.0662,5.0452,5.0503,5.0605,5.0471,5.0421,5.0337,5.0299,5.0399,5.0721,5.0917,5.1245,5.1524,5.1807,5.2304,5.2404,5.2433,5.2641,5.2943,5.3079,5.3005,5.2905,5.2785,5.3135,5.3511,5.3306,5.3012,5.3232,5.3632,5.3826,5.3819,5.4078,5.4484,5.4765,5.4808,5.5142,5.5497,5.576,5.5746,5.5777,5.5941,5.5945,5.549,5.5605,5.6072,5.635,5.6201,5.602,5.5834,5.6131,5.6684,5.7018,5.7539,5.8228,5.8963,5.9117,5.9244,5.9408,5.9808,6.0399,2.8656,2.9531,3.0637,3.1048,3.1187,3.1485,3.1659,3.1669,3.1706,3.178,3.2152,3.2766,3.3734,3.4634,3.5586,3.6018,3.6112,3.6508,3.6529,3.6531,3.7157,3.7538,3.8045,3.8649,3.9596,3.9906,4.0011,4.0262,4.0482,4.0834,4.13,4.1829,4.2054,4.2278,4.253,4.3039,4.3386,4.3412,4.3733,4.4338,4.4798,4.5748,4.6667,4.7077,4.7286,4.759,4.7798,4.7934,4.8134,4.8523,4.8984,4.924,4.936,4.9428,4.9637,4.9741,4.9523,4.9493,4.9531,4.949,4.9523,4.9742,4.971,4.9574,4.9708,4.9603,4.9891,5.0101,5.0628,5.1737,5.1968,5.1709,5.1764,5.2324,5.2589,5.2152,5.1832,5.1808,5.1914,5.2087,5.2086,5.1958,5.2021,5.246,5.2967,5.3078,5.3451,5.3821,5.4045,5.4014,5.39,5.4203,5.4447,5.4653,5.4909,5.5373,5.5332,5.4714,5.4295,5.4722,5.5032,5.5193,5.4996,5.457,5.4866,5.5402,5.5703,5.5929,5.6489,5.7163,5.7367,5.7498,5.7682,5.7927,5.8479]}]]